<?xml version='1.0' encoding='UTF-8'?>
<gpx version="1.1" creator="https://www.komoot.de" xmlns="http://www.topografix.com/GPX/1/1" xmlns:xsi="http://www.w3.org/2001/XMLSchema-instance" xsi:schemaLocation="http://www.topografix.com/GPX/1/1 http://www.topografix.com/GPX/1/1/gpx.xsd">
  <metadata>
    <name>64_900HerrischriedEgg_neu</name>
    <author>
      <link href="https://www.komoot.de">
        <text>komoot</text>
        <type>text/html</type>
      </link>
    </author>
  </metadata>
  <trk>
    <name>64_900HerrischriedEgg_neu</name>
    <trkseg>
      <trkpt lat="47.544027" lon="7.872359">
        <ele>358.807368</ele>
        <time>2021-11-18T19:03:10.764Z</time>
      </trkpt>
      <trkpt lat="47.544390" lon="7.872423">
        <ele>358.807368</ele>
        <time>2021-11-18T19:03:23.232Z</time>
      </trkpt>
      <trkpt lat="47.544883" lon="7.872555">
        <ele>358.807368</ele>
        <time>2021-11-18T19:03:42.288Z</time>
      </trkpt>
      <trkpt lat="47.545131" lon="7.872664">
        <ele>360.262427</ele>
        <time>2021-11-18T19:03:52.660Z</time>
      </trkpt>
      <trkpt lat="47.545375" lon="7.872836">
        <ele>362.002830</ele>
        <time>2021-11-18T19:04:03.335Z</time>
      </trkpt>
      <trkpt lat="47.545478" lon="7.872968">
        <ele>362.880013</ele>
        <time>2021-11-18T19:04:10.181Z</time>
      </trkpt>
      <trkpt lat="47.545515" lon="7.873015">
        <ele>363.193933</ele>
        <time>2021-11-18T19:04:12.178Z</time>
      </trkpt>
      <trkpt lat="47.545746" lon="7.873302">
        <ele>365.135722</ele>
        <time>2021-11-18T19:04:25.562Z</time>
      </trkpt>
      <trkpt lat="47.545934" lon="7.873549">
        <ele>366.754170</ele>
        <time>2021-11-18T19:04:35.663Z</time>
      </trkpt>
      <trkpt lat="47.546077" lon="7.873763">
        <ele>368.063336</ele>
        <time>2021-11-18T19:04:44.859Z</time>
      </trkpt>
      <trkpt lat="47.546135" lon="7.873859">
        <ele>368.623466</ele>
        <time>2021-11-18T19:04:48.098Z</time>
      </trkpt>
      <trkpt lat="47.546309" lon="7.874154">
        <ele>370.326653</ele>
        <time>2021-11-18T19:04:59.213Z</time>
      </trkpt>
      <trkpt lat="47.547126" lon="7.875801">
        <ele>376.016724</ele>
        <time>2021-11-18T19:05:44.974Z</time>
      </trkpt>
      <trkpt lat="47.547574" lon="7.876801">
        <ele>377.622450</ele>
        <time>2021-11-18T19:06:03.969Z</time>
      </trkpt>
      <trkpt lat="47.547992" lon="7.877974">
        <ele>377.253516</ele>
        <time>2021-11-18T19:06:16.770Z</time>
      </trkpt>
      <trkpt lat="47.548234" lon="7.878638">
        <ele>377.043630</ele>
        <time>2021-11-18T19:06:22.082Z</time>
      </trkpt>
      <trkpt lat="47.548422" lon="7.878959">
        <ele>375.933506</ele>
        <time>2021-11-18T19:06:24.925Z</time>
      </trkpt>
      <trkpt lat="47.548718" lon="7.879258">
        <ele>374.488084</ele>
        <time>2021-11-18T19:06:28.463Z</time>
      </trkpt>
      <trkpt lat="47.549140" lon="7.879391">
        <ele>372.747369</ele>
        <time>2021-11-18T19:06:32.650Z</time>
      </trkpt>
      <trkpt lat="47.549318" lon="7.879398">
        <ele>372.028951</ele>
        <time>2021-11-18T19:06:34.277Z</time>
      </trkpt>
      <trkpt lat="47.549327" lon="7.879547">
        <ele>371.621572</ele>
        <time>2021-11-18T19:06:35.263Z</time>
      </trkpt>
      <trkpt lat="47.549726" lon="7.880786">
        <ele>368.044887</ele>
        <time>2021-11-18T19:06:44.198Z</time>
      </trkpt>
      <trkpt lat="47.549927" lon="7.881490">
        <ele>366.140640</ele>
        <time>2021-11-18T19:06:49.230Z</time>
      </trkpt>
      <trkpt lat="47.550234" lon="7.883221">
        <ele>361.498602</ele>
        <time>2021-11-18T19:07:01.631Z</time>
      </trkpt>
      <trkpt lat="47.550332" lon="7.884727">
        <ele>357.256189</ele>
        <time>2021-11-18T19:07:11.475Z</time>
      </trkpt>
      <trkpt lat="47.550391" lon="7.885109">
        <ele>356.157373</ele>
        <time>2021-11-18T19:07:14.007Z</time>
      </trkpt>
      <trkpt lat="47.550548" lon="7.885799">
        <ele>353.585208</ele>
        <time>2021-11-18T19:07:18.612Z</time>
      </trkpt>
      <trkpt lat="47.550677" lon="7.886476">
        <ele>350.939770</ele>
        <time>2021-11-18T19:07:23.042Z</time>
      </trkpt>
      <trkpt lat="47.550758" lon="7.887295">
        <ele>347.826955</ele>
        <time>2021-11-18T19:07:28.184Z</time>
      </trkpt>
      <trkpt lat="47.550789" lon="7.887816">
        <ele>345.860091</ele>
        <time>2021-11-18T19:07:31.416Z</time>
      </trkpt>
      <trkpt lat="47.550831" lon="7.888611">
        <ele>342.511526</ele>
        <time>2021-11-18T19:07:36.372Z</time>
      </trkpt>
      <trkpt lat="47.550833" lon="7.889069">
        <ele>340.573030</ele>
        <time>2021-11-18T19:07:39.182Z</time>
      </trkpt>
      <trkpt lat="47.550915" lon="7.890600">
        <ele>334.157484</ele>
        <time>2021-11-18T19:07:48.575Z</time>
      </trkpt>
      <trkpt lat="47.550904" lon="7.891725">
        <ele>330.753575</ele>
        <time>2021-11-18T19:07:55.579Z</time>
      </trkpt>
      <trkpt lat="47.550892" lon="7.893176">
        <ele>326.363419</ele>
        <time>2021-11-18T19:08:05.191Z</time>
      </trkpt>
      <trkpt lat="47.550908" lon="7.894308">
        <ele>325.290531</ele>
        <time>2021-11-18T19:08:14.396Z</time>
      </trkpt>
      <trkpt lat="47.550878" lon="7.895158">
        <ele>324.513424</ele>
        <time>2021-11-18T19:08:21.581Z</time>
      </trkpt>
      <trkpt lat="47.550838" lon="7.895509">
        <ele>324.188427</ele>
        <time>2021-11-18T19:08:24.745Z</time>
      </trkpt>
      <trkpt lat="47.550660" lon="7.896255">
        <ele>323.131117</ele>
        <time>2021-11-18T19:08:31.234Z</time>
      </trkpt>
      <trkpt lat="47.550639" lon="7.896345">
        <ele>322.972857</ele>
        <time>2021-11-18T19:08:32.421Z</time>
      </trkpt>
      <trkpt lat="47.550648" lon="7.896481">
        <ele>322.745750</ele>
        <time>2021-11-18T19:08:33.376Z</time>
      </trkpt>
      <trkpt lat="47.550819" lon="7.898109">
        <ele>320.007560</ele>
        <time>2021-11-18T19:08:45.124Z</time>
      </trkpt>
      <trkpt lat="47.550801" lon="7.900244">
        <ele>314.304422</ele>
        <time>2021-11-18T19:08:58.961Z</time>
      </trkpt>
      <trkpt lat="47.550769" lon="7.901362">
        <ele>311.196975</ele>
        <time>2021-11-18T19:09:06.233Z</time>
      </trkpt>
      <trkpt lat="47.550757" lon="7.901591">
        <ele>310.625882</ele>
        <time>2021-11-18T19:09:08.369Z</time>
      </trkpt>
      <trkpt lat="47.550688" lon="7.902451">
        <ele>308.472543</ele>
        <time>2021-11-18T19:09:16.803Z</time>
      </trkpt>
      <trkpt lat="47.550498" lon="7.903445">
        <ele>305.903877</ele>
        <time>2021-11-18T19:09:27.053Z</time>
      </trkpt>
      <trkpt lat="47.550302" lon="7.904164">
        <ele>303.951416</ele>
        <time>2021-11-18T19:09:34.313Z</time>
      </trkpt>
      <trkpt lat="47.550025" lon="7.904774">
        <ele>302.086749</ele>
        <time>2021-11-18T19:09:41.238Z</time>
      </trkpt>
      <trkpt lat="47.549868" lon="7.905010">
        <ele>301.246319</ele>
        <time>2021-11-18T19:09:44.370Z</time>
      </trkpt>
      <trkpt lat="47.549867" lon="7.905155">
        <ele>300.878543</ele>
        <time>2021-11-18T19:09:45.767Z</time>
      </trkpt>
      <trkpt lat="47.550067" lon="7.905245">
        <ele>300.093102</ele>
        <time>2021-11-18T19:09:48.692Z</time>
      </trkpt>
      <trkpt lat="47.550283" lon="7.905413">
        <ele>299.176395</ele>
        <time>2021-11-18T19:09:52.142Z</time>
      </trkpt>
      <trkpt lat="47.550497" lon="7.905558">
        <ele>298.340923</ele>
        <time>2021-11-18T19:09:55.500Z</time>
      </trkpt>
      <trkpt lat="47.549539" lon="7.908625">
        <ele>293.188368</ele>
        <time>2021-11-18T19:10:19.949Z</time>
      </trkpt>
      <trkpt lat="47.549520" lon="7.908678">
        <ele>293.128056</ele>
        <time>2021-11-18T19:10:20.450Z</time>
      </trkpt>
      <trkpt lat="47.549420" lon="7.909009">
        <ele>292.763593</ele>
        <time>2021-11-18T19:10:23.372Z</time>
      </trkpt>
      <trkpt lat="47.549315" lon="7.909358">
        <ele>292.379577</ele>
        <time>2021-11-18T19:10:26.462Z</time>
      </trkpt>
      <trkpt lat="47.549237" lon="7.909617">
        <ele>292.094543</ele>
        <time>2021-11-18T19:10:28.860Z</time>
      </trkpt>
      <trkpt lat="47.549195" lon="7.909756">
        <ele>291.941486</ele>
        <time>2021-11-18T19:10:30.077Z</time>
      </trkpt>
      <trkpt lat="47.549179" lon="7.909808">
        <ele>291.884051</ele>
        <time>2021-11-18T19:10:30.504Z</time>
      </trkpt>
      <trkpt lat="47.549102" lon="7.910058">
        <ele>291.607874</ele>
        <time>2021-11-18T19:10:32.808Z</time>
      </trkpt>
      <trkpt lat="47.549012" lon="7.910340">
        <ele>291.294372</ele>
        <time>2021-11-18T19:10:35.283Z</time>
      </trkpt>
      <trkpt lat="47.548412" lon="7.912168">
        <ele>289.770254</ele>
        <time>2021-11-18T19:10:51.650Z</time>
      </trkpt>
      <trkpt lat="47.548027" lon="7.913334">
        <ele>289.101463</ele>
        <time>2021-11-18T19:11:02.411Z</time>
      </trkpt>
      <trkpt lat="47.547994" lon="7.913433">
        <ele>289.069716</ele>
        <time>2021-11-18T19:11:03.332Z</time>
      </trkpt>
      <trkpt lat="47.547423" lon="7.915080">
        <ele>288.537343</ele>
        <time>2021-11-18T19:11:20.808Z</time>
      </trkpt>
      <trkpt lat="47.547113" lon="7.915971">
        <ele>288.771197</ele>
        <time>2021-11-18T19:11:31.256Z</time>
      </trkpt>
      <trkpt lat="47.547091" lon="7.916039">
        <ele>288.790663</ele>
        <time>2021-11-18T19:11:32.280Z</time>
      </trkpt>
      <trkpt lat="47.547032" lon="7.916218">
        <ele>288.842087</ele>
        <time>2021-11-18T19:11:34.483Z</time>
      </trkpt>
      <trkpt lat="47.546821" lon="7.916867">
        <ele>289.028047</ele>
        <time>2021-11-18T19:11:42.592Z</time>
      </trkpt>
      <trkpt lat="47.546262" lon="7.919081">
        <ele>289.671477</ele>
        <time>2021-11-18T19:12:10.103Z</time>
      </trkpt>
      <trkpt lat="47.546128" lon="7.919617">
        <ele>289.830531</ele>
        <time>2021-11-18T19:12:15.572Z</time>
      </trkpt>
      <trkpt lat="47.545973" lon="7.920313">
        <ele>290.163717</ele>
        <time>2021-11-18T19:12:24.035Z</time>
      </trkpt>
      <trkpt lat="47.545913" lon="7.920765">
        <ele>290.496760</ele>
        <time>2021-11-18T19:12:28.209Z</time>
      </trkpt>
      <trkpt lat="47.545881" lon="7.921096">
        <ele>290.738506</ele>
        <time>2021-11-18T19:12:32.225Z</time>
      </trkpt>
      <trkpt lat="47.545810" lon="7.921755">
        <ele>291.220977</ele>
        <time>2021-11-18T19:12:41.134Z</time>
      </trkpt>
      <trkpt lat="47.545778" lon="7.921947">
        <ele>291.363957</ele>
        <time>2021-11-18T19:12:44.743Z</time>
      </trkpt>
      <trkpt lat="47.545714" lon="7.922249">
        <ele>291.592804</ele>
        <time>2021-11-18T19:12:47.941Z</time>
      </trkpt>
      <trkpt lat="47.545699" lon="7.922325">
        <ele>291.650051</ele>
        <time>2021-11-18T19:12:49.139Z</time>
      </trkpt>
      <trkpt lat="47.545690" lon="7.922369">
        <ele>291.683290</ele>
        <time>2021-11-18T19:12:51.237Z</time>
      </trkpt>
      <trkpt lat="47.545641" lon="7.922610">
        <ele>291.865260</ele>
        <time>2021-11-18T19:12:53.591Z</time>
      </trkpt>
      <trkpt lat="47.545587" lon="7.922895">
        <ele>292.504444</ele>
        <time>2021-11-18T19:12:59.387Z</time>
      </trkpt>
      <trkpt lat="47.545553" lon="7.923142">
        <ele>293.075710</ele>
        <time>2021-11-18T19:13:02.034Z</time>
      </trkpt>
      <trkpt lat="47.545536" lon="7.923407">
        <ele>293.678954</ele>
        <time>2021-11-18T19:13:07.923Z</time>
      </trkpt>
      <trkpt lat="47.545521" lon="7.923709">
        <ele>294.365190</ele>
        <time>2021-11-18T19:13:12.077Z</time>
      </trkpt>
      <trkpt lat="47.545481" lon="7.924396">
        <ele>295.927838</ele>
        <time>2021-11-18T19:13:26.680Z</time>
      </trkpt>
      <trkpt lat="47.545466" lon="7.924880">
        <ele>297.025826</ele>
        <time>2021-11-18T19:13:37.987Z</time>
      </trkpt>
      <trkpt lat="47.545446" lon="7.925350">
        <ele>298.057748</ele>
        <time>2021-11-18T19:13:48.362Z</time>
      </trkpt>
      <trkpt lat="47.545417" lon="7.925848">
        <ele>298.961248</ele>
        <time>2021-11-18T19:13:58.841Z</time>
      </trkpt>
      <trkpt lat="47.545409" lon="7.926773">
        <ele>300.633362</ele>
        <time>2021-11-18T19:14:16.042Z</time>
      </trkpt>
      <trkpt lat="47.545407" lon="7.927001">
        <ele>301.045517</ele>
        <time>2021-11-18T19:14:19.851Z</time>
      </trkpt>
      <trkpt lat="47.545406" lon="7.927306">
        <ele>301.596824</ele>
        <time>2021-11-18T19:14:24.455Z</time>
      </trkpt>
      <trkpt lat="47.545421" lon="7.927686">
        <ele>302.284864</ele>
        <time>2021-11-18T19:14:29.991Z</time>
      </trkpt>
      <trkpt lat="47.545475" lon="7.928419">
        <ele>302.376978</ele>
        <time>2021-11-18T19:14:39.308Z</time>
      </trkpt>
      <trkpt lat="47.545563" lon="7.929641">
        <ele>301.475684</ele>
        <time>2021-11-18T19:14:49.188Z</time>
      </trkpt>
      <trkpt lat="47.545661" lon="7.930955">
        <ele>300.409160</ele>
        <time>2021-11-18T19:14:58.584Z</time>
      </trkpt>
      <trkpt lat="47.545696" lon="7.931497">
        <ele>299.868873</ele>
        <time>2021-11-18T19:15:02.552Z</time>
      </trkpt>
      <trkpt lat="47.545721" lon="7.931992">
        <ele>299.376307</ele>
        <time>2021-11-18T19:15:06.345Z</time>
      </trkpt>
      <trkpt lat="47.545724" lon="7.932758">
        <ele>298.616187</ele>
        <time>2021-11-18T19:15:12.554Z</time>
      </trkpt>
      <trkpt lat="47.545702" lon="7.933290">
        <ele>298.161383</ele>
        <time>2021-11-18T19:15:17.197Z</time>
      </trkpt>
      <trkpt lat="47.545674" lon="7.933625">
        <ele>298.328776</ele>
        <time>2021-11-18T19:15:20.397Z</time>
      </trkpt>
      <trkpt lat="47.545457" lon="7.935110">
        <ele>299.082238</ele>
        <time>2021-11-18T19:15:38.532Z</time>
      </trkpt>
      <trkpt lat="47.545074" lon="7.936484">
        <ele>300.301369</ele>
        <time>2021-11-18T19:16:00.060Z</time>
      </trkpt>
      <trkpt lat="47.544903" lon="7.936917">
        <ele>300.881962</ele>
        <time>2021-11-18T19:16:07.376Z</time>
      </trkpt>
      <trkpt lat="47.544705" lon="7.937395">
        <ele>301.531030</ele>
        <time>2021-11-18T19:16:15.560Z</time>
      </trkpt>
      <trkpt lat="47.544472" lon="7.937932">
        <ele>302.269846</ele>
        <time>2021-11-18T19:16:24.967Z</time>
      </trkpt>
      <trkpt lat="47.543826" lon="7.939433">
        <ele>304.352881</ele>
        <time>2021-11-18T19:16:51.849Z</time>
      </trkpt>
      <trkpt lat="47.543435" lon="7.940670">
        <ele>305.789917</ele>
        <time>2021-11-18T19:17:11.809Z</time>
      </trkpt>
      <trkpt lat="47.543161" lon="7.942213">
        <ele>306.598241</ele>
        <time>2021-11-18T19:17:32.659Z</time>
      </trkpt>
      <trkpt lat="47.543007" lon="7.943867">
        <ele>306.160103</ele>
        <time>2021-11-18T19:17:48.203Z</time>
      </trkpt>
      <trkpt lat="47.542913" lon="7.945267">
        <ele>304.740044</ele>
        <time>2021-11-18T19:17:58.962Z</time>
      </trkpt>
      <trkpt lat="47.542872" lon="7.945781">
        <ele>304.144812</ele>
        <time>2021-11-18T19:18:02.559Z</time>
      </trkpt>
      <trkpt lat="47.542875" lon="7.946089">
        <ele>303.624232</ele>
        <time>2021-11-18T19:18:04.650Z</time>
      </trkpt>
      <trkpt lat="47.542902" lon="7.946514">
        <ele>302.902799</ele>
        <time>2021-11-18T19:18:07.529Z</time>
      </trkpt>
      <trkpt lat="47.542943" lon="7.946806">
        <ele>302.398750</ele>
        <time>2021-11-18T19:18:09.575Z</time>
      </trkpt>
      <trkpt lat="47.542974" lon="7.946965">
        <ele>302.119053</ele>
        <time>2021-11-18T19:18:10.786Z</time>
      </trkpt>
      <trkpt lat="47.542979" lon="7.946989">
        <ele>302.076605</ele>
        <time>2021-11-18T19:18:10.942Z</time>
      </trkpt>
      <trkpt lat="47.543007" lon="7.947104">
        <ele>301.869997</ele>
        <time>2021-11-18T19:18:11.790Z</time>
      </trkpt>
      <trkpt lat="47.543087" lon="7.947317">
        <ele>301.458056</ele>
        <time>2021-11-18T19:18:13.533Z</time>
      </trkpt>
      <trkpt lat="47.543191" lon="7.947615">
        <ele>300.891106</ele>
        <time>2021-11-18T19:18:15.974Z</time>
      </trkpt>
      <trkpt lat="47.543242" lon="7.947745">
        <ele>300.636997</ele>
        <time>2021-11-18T19:18:17.104Z</time>
      </trkpt>
      <trkpt lat="47.543273" lon="7.947816">
        <ele>300.494093</ele>
        <time>2021-11-18T19:18:17.731Z</time>
      </trkpt>
      <trkpt lat="47.543358" lon="7.947967">
        <ele>300.161815</ele>
        <time>2021-11-18T19:18:19.174Z</time>
      </trkpt>
      <trkpt lat="47.543455" lon="7.948127">
        <ele>299.819692</ele>
        <time>2021-11-18T19:18:20.841Z</time>
      </trkpt>
      <trkpt lat="47.543532" lon="7.948214">
        <ele>299.791172</ele>
        <time>2021-11-18T19:18:21.921Z</time>
      </trkpt>
      <trkpt lat="47.543579" lon="7.948287">
        <ele>299.771117</ele>
        <time>2021-11-18T19:18:22.685Z</time>
      </trkpt>
      <trkpt lat="47.543760" lon="7.948548">
        <ele>299.696727</ele>
        <time>2021-11-18T19:18:25.574Z</time>
      </trkpt>
      <trkpt lat="47.543864" lon="7.948694">
        <ele>299.654531</ele>
        <time>2021-11-18T19:18:27.246Z</time>
      </trkpt>
      <trkpt lat="47.544239" lon="7.949202">
        <ele>299.504877</ele>
        <time>2021-11-18T19:18:34.608Z</time>
      </trkpt>
      <trkpt lat="47.544521" lon="7.949558">
        <ele>299.395762</ele>
        <time>2021-11-18T19:18:40.781Z</time>
      </trkpt>
      <trkpt lat="47.544901" lon="7.950044">
        <ele>299.340117</ele>
        <time>2021-11-18T19:18:50.177Z</time>
      </trkpt>
      <trkpt lat="47.545166" lon="7.950366">
        <ele>299.446428</ele>
        <time>2021-11-18T19:18:56.727Z</time>
      </trkpt>
      <trkpt lat="47.545434" lon="7.950668">
        <ele>299.550874</ele>
        <time>2021-11-18T19:19:02.517Z</time>
      </trkpt>
      <trkpt lat="47.545542" lon="7.950842">
        <ele>299.600367</ele>
        <time>2021-11-18T19:19:04.943Z</time>
      </trkpt>
      <trkpt lat="47.545667" lon="7.950979">
        <ele>299.648597</ele>
        <time>2021-11-18T19:19:07.548Z</time>
      </trkpt>
      <trkpt lat="47.545737" lon="7.951055">
        <ele>299.675517</ele>
        <time>2021-11-18T19:19:08.802Z</time>
      </trkpt>
      <trkpt lat="47.545876" lon="7.951233">
        <ele>299.732507</ele>
        <time>2021-11-18T19:19:11.194Z</time>
      </trkpt>
      <trkpt lat="47.546112" lon="7.951485">
        <ele>299.822744</ele>
        <time>2021-11-18T19:19:15.737Z</time>
      </trkpt>
      <trkpt lat="47.546164" lon="7.951520">
        <ele>299.840460</ele>
        <time>2021-11-18T19:19:16.372Z</time>
      </trkpt>
      <trkpt lat="47.546212" lon="7.951535">
        <ele>299.844194</ele>
        <time>2021-11-18T19:19:17.137Z</time>
      </trkpt>
      <trkpt lat="47.546231" lon="7.951558">
        <ele>299.834126</ele>
        <time>2021-11-18T19:19:17.866Z</time>
      </trkpt>
      <trkpt lat="47.546421" lon="7.951793">
        <ele>299.732563</ele>
        <time>2021-11-18T19:19:21.047Z</time>
      </trkpt>
      <trkpt lat="47.546634" lon="7.952024">
        <ele>299.624246</ele>
        <time>2021-11-18T19:19:24.582Z</time>
      </trkpt>
      <trkpt lat="47.546695" lon="7.952091">
        <ele>299.593087</ele>
        <time>2021-11-18T19:19:25.537Z</time>
      </trkpt>
      <trkpt lat="47.546776" lon="7.952185">
        <ele>299.550866</ele>
        <time>2021-11-18T19:19:26.723Z</time>
      </trkpt>
      <trkpt lat="47.546935" lon="7.952372">
        <ele>299.467564</ele>
        <time>2021-11-18T19:19:29.659Z</time>
      </trkpt>
      <trkpt lat="47.547090" lon="7.952543">
        <ele>299.388264</ele>
        <time>2021-11-18T19:19:32.296Z</time>
      </trkpt>
      <trkpt lat="47.547400" lon="7.952910">
        <ele>299.225435</ele>
        <time>2021-11-18T19:19:37.596Z</time>
      </trkpt>
      <trkpt lat="47.547458" lon="7.952975">
        <ele>299.195593</ele>
        <time>2021-11-18T19:19:38.514Z</time>
      </trkpt>
      <trkpt lat="47.547550" lon="7.953078">
        <ele>299.148275</ele>
        <time>2021-11-18T19:19:40.004Z</time>
      </trkpt>
      <trkpt lat="47.547624" lon="7.953160">
        <ele>299.108890</ele>
        <time>2021-11-18T19:19:41.244Z</time>
      </trkpt>
      <trkpt lat="47.547797" lon="7.953355">
        <ele>298.963465</ele>
        <time>2021-11-18T19:19:44.248Z</time>
      </trkpt>
      <trkpt lat="47.547871" lon="7.953437">
        <ele>298.901644</ele>
        <time>2021-11-18T19:19:45.542Z</time>
      </trkpt>
      <trkpt lat="47.547994" lon="7.953584">
        <ele>298.795922</ele>
        <time>2021-11-18T19:19:47.723Z</time>
      </trkpt>
      <trkpt lat="47.548115" lon="7.953729">
        <ele>298.691808</ele>
        <time>2021-11-18T19:19:49.873Z</time>
      </trkpt>
      <trkpt lat="47.548251" lon="7.953895">
        <ele>298.573924</ele>
        <time>2021-11-18T19:19:52.273Z</time>
      </trkpt>
      <trkpt lat="47.548335" lon="7.953779">
        <ele>298.497102</ele>
        <time>2021-11-18T19:19:54.179Z</time>
      </trkpt>
      <trkpt lat="47.549296" lon="7.953268">
        <ele>297.663467</ele>
        <time>2021-11-18T19:20:12.494Z</time>
      </trkpt>
      <trkpt lat="47.549442" lon="7.953195">
        <ele>297.397596</ele>
        <time>2021-11-18T19:20:15.045Z</time>
      </trkpt>
      <trkpt lat="47.549640" lon="7.953086">
        <ele>297.033140</ele>
        <time>2021-11-18T19:20:18.758Z</time>
      </trkpt>
      <trkpt lat="47.549673" lon="7.953076">
        <ele>296.975022</ele>
        <time>2021-11-18T19:20:19.318Z</time>
      </trkpt>
      <trkpt lat="47.549687" lon="7.953071">
        <ele>296.950174</ele>
        <time>2021-11-18T19:20:19.510Z</time>
      </trkpt>
      <trkpt lat="47.550567" lon="7.953069">
        <ele>295.431794</ele>
        <time>2021-11-18T19:20:33.686Z</time>
      </trkpt>
      <trkpt lat="47.550656" lon="7.953072">
        <ele>295.278191</ele>
        <time>2021-11-18T19:20:35.003Z</time>
      </trkpt>
      <trkpt lat="47.550967" lon="7.953063">
        <ele>294.732005</ele>
        <time>2021-11-18T19:20:39.767Z</time>
      </trkpt>
      <trkpt lat="47.551254" lon="7.952986">
        <ele>294.154805</ele>
        <time>2021-11-18T19:20:44.155Z</time>
      </trkpt>
      <trkpt lat="47.551295" lon="7.952900">
        <ele>294.014171</ele>
        <time>2021-11-18T19:20:45.219Z</time>
      </trkpt>
      <trkpt lat="47.551334" lon="7.952777">
        <ele>293.832659</ele>
        <time>2021-11-18T19:20:47.894Z</time>
      </trkpt>
      <trkpt lat="47.551339" lon="7.952761">
        <ele>293.809108</ele>
        <time>2021-11-18T19:20:48.265Z</time>
      </trkpt>
      <trkpt lat="47.551381" lon="7.952341">
        <ele>293.242006</ele>
        <time>2021-11-18T19:20:57.046Z</time>
      </trkpt>
      <trkpt lat="47.551506" lon="7.950255">
        <ele>291.137885</ele>
        <time>2021-11-18T19:21:42.583Z</time>
      </trkpt>
      <trkpt lat="47.551525" lon="7.950027">
        <ele>291.096308</ele>
        <time>2021-11-18T19:21:48.044Z</time>
      </trkpt>
      <trkpt lat="47.551581" lon="7.949830">
        <ele>291.057621</ele>
        <time>2021-11-18T19:21:53.196Z</time>
      </trkpt>
      <trkpt lat="47.551673" lon="7.949634">
        <ele>291.014413</ele>
        <time>2021-11-18T19:21:59.282Z</time>
      </trkpt>
      <trkpt lat="47.551794" lon="7.949387">
        <ele>290.959176</ele>
        <time>2021-11-18T19:22:06.843Z</time>
      </trkpt>
      <trkpt lat="47.552010" lon="7.949039">
        <ele>290.873610</ele>
        <time>2021-11-18T19:22:19.031Z</time>
      </trkpt>
      <trkpt lat="47.552049" lon="7.948982">
        <ele>290.858920</ele>
        <time>2021-11-18T19:22:21.141Z</time>
      </trkpt>
      <trkpt lat="47.552094" lon="7.948926">
        <ele>290.843162</ele>
        <time>2021-11-18T19:22:23.525Z</time>
      </trkpt>
      <trkpt lat="47.552202" lon="7.949003">
        <ele>290.811023</ele>
        <time>2021-11-18T19:22:28.242Z</time>
      </trkpt>
      <trkpt lat="47.552351" lon="7.949099">
        <ele>290.767454</ele>
        <time>2021-11-18T19:22:34.666Z</time>
      </trkpt>
      <trkpt lat="47.552382" lon="7.949119">
        <ele>290.761041</ele>
        <time>2021-11-18T19:22:36.060Z</time>
      </trkpt>
      <trkpt lat="47.552518" lon="7.949236">
        <ele>290.738123</ele>
        <time>2021-11-18T19:22:42.429Z</time>
      </trkpt>
      <trkpt lat="47.552953" lon="7.948775">
        <ele>290.660183</ele>
        <time>2021-11-18T19:23:03.457Z</time>
      </trkpt>
      <trkpt lat="47.552953" lon="7.948775">
        <ele>290.660183</ele>
        <time>2021-11-18T19:23:03.463Z</time>
      </trkpt>
      <trkpt lat="47.553197" lon="7.948543">
        <ele>290.617933</ele>
        <time>2021-11-18T19:23:14.248Z</time>
      </trkpt>
      <trkpt lat="47.553243" lon="7.948595">
        <ele>290.609501</ele>
        <time>2021-11-18T19:23:16.304Z</time>
      </trkpt>
      <trkpt lat="47.553488" lon="7.949175">
        <ele>290.542204</ele>
        <time>2021-11-18T19:23:32.488Z</time>
      </trkpt>
      <trkpt lat="47.553669" lon="7.949729">
        <ele>290.344883</ele>
        <time>2021-11-18T19:23:46.523Z</time>
      </trkpt>
      <trkpt lat="47.553699" lon="7.949840">
        <ele>290.254324</ele>
        <time>2021-11-18T19:23:49.114Z</time>
      </trkpt>
      <trkpt lat="47.553747" lon="7.950009">
        <ele>290.115457</ele>
        <time>2021-11-18T19:23:53.164Z</time>
      </trkpt>
      <trkpt lat="47.553836" lon="7.950173">
        <ele>289.956075</ele>
        <time>2021-11-18T19:23:58.022Z</time>
      </trkpt>
      <trkpt lat="47.553918" lon="7.950361">
        <ele>289.786543</ele>
        <time>2021-11-18T19:24:02.872Z</time>
      </trkpt>
      <trkpt lat="47.554036" lon="7.950322">
        <ele>289.650870</ele>
        <time>2021-11-18T19:24:06.855Z</time>
      </trkpt>
      <trkpt lat="47.554130" lon="7.950301">
        <ele>289.544191</ele>
        <time>2021-11-18T19:24:10.157Z</time>
      </trkpt>
      <trkpt lat="47.554192" lon="7.950296">
        <ele>289.474512</ele>
        <time>2021-11-18T19:24:12.115Z</time>
      </trkpt>
      <trkpt lat="47.554240" lon="7.950300">
        <ele>289.420562</ele>
        <time>2021-11-18T19:24:13.673Z</time>
      </trkpt>
      <trkpt lat="47.554303" lon="7.950312">
        <ele>289.349282</ele>
        <time>2021-11-18T19:24:14.411Z</time>
      </trkpt>
      <trkpt lat="47.554303" lon="7.950312">
        <ele>289.349282</ele>
        <time>2021-11-18T19:24:14.413Z</time>
      </trkpt>
      <trkpt lat="47.554392" lon="7.950331">
        <ele>289.248375</ele>
        <time>2021-11-18T19:24:15.515Z</time>
      </trkpt>
      <trkpt lat="47.554652" lon="7.950448">
        <ele>288.943446</ele>
        <time>2021-11-18T19:24:18.701Z</time>
      </trkpt>
      <trkpt lat="47.554759" lon="7.950515">
        <ele>288.813090</ele>
        <time>2021-11-18T19:24:20.140Z</time>
      </trkpt>
      <trkpt lat="47.554954" lon="7.950665">
        <ele>288.566531</ele>
        <time>2021-11-18T19:24:22.773Z</time>
      </trkpt>
      <trkpt lat="47.555474" lon="7.951144">
        <ele>288.414732</ele>
        <time>2021-11-18T19:24:30.658Z</time>
      </trkpt>
      <trkpt lat="47.555687" lon="7.951449">
        <ele>288.376816</ele>
        <time>2021-11-18T19:24:34.742Z</time>
      </trkpt>
      <trkpt lat="47.556339" lon="7.952382">
        <ele>288.260791</ele>
        <time>2021-11-18T19:24:48.804Z</time>
      </trkpt>
      <trkpt lat="47.556386" lon="7.952449">
        <ele>288.257969</ele>
        <time>2021-11-18T19:24:49.973Z</time>
      </trkpt>
      <trkpt lat="47.556400" lon="7.952468">
        <ele>288.269298</ele>
        <time>2021-11-18T19:24:50.285Z</time>
      </trkpt>
      <trkpt lat="47.557120" lon="7.953536">
        <ele>288.877254</ele>
        <time>2021-11-18T19:25:08.313Z</time>
      </trkpt>
      <trkpt lat="47.557517" lon="7.954117">
        <ele>289.210233</ele>
        <time>2021-11-18T19:25:18.159Z</time>
      </trkpt>
      <trkpt lat="47.557687" lon="7.954371">
        <ele>289.330554</ele>
        <time>2021-11-18T19:25:22.273Z</time>
      </trkpt>
      <trkpt lat="47.557874" lon="7.954579">
        <ele>289.349717</ele>
        <time>2021-11-18T19:25:26.000Z</time>
      </trkpt>
      <trkpt lat="47.557899" lon="7.954581">
        <ele>289.351769</ele>
        <time>2021-11-18T19:25:26.497Z</time>
      </trkpt>
      <trkpt lat="47.557935" lon="7.954571">
        <ele>289.354771</ele>
        <time>2021-11-18T19:25:27.147Z</time>
      </trkpt>
      <trkpt lat="47.558070" lon="7.954468">
        <ele>289.367216</ele>
        <time>2021-11-18T19:25:29.516Z</time>
      </trkpt>
      <trkpt lat="47.558107" lon="7.954410">
        <ele>289.371630</ele>
        <time>2021-11-18T19:25:30.446Z</time>
      </trkpt>
      <trkpt lat="47.558161" lon="7.954466">
        <ele>289.377032</ele>
        <time>2021-11-18T19:25:31.438Z</time>
      </trkpt>
      <trkpt lat="47.558201" lon="7.954539">
        <ele>289.382233</ele>
        <time>2021-11-18T19:25:32.520Z</time>
      </trkpt>
      <trkpt lat="47.558360" lon="7.955074">
        <ele>289.414565</ele>
        <time>2021-11-18T19:25:38.724Z</time>
      </trkpt>
      <trkpt lat="47.558659" lon="7.956055">
        <ele>289.474098</ele>
        <time>2021-11-18T19:25:49.025Z</time>
      </trkpt>
      <trkpt lat="47.558756" lon="7.956469">
        <ele>289.309376</ele>
        <time>2021-11-18T19:25:52.918Z</time>
      </trkpt>
      <trkpt lat="47.559224" lon="7.958738">
        <ele>288.490353</ele>
        <time>2021-11-18T19:26:13.362Z</time>
      </trkpt>
      <trkpt lat="47.559324" lon="7.959601">
        <ele>288.624680</ele>
        <time>2021-11-18T19:26:21.720Z</time>
      </trkpt>
      <trkpt lat="47.559346" lon="7.959868">
        <ele>288.665944</ele>
        <time>2021-11-18T19:26:24.814Z</time>
      </trkpt>
      <trkpt lat="47.559406" lon="7.960730">
        <ele>288.798882</ele>
        <time>2021-11-18T19:26:34.297Z</time>
      </trkpt>
      <trkpt lat="47.559408" lon="7.961845">
        <ele>289.159652</ele>
        <time>2021-11-18T19:26:48.062Z</time>
      </trkpt>
      <trkpt lat="47.559368" lon="7.962709">
        <ele>289.564163</ele>
        <time>2021-11-18T19:26:59.304Z</time>
      </trkpt>
      <trkpt lat="47.559232" lon="7.963800">
        <ele>290.082376</ele>
        <time>2021-11-18T19:27:11.896Z</time>
      </trkpt>
      <trkpt lat="47.559029" lon="7.964894">
        <ele>290.066321</ele>
        <time>2021-11-18T19:27:23.599Z</time>
      </trkpt>
      <trkpt lat="47.558949" lon="7.965326">
        <ele>290.042517</ele>
        <time>2021-11-18T19:27:27.835Z</time>
      </trkpt>
      <trkpt lat="47.558732" lon="7.966356">
        <ele>289.985181</ele>
        <time>2021-11-18T19:27:37.779Z</time>
      </trkpt>
      <trkpt lat="47.558606" lon="7.966985">
        <ele>290.187808</ele>
        <time>2021-11-18T19:27:44.293Z</time>
      </trkpt>
      <trkpt lat="47.558448" lon="7.967701">
        <ele>290.463099</ele>
        <time>2021-11-18T19:27:51.904Z</time>
      </trkpt>
      <trkpt lat="47.558430" lon="7.967788">
        <ele>290.496353</ele>
        <time>2021-11-18T19:27:53.000Z</time>
      </trkpt>
      <trkpt lat="47.558327" lon="7.968108">
        <ele>290.625916</ele>
        <time>2021-11-18T19:27:57.262Z</time>
      </trkpt>
      <trkpt lat="47.558313" lon="7.968259">
        <ele>290.681617</ele>
        <time>2021-11-18T19:27:58.917Z</time>
      </trkpt>
      <trkpt lat="47.558366" lon="7.968291">
        <ele>290.712609</ele>
        <time>2021-11-18T19:28:00.269Z</time>
      </trkpt>
      <trkpt lat="47.558617" lon="7.968374">
        <ele>290.851875</ele>
        <time>2021-11-18T19:28:04.898Z</time>
      </trkpt>
      <trkpt lat="47.558761" lon="7.968396">
        <ele>290.930269</ele>
        <time>2021-11-18T19:28:08.148Z</time>
      </trkpt>
      <trkpt lat="47.559255" lon="7.968471">
        <ele>291.927688</ele>
        <time>2021-11-18T19:28:18.112Z</time>
      </trkpt>
      <trkpt lat="47.559532" lon="7.968492">
        <ele>292.525043</ele>
        <time>2021-11-18T19:28:24.639Z</time>
      </trkpt>
      <trkpt lat="47.559774" lon="7.968514">
        <ele>293.047219</ele>
        <time>2021-11-18T19:28:30.684Z</time>
      </trkpt>
      <trkpt lat="47.559955" lon="7.968562">
        <ele>293.443231</ele>
        <time>2021-11-18T19:28:34.922Z</time>
      </trkpt>
      <trkpt lat="47.560859" lon="7.968941">
        <ele>296.201901</ele>
        <time>2021-11-18T19:28:58.322Z</time>
      </trkpt>
      <trkpt lat="47.561059" lon="7.969025">
        <ele>297.165294</ele>
        <time>2021-11-18T19:29:04.388Z</time>
      </trkpt>
      <trkpt lat="47.561113" lon="7.969048">
        <ele>297.425684</ele>
        <time>2021-11-18T19:29:06.067Z</time>
      </trkpt>
      <trkpt lat="47.561101" lon="7.969103">
        <ele>297.606454</ele>
        <time>2021-11-18T19:29:07.192Z</time>
      </trkpt>
      <trkpt lat="47.561075" lon="7.969222">
        <ele>297.997627</ele>
        <time>2021-11-18T19:29:09.578Z</time>
      </trkpt>
      <trkpt lat="47.561012" lon="7.969521">
        <ele>298.977221</ele>
        <time>2021-11-18T19:29:17.481Z</time>
      </trkpt>
      <trkpt lat="47.561077" lon="7.969584">
        <ele>299.337168</ele>
        <time>2021-11-18T19:29:19.810Z</time>
      </trkpt>
      <trkpt lat="47.561207" lon="7.969794">
        <ele>300.228392</ele>
        <time>2021-11-18T19:29:27.100Z</time>
      </trkpt>
      <trkpt lat="47.561250" lon="7.969992">
        <ele>300.878879</ele>
        <time>2021-11-18T19:29:32.052Z</time>
      </trkpt>
      <trkpt lat="47.561300" lon="7.970209">
        <ele>301.595977</ele>
        <time>2021-11-18T19:29:36.377Z</time>
      </trkpt>
      <trkpt lat="47.561319" lon="7.970293">
        <ele>301.873036</ele>
        <time>2021-11-18T19:29:39.936Z</time>
      </trkpt>
      <trkpt lat="47.561534" lon="7.970899">
        <ele>304.770508</ele>
        <time>2021-11-18T19:29:57.490Z</time>
      </trkpt>
      <trkpt lat="47.561682" lon="7.971192">
        <ele>306.933239</ele>
        <time>2021-11-18T19:30:07.943Z</time>
      </trkpt>
      <trkpt lat="47.561716" lon="7.971255">
        <ele>307.409933</ele>
        <time>2021-11-18T19:30:11.005Z</time>
      </trkpt>
      <trkpt lat="47.561856" lon="7.971566">
        <ele>309.619081</ele>
        <time>2021-11-18T19:30:22.034Z</time>
      </trkpt>
      <trkpt lat="47.561959" lon="7.971806">
        <ele>311.299802</ele>
        <time>2021-11-18T19:30:32.670Z</time>
      </trkpt>
      <trkpt lat="47.561984" lon="7.972078">
        <ele>312.921928</ele>
        <time>2021-11-18T19:30:42.540Z</time>
      </trkpt>
      <trkpt lat="47.562063" lon="7.972426">
        <ele>315.091554</ele>
        <time>2021-11-18T19:30:57.115Z</time>
      </trkpt>
      <trkpt lat="47.562083" lon="7.972470">
        <ele>315.405042</ele>
        <time>2021-11-18T19:30:59.266Z</time>
      </trkpt>
      <trkpt lat="47.562247" lon="7.972843">
        <ele>318.035738</ele>
        <time>2021-11-18T19:31:15.471Z</time>
      </trkpt>
      <trkpt lat="47.562270" lon="7.972880">
        <ele>318.333006</ele>
        <time>2021-11-18T19:31:18.184Z</time>
      </trkpt>
      <trkpt lat="47.562391" lon="7.972987">
        <ele>319.625549</ele>
        <time>2021-11-18T19:31:25.839Z</time>
      </trkpt>
      <trkpt lat="47.562482" lon="7.973084">
        <ele>320.695405</ele>
        <time>2021-11-18T19:31:32.388Z</time>
      </trkpt>
      <trkpt lat="47.562624" lon="7.973211">
        <ele>322.278364</ele>
        <time>2021-11-18T19:31:41.443Z</time>
      </trkpt>
      <trkpt lat="47.562835" lon="7.973351">
        <ele>324.484818</ele>
        <time>2021-11-18T19:31:53.576Z</time>
      </trkpt>
      <trkpt lat="47.563057" lon="7.973484">
        <ele>326.770216</ele>
        <time>2021-11-18T19:32:06.665Z</time>
      </trkpt>
      <trkpt lat="47.563140" lon="7.973536">
        <ele>327.630264</ele>
        <time>2021-11-18T19:32:11.185Z</time>
      </trkpt>
      <trkpt lat="47.563511" lon="7.973794">
        <ele>331.541627</ele>
        <time>2021-11-18T19:32:33.001Z</time>
      </trkpt>
      <trkpt lat="47.564852" lon="7.975095">
        <ele>346.642596</ele>
        <time>2021-11-18T19:33:53.679Z</time>
      </trkpt>
      <trkpt lat="47.565200" lon="7.975372">
        <ele>350.343895</ele>
        <time>2021-11-18T19:34:15.965Z</time>
      </trkpt>
      <trkpt lat="47.565867" lon="7.975381">
        <ele>357.540468</ele>
        <time>2021-11-18T19:34:51.864Z</time>
      </trkpt>
      <trkpt lat="47.565964" lon="7.975378">
        <ele>358.684690</ele>
        <time>2021-11-18T19:34:58.991Z</time>
      </trkpt>
      <trkpt lat="47.566200" lon="7.975405">
        <ele>361.476245</ele>
        <time>2021-11-18T19:35:10.759Z</time>
      </trkpt>
      <trkpt lat="47.566542" lon="7.975527">
        <ele>365.624825</ele>
        <time>2021-11-18T19:35:30.532Z</time>
      </trkpt>
      <trkpt lat="47.566673" lon="7.975768">
        <ele>368.087477</ele>
        <time>2021-11-18T19:35:44.487Z</time>
      </trkpt>
      <trkpt lat="47.566852" lon="7.976458">
        <ele>373.969969</ele>
        <time>2021-11-18T19:36:21.416Z</time>
      </trkpt>
      <trkpt lat="47.566939" lon="7.976573">
        <ele>375.529196</ele>
        <time>2021-11-18T19:36:29.720Z</time>
      </trkpt>
      <trkpt lat="47.567134" lon="7.976669">
        <ele>378.325471</ele>
        <time>2021-11-18T19:36:47.062Z</time>
      </trkpt>
      <trkpt lat="47.567340" lon="7.976629">
        <ele>381.152825</ele>
        <time>2021-11-18T19:36:59.155Z</time>
      </trkpt>
      <trkpt lat="47.567627" lon="7.976382">
        <ele>385.669267</ele>
        <time>2021-11-18T19:37:23.939Z</time>
      </trkpt>
      <trkpt lat="47.567801" lon="7.976285">
        <ele>388.199150</ele>
        <time>2021-11-18T19:37:38.692Z</time>
      </trkpt>
      <trkpt lat="47.567987" lon="7.976370">
        <ele>390.847966</ele>
        <time>2021-11-18T19:37:50.131Z</time>
      </trkpt>
      <trkpt lat="47.568107" lon="7.976469">
        <ele>392.716965</ele>
        <time>2021-11-18T19:38:01.055Z</time>
      </trkpt>
      <trkpt lat="47.568316" lon="7.976569">
        <ele>395.705726</ele>
        <time>2021-11-18T19:38:13.179Z</time>
      </trkpt>
      <trkpt lat="47.568519" lon="7.976515">
        <ele>398.512439</ele>
        <time>2021-11-18T19:38:28.210Z</time>
      </trkpt>
      <trkpt lat="47.568748" lon="7.976336">
        <ele>400.858188</ele>
        <time>2021-11-18T19:38:43.591Z</time>
      </trkpt>
      <trkpt lat="47.568939" lon="7.976270">
        <ele>402.605998</ele>
        <time>2021-11-18T19:38:56.445Z</time>
      </trkpt>
      <trkpt lat="47.569048" lon="7.976403">
        <ele>403.864223</ele>
        <time>2021-11-18T19:39:04.376Z</time>
      </trkpt>
      <trkpt lat="47.568987" lon="7.976683">
        <ele>405.633406</ele>
        <time>2021-11-18T19:39:17.535Z</time>
      </trkpt>
      <trkpt lat="47.568704" lon="7.977054">
        <ele>409.000461</ele>
        <time>2021-11-18T19:39:36.139Z</time>
      </trkpt>
      <trkpt lat="47.568631" lon="7.977178">
        <ele>409.989979</ele>
        <time>2021-11-18T19:39:38.849Z</time>
      </trkpt>
      <trkpt lat="47.568567" lon="7.977498">
        <ele>411.996855</ele>
        <time>2021-11-18T19:39:48.958Z</time>
      </trkpt>
      <trkpt lat="47.568118" lon="7.978684">
        <ele>418.059345</ele>
        <time>2021-11-18T19:40:20.153Z</time>
      </trkpt>
      <trkpt lat="47.568061" lon="7.979013">
        <ele>419.319436</ele>
        <time>2021-11-18T19:40:28.359Z</time>
      </trkpt>
      <trkpt lat="47.567985" lon="7.980685">
        <ele>425.611118</ele>
        <time>2021-11-18T19:41:11.581Z</time>
      </trkpt>
      <trkpt lat="47.567933" lon="7.980942">
        <ele>426.681570</ele>
        <time>2021-11-18T19:41:18.459Z</time>
      </trkpt>
      <trkpt lat="47.567665" lon="7.981438">
        <ele>429.216771</ele>
        <time>2021-11-18T19:41:34.675Z</time>
      </trkpt>
      <trkpt lat="47.567624" lon="7.981800">
        <ele>430.681241</ele>
        <time>2021-11-18T19:41:44.055Z</time>
      </trkpt>
      <trkpt lat="47.567696" lon="7.982527">
        <ele>433.612814</ele>
        <time>2021-11-18T19:42:03.077Z</time>
      </trkpt>
      <trkpt lat="47.567683" lon="7.983121">
        <ele>436.269871</ele>
        <time>2021-11-18T19:42:18.868Z</time>
      </trkpt>
      <trkpt lat="47.567590" lon="7.984165">
        <ele>441.962053</ele>
        <time>2021-11-18T19:42:47.831Z</time>
      </trkpt>
      <trkpt lat="47.567629" lon="7.984321">
        <ele>442.861315</ele>
        <time>2021-11-18T19:42:52.618Z</time>
      </trkpt>
      <trkpt lat="47.568310" lon="7.984838">
        <ele>448.991089</ele>
        <time>2021-11-18T19:43:30.530Z</time>
      </trkpt>
      <trkpt lat="47.568880" lon="7.985270">
        <ele>456.747485</ele>
        <time>2021-11-18T19:44:11.602Z</time>
      </trkpt>
      <trkpt lat="47.569224" lon="7.985557">
        <ele>461.743393</ele>
        <time>2021-11-18T19:44:38.337Z</time>
      </trkpt>
      <trkpt lat="47.569441" lon="7.985823">
        <ele>465.307231</ele>
        <time>2021-11-18T19:44:56.547Z</time>
      </trkpt>
      <trkpt lat="47.569544" lon="7.985948">
        <ele>466.991993</ele>
        <time>2021-11-18T19:45:07.158Z</time>
      </trkpt>
      <trkpt lat="47.569720" lon="7.986239">
        <ele>470.328965</ele>
        <time>2021-11-18T19:45:24.785Z</time>
      </trkpt>
      <trkpt lat="47.569899" lon="7.986324">
        <ele>472.688371</ele>
        <time>2021-11-18T19:45:38.149Z</time>
      </trkpt>
      <trkpt lat="47.570188" lon="7.985852">
        <ele>477.835333</ele>
        <time>2021-11-18T19:46:07.609Z</time>
      </trkpt>
      <trkpt lat="47.570598" lon="7.985658">
        <ele>482.986449</ele>
        <time>2021-11-18T19:46:38.609Z</time>
      </trkpt>
      <trkpt lat="47.571104" lon="7.985841">
        <ele>489.220241</ele>
        <time>2021-11-18T19:47:13.052Z</time>
      </trkpt>
      <trkpt lat="47.571694" lon="7.985779">
        <ele>494.763670</ele>
        <time>2021-11-18T19:47:40.778Z</time>
      </trkpt>
      <trkpt lat="47.571967" lon="7.986077">
        <ele>496.248022</ele>
        <time>2021-11-18T19:47:54.882Z</time>
      </trkpt>
      <trkpt lat="47.572042" lon="7.986160">
        <ele>496.657803</ele>
        <time>2021-11-18T19:47:59.031Z</time>
      </trkpt>
      <trkpt lat="47.571904" lon="7.986414">
        <ele>497.621074</ele>
        <time>2021-11-18T19:48:05.965Z</time>
      </trkpt>
      <trkpt lat="47.571515" lon="7.986697">
        <ele>499.518225</ele>
        <time>2021-11-18T19:48:18.360Z</time>
      </trkpt>
      <trkpt lat="47.571268" lon="7.987105">
        <ele>501.137400</ele>
        <time>2021-11-18T19:48:26.986Z</time>
      </trkpt>
      <trkpt lat="47.571168" lon="7.987874">
        <ele>501.543306</ele>
        <time>2021-11-18T19:48:35.648Z</time>
      </trkpt>
      <trkpt lat="47.571180" lon="7.987989">
        <ele>501.500975</ele>
        <time>2021-11-18T19:48:36.471Z</time>
      </trkpt>
      <trkpt lat="47.571208" lon="7.988246">
        <ele>501.406276</ele>
        <time>2021-11-18T19:48:38.475Z</time>
      </trkpt>
      <trkpt lat="47.571580" lon="7.989167">
        <ele>501.015799</ele>
        <time>2021-11-18T19:48:47.039Z</time>
      </trkpt>
      <trkpt lat="47.571711" lon="7.989669">
        <ele>500.820006</ele>
        <time>2021-11-18T19:48:51.499Z</time>
      </trkpt>
      <trkpt lat="47.571710" lon="7.989958">
        <ele>500.803230</ele>
        <time>2021-11-18T19:48:53.918Z</time>
      </trkpt>
      <trkpt lat="47.571712" lon="7.990384">
        <ele>500.850243</ele>
        <time>2021-11-18T19:48:57.812Z</time>
      </trkpt>
      <trkpt lat="47.571883" lon="7.992565">
        <ele>501.084144</ele>
        <time>2021-11-18T19:49:22.757Z</time>
      </trkpt>
      <trkpt lat="47.571990" lon="7.993258">
        <ele>501.120525</ele>
        <time>2021-11-18T19:49:30.840Z</time>
      </trkpt>
      <trkpt lat="47.572062" lon="7.993506">
        <ele>501.134341</ele>
        <time>2021-11-18T19:49:33.951Z</time>
      </trkpt>
      <trkpt lat="47.572207" lon="7.993915">
        <ele>501.157986</ele>
        <time>2021-11-18T19:49:38.810Z</time>
      </trkpt>
      <trkpt lat="47.572249" lon="7.994022">
        <ele>501.164321</ele>
        <time>2021-11-18T19:49:40.040Z</time>
      </trkpt>
      <trkpt lat="47.572368" lon="7.994372">
        <ele>501.184378</ele>
        <time>2021-11-18T19:49:43.766Z</time>
      </trkpt>
      <trkpt lat="47.572460" lon="7.995058">
        <ele>501.089791</ele>
        <time>2021-11-18T19:49:50.105Z</time>
      </trkpt>
      <trkpt lat="47.572468" lon="7.995163">
        <ele>500.992504</ele>
        <time>2021-11-18T19:49:50.977Z</time>
      </trkpt>
      <trkpt lat="47.572547" lon="7.996045">
        <ele>500.173331</ele>
        <time>2021-11-18T19:49:58.538Z</time>
      </trkpt>
      <trkpt lat="47.572559" lon="7.996184">
        <ele>500.044312</ele>
        <time>2021-11-18T19:49:59.594Z</time>
      </trkpt>
      <trkpt lat="47.572807" lon="7.998270">
        <ele>497.637501</ele>
        <time>2021-11-18T19:50:15.494Z</time>
      </trkpt>
      <trkpt lat="47.572796" lon="7.998352">
        <ele>497.507633</ele>
        <time>2021-11-18T19:50:16.048Z</time>
      </trkpt>
      <trkpt lat="47.572763" lon="7.998535">
        <ele>497.213392</ele>
        <time>2021-11-18T19:50:17.307Z</time>
      </trkpt>
      <trkpt lat="47.572708" lon="7.998779">
        <ele>496.813779</ele>
        <time>2021-11-18T19:50:19.292Z</time>
      </trkpt>
      <trkpt lat="47.572664" lon="7.998959">
        <ele>496.516389</ele>
        <time>2021-11-18T19:50:20.565Z</time>
      </trkpt>
      <trkpt lat="47.572701" lon="7.999118">
        <ele>496.255127</ele>
        <time>2021-11-18T19:50:21.714Z</time>
      </trkpt>
      <trkpt lat="47.572737" lon="7.999234">
        <ele>496.056788</ele>
        <time>2021-11-18T19:50:22.814Z</time>
      </trkpt>
      <trkpt lat="47.572684" lon="7.999259">
        <ele>495.928729</ele>
        <time>2021-11-18T19:50:23.406Z</time>
      </trkpt>
      <trkpt lat="47.572623" lon="7.999326">
        <ele>495.753923</ele>
        <time>2021-11-18T19:50:24.173Z</time>
      </trkpt>
      <trkpt lat="47.572588" lon="7.999397">
        <ele>495.617330</ele>
        <time>2021-11-18T19:50:24.739Z</time>
      </trkpt>
      <trkpt lat="47.572560" lon="7.999471">
        <ele>495.485538</ele>
        <time>2021-11-18T19:50:25.339Z</time>
      </trkpt>
      <trkpt lat="47.572543" lon="7.999708">
        <ele>495.115318</ele>
        <time>2021-11-18T19:50:27.257Z</time>
      </trkpt>
      <trkpt lat="47.572611" lon="8.000059">
        <ele>494.595521</ele>
        <time>2021-11-18T19:50:29.831Z</time>
      </trkpt>
      <trkpt lat="47.572662" lon="8.000300">
        <ele>494.471453</ele>
        <time>2021-11-18T19:50:31.850Z</time>
      </trkpt>
      <trkpt lat="47.572747" lon="8.000534">
        <ele>494.340908</ele>
        <time>2021-11-18T19:50:33.735Z</time>
      </trkpt>
      <trkpt lat="47.572824" lon="8.000753">
        <ele>494.219601</ele>
        <time>2021-11-18T19:50:36.055Z</time>
      </trkpt>
      <trkpt lat="47.572887" lon="8.000996">
        <ele>494.091728</ele>
        <time>2021-11-18T19:50:37.949Z</time>
      </trkpt>
      <trkpt lat="47.572935" lon="8.001208">
        <ele>493.981884</ele>
        <time>2021-11-18T19:50:40.024Z</time>
      </trkpt>
      <trkpt lat="47.572943" lon="8.001367">
        <ele>493.903565</ele>
        <time>2021-11-18T19:50:41.236Z</time>
      </trkpt>
      <trkpt lat="47.572940" lon="8.001742">
        <ele>493.719350</ele>
        <time>2021-11-18T19:50:44.832Z</time>
      </trkpt>
      <trkpt lat="47.572938" lon="8.001919">
        <ele>493.632394</ele>
        <time>2021-11-18T19:50:46.226Z</time>
      </trkpt>
      <trkpt lat="47.573026" lon="8.001932">
        <ele>493.568005</ele>
        <time>2021-11-18T19:50:47.230Z</time>
      </trkpt>
      <trkpt lat="47.573126" lon="8.002031">
        <ele>493.480449</ele>
        <time>2021-11-18T19:50:49.578Z</time>
      </trkpt>
      <trkpt lat="47.573400" lon="8.002344">
        <ele>493.506217</ele>
        <time>2021-11-18T19:50:55.462Z</time>
      </trkpt>
      <trkpt lat="47.573502" lon="8.002634">
        <ele>493.907890</ele>
        <time>2021-11-18T19:50:59.959Z</time>
      </trkpt>
      <trkpt lat="47.573643" lon="8.002920">
        <ele>494.342946</ele>
        <time>2021-11-18T19:51:06.111Z</time>
      </trkpt>
      <trkpt lat="47.573679" lon="8.003065">
        <ele>494.532709</ele>
        <time>2021-11-18T19:51:08.313Z</time>
      </trkpt>
      <trkpt lat="47.573718" lon="8.003157">
        <ele>494.666156</ele>
        <time>2021-11-18T19:51:10.327Z</time>
      </trkpt>
      <trkpt lat="47.573800" lon="8.003256">
        <ele>494.858689</ele>
        <time>2021-11-18T19:51:13.565Z</time>
      </trkpt>
      <trkpt lat="47.574217" lon="8.003704">
        <ele>495.796263</ele>
        <time>2021-11-18T19:51:25.154Z</time>
      </trkpt>
      <trkpt lat="47.574305" lon="8.003732">
        <ele>495.960116</ele>
        <time>2021-11-18T19:51:27.425Z</time>
      </trkpt>
      <trkpt lat="47.574392" lon="8.003728">
        <ele>496.118575</ele>
        <time>2021-11-18T19:51:30.097Z</time>
      </trkpt>
      <trkpt lat="47.574686" lon="8.003684">
        <ele>496.566230</ele>
        <time>2021-11-18T19:51:36.213Z</time>
      </trkpt>
      <trkpt lat="47.574764" lon="8.003762">
        <ele>496.529093</ele>
        <time>2021-11-18T19:51:38.703Z</time>
      </trkpt>
      <trkpt lat="47.575168" lon="8.004892">
        <ele>496.188567</ele>
        <time>2021-11-18T19:51:54.494Z</time>
      </trkpt>
      <trkpt lat="47.575411" lon="8.005256">
        <ele>496.052213</ele>
        <time>2021-11-18T19:51:59.172Z</time>
      </trkpt>
      <trkpt lat="47.575508" lon="8.005404">
        <ele>495.997270</ele>
        <time>2021-11-18T19:52:00.726Z</time>
      </trkpt>
      <trkpt lat="47.575531" lon="8.005431">
        <ele>495.985690</ele>
        <time>2021-11-18T19:52:01.019Z</time>
      </trkpt>
      <trkpt lat="47.575756" lon="8.005585">
        <ele>495.887874</ele>
        <time>2021-11-18T19:52:03.565Z</time>
      </trkpt>
      <trkpt lat="47.575892" lon="8.005591">
        <ele>495.397387</ele>
        <time>2021-11-18T19:52:04.918Z</time>
      </trkpt>
      <trkpt lat="47.576902" lon="8.005070">
        <ele>490.153327</ele>
        <time>2021-11-18T19:52:14.989Z</time>
      </trkpt>
      <trkpt lat="47.577375" lon="8.004938">
        <ele>487.793128</ele>
        <time>2021-11-18T19:52:19.395Z</time>
      </trkpt>
      <trkpt lat="47.577792" lon="8.005044">
        <ele>486.254034</ele>
        <time>2021-11-18T19:52:23.291Z</time>
      </trkpt>
      <trkpt lat="47.578086" lon="8.005441">
        <ele>485.086889</ele>
        <time>2021-11-18T19:52:27.080Z</time>
      </trkpt>
      <trkpt lat="47.578325" lon="8.005530">
        <ele>484.363679</ele>
        <time>2021-11-18T19:52:29.537Z</time>
      </trkpt>
      <trkpt lat="47.578429" lon="8.005523">
        <ele>484.058146</ele>
        <time>2021-11-18T19:52:30.584Z</time>
      </trkpt>
      <trkpt lat="47.578736" lon="8.005500">
        <ele>483.156012</ele>
        <time>2021-11-18T19:52:33.927Z</time>
      </trkpt>
      <trkpt lat="47.579228" lon="8.005324">
        <ele>481.791801</ele>
        <time>2021-11-18T19:52:40.516Z</time>
      </trkpt>
      <trkpt lat="47.579909" lon="8.004868">
        <ele>482.176334</ele>
        <time>2021-11-18T19:52:55.428Z</time>
      </trkpt>
      <trkpt lat="47.580305" lon="8.004384">
        <ele>482.440443</ele>
        <time>2021-11-18T19:53:07.044Z</time>
      </trkpt>
      <trkpt lat="47.580693" lon="8.003731">
        <ele>482.298681</ele>
        <time>2021-11-18T19:53:16.632Z</time>
      </trkpt>
      <trkpt lat="47.581433" lon="8.002768">
        <ele>477.600460</ele>
        <time>2021-11-18T19:53:26.613Z</time>
      </trkpt>
      <trkpt lat="47.581538" lon="8.002492">
        <ele>476.580615</ele>
        <time>2021-11-18T19:53:28.540Z</time>
      </trkpt>
      <trkpt lat="47.581587" lon="8.002199">
        <ele>475.609046</ele>
        <time>2021-11-18T19:53:30.392Z</time>
      </trkpt>
      <trkpt lat="47.581843" lon="8.001622">
        <ele>473.049011</ele>
        <time>2021-11-18T19:53:34.408Z</time>
      </trkpt>
      <trkpt lat="47.582003" lon="8.001392">
        <ele>471.495005</ele>
        <time>2021-11-18T19:53:36.323Z</time>
      </trkpt>
      <trkpt lat="47.582718" lon="8.001131">
        <ele>466.360534</ele>
        <time>2021-11-18T19:53:42.723Z</time>
      </trkpt>
      <trkpt lat="47.582884" lon="8.001201">
        <ele>465.157134</ele>
        <time>2021-11-18T19:53:44.434Z</time>
      </trkpt>
      <trkpt lat="47.583038" lon="8.001422">
        <ele>463.662645</ele>
        <time>2021-11-18T19:53:46.316Z</time>
      </trkpt>
      <trkpt lat="47.583129" lon="8.001600">
        <ele>462.612165</ele>
        <time>2021-11-18T19:53:49.735Z</time>
      </trkpt>
      <trkpt lat="47.583138" lon="8.001749">
        <ele>461.908568</ele>
        <time>2021-11-18T19:53:50.639Z</time>
      </trkpt>
      <trkpt lat="47.582770" lon="8.002301">
        <ele>462.397303</ele>
        <time>2021-11-18T19:53:56.312Z</time>
      </trkpt>
      <trkpt lat="47.582722" lon="8.002476">
        <ele>462.617370</ele>
        <time>2021-11-18T19:53:59.617Z</time>
      </trkpt>
      <trkpt lat="47.582735" lon="8.002783">
        <ele>462.975698</ele>
        <time>2021-11-18T19:54:01.794Z</time>
      </trkpt>
      <trkpt lat="47.582779" lon="8.003036">
        <ele>463.280056</ele>
        <time>2021-11-18T19:54:07.242Z</time>
      </trkpt>
      <trkpt lat="47.582789" lon="8.003167">
        <ele>463.433631</ele>
        <time>2021-11-18T19:54:08.170Z</time>
      </trkpt>
      <trkpt lat="47.582781" lon="8.003305">
        <ele>463.594980</ele>
        <time>2021-11-18T19:54:10.194Z</time>
      </trkpt>
      <trkpt lat="47.582727" lon="8.003464">
        <ele>463.802351</ele>
        <time>2021-11-18T19:54:16.493Z</time>
      </trkpt>
      <trkpt lat="47.582604" lon="8.004164">
        <ele>464.644995</ele>
        <time>2021-11-18T19:54:34.201Z</time>
      </trkpt>
      <trkpt lat="47.582510" lon="8.004377">
        <ele>465.823312</ele>
        <time>2021-11-18T19:54:41.491Z</time>
      </trkpt>
      <trkpt lat="47.582188" lon="8.004718">
        <ele>468.828064</ele>
        <time>2021-11-18T19:54:59.057Z</time>
      </trkpt>
      <trkpt lat="47.581764" lon="8.005054">
        <ele>472.478681</ele>
        <time>2021-11-18T19:55:20.861Z</time>
      </trkpt>
      <trkpt lat="47.581321" lon="8.006142">
        <ele>479.061279</ele>
        <time>2021-11-18T19:56:00.809Z</time>
      </trkpt>
      <trkpt lat="47.581140" lon="8.006991">
        <ele>484.138054</ele>
        <time>2021-11-18T19:56:32.843Z</time>
      </trkpt>
      <trkpt lat="47.580912" lon="8.007336">
        <ele>486.891895</ele>
        <time>2021-11-18T19:56:50.069Z</time>
      </trkpt>
      <trkpt lat="47.579923" lon="8.008040">
        <ele>494.964427</ele>
        <time>2021-11-18T19:57:41.127Z</time>
      </trkpt>
      <trkpt lat="47.579619" lon="8.008172">
        <ele>496.415877</ele>
        <time>2021-11-18T19:57:53.260Z</time>
      </trkpt>
      <trkpt lat="47.578864" lon="8.008842">
        <ele>500.447765</ele>
        <time>2021-11-18T19:58:20.195Z</time>
      </trkpt>
      <trkpt lat="47.578332" lon="8.009223">
        <ele>502.072054</ele>
        <time>2021-11-18T19:58:33.365Z</time>
      </trkpt>
      <trkpt lat="47.578269" lon="8.009376">
        <ele>502.188417</ele>
        <time>2021-11-18T19:58:35.799Z</time>
      </trkpt>
      <trkpt lat="47.578275" lon="8.009410">
        <ele>502.211232</ele>
        <time>2021-11-18T19:58:36.010Z</time>
      </trkpt>
      <trkpt lat="47.578339" lon="8.009582">
        <ele>502.338747</ele>
        <time>2021-11-18T19:58:38.997Z</time>
      </trkpt>
      <trkpt lat="47.578506" lon="8.009815">
        <ele>502.559439</ele>
        <time>2021-11-18T19:58:42.585Z</time>
      </trkpt>
      <trkpt lat="47.578802" lon="8.010247">
        <ele>502.959166</ele>
        <time>2021-11-18T19:58:49.939Z</time>
      </trkpt>
      <trkpt lat="47.578877" lon="8.010552">
        <ele>503.169904</ele>
        <time>2021-11-18T19:58:53.997Z</time>
      </trkpt>
      <trkpt lat="47.578994" lon="8.011565">
        <ele>503.683489</ele>
        <time>2021-11-18T19:59:05.231Z</time>
      </trkpt>
      <trkpt lat="47.579083" lon="8.012800">
        <ele>504.105253</ele>
        <time>2021-11-18T19:59:18.858Z</time>
      </trkpt>
      <trkpt lat="47.579303" lon="8.013994">
        <ele>504.442447</ele>
        <time>2021-11-18T19:59:33.602Z</time>
      </trkpt>
      <trkpt lat="47.579390" lon="8.014221">
        <ele>504.460995</ele>
        <time>2021-11-18T19:59:36.155Z</time>
      </trkpt>
      <trkpt lat="47.579476" lon="8.014445">
        <ele>504.479306</ele>
        <time>2021-11-18T19:59:39.702Z</time>
      </trkpt>
      <trkpt lat="47.579677" lon="8.015285">
        <ele>504.542627</ele>
        <time>2021-11-18T19:59:49.332Z</time>
      </trkpt>
      <trkpt lat="47.579693" lon="8.015395">
        <ele>504.550621</ele>
        <time>2021-11-18T19:59:50.996Z</time>
      </trkpt>
      <trkpt lat="47.579782" lon="8.016013">
        <ele>504.595516</ele>
        <time>2021-11-18T19:59:56.438Z</time>
      </trkpt>
      <trkpt lat="47.579807" lon="8.016479">
        <ele>504.637377</ele>
        <time>2021-11-18T20:00:00.234Z</time>
      </trkpt>
      <trkpt lat="47.579770" lon="8.017313">
        <ele>504.724023</ele>
        <time>2021-11-18T20:00:07.260Z</time>
      </trkpt>
      <trkpt lat="47.579800" lon="8.017631">
        <ele>504.757310</ele>
        <time>2021-11-18T20:00:11.801Z</time>
      </trkpt>
      <trkpt lat="47.579827" lon="8.017916">
        <ele>504.787145</ele>
        <time>2021-11-18T20:00:14.592Z</time>
      </trkpt>
      <trkpt lat="47.579845" lon="8.018161">
        <ele>504.812693</ele>
        <time>2021-11-18T20:00:18.675Z</time>
      </trkpt>
      <trkpt lat="47.579890" lon="8.018812">
        <ele>504.880534</ele>
        <time>2021-11-18T20:00:26.221Z</time>
      </trkpt>
      <trkpt lat="47.579943" lon="8.018927">
        <ele>504.967445</ele>
        <time>2021-11-18T20:00:27.397Z</time>
      </trkpt>
      <trkpt lat="47.580093" lon="8.019071">
        <ele>505.224534</ele>
        <time>2021-11-18T20:00:31.205Z</time>
      </trkpt>
      <trkpt lat="47.580282" lon="8.019086">
        <ele>505.496823</ele>
        <time>2021-11-18T20:00:33.696Z</time>
      </trkpt>
      <trkpt lat="47.580628" lon="8.018939">
        <ele>506.014624</ele>
        <time>2021-11-18T20:00:39.989Z</time>
      </trkpt>
      <trkpt lat="47.580782" lon="8.018916">
        <ele>506.237293</ele>
        <time>2021-11-18T20:00:44.459Z</time>
      </trkpt>
      <trkpt lat="47.580830" lon="8.018918">
        <ele>506.306374</ele>
        <time>2021-11-18T20:00:45.974Z</time>
      </trkpt>
      <trkpt lat="47.580916" lon="8.019035">
        <ele>506.474298</ele>
        <time>2021-11-18T20:00:48.487Z</time>
      </trkpt>
      <trkpt lat="47.580948" lon="8.019213">
        <ele>506.653062</ele>
        <time>2021-11-18T20:00:52.521Z</time>
      </trkpt>
      <trkpt lat="47.580955" lon="8.019317">
        <ele>506.754486</ele>
        <time>2021-11-18T20:00:54.699Z</time>
      </trkpt>
      <trkpt lat="47.581039" lon="8.019934">
        <ele>507.365308</ele>
        <time>2021-11-18T20:01:14.974Z</time>
      </trkpt>
      <trkpt lat="47.581122" lon="8.020572">
        <ele>508.143607</ele>
        <time>2021-11-18T20:01:34.501Z</time>
      </trkpt>
      <trkpt lat="47.581460" lon="8.022287">
        <ele>510.368278</ele>
        <time>2021-11-18T20:02:26.369Z</time>
      </trkpt>
      <trkpt lat="47.581487" lon="8.022614">
        <ele>510.778471</ele>
        <time>2021-11-18T20:02:36.445Z</time>
      </trkpt>
      <trkpt lat="47.581513" lon="8.022860">
        <ele>511.280090</ele>
        <time>2021-11-18T20:02:41.524Z</time>
      </trkpt>
      <trkpt lat="47.581748" lon="8.024404">
        <ele>514.532708</ele>
        <time>2021-11-18T20:03:14.693Z</time>
      </trkpt>
      <trkpt lat="47.581899" lon="8.025089">
        <ele>516.013607</ele>
        <time>2021-11-18T20:03:31.981Z</time>
      </trkpt>
      <trkpt lat="47.582058" lon="8.025575">
        <ele>517.643059</ele>
        <time>2021-11-18T20:03:45.408Z</time>
      </trkpt>
      <trkpt lat="47.582102" lon="8.025700">
        <ele>518.109846</ele>
        <time>2021-11-18T20:03:49.807Z</time>
      </trkpt>
      <trkpt lat="47.582199" lon="8.025829">
        <ele>518.749407</ele>
        <time>2021-11-18T20:03:53.913Z</time>
      </trkpt>
      <trkpt lat="47.582289" lon="8.025933">
        <ele>519.309464</ele>
        <time>2021-11-18T20:03:57.562Z</time>
      </trkpt>
      <trkpt lat="47.582388" lon="8.025991">
        <ele>519.831923</ele>
        <time>2021-11-18T20:04:02.751Z</time>
      </trkpt>
      <trkpt lat="47.582723" lon="8.026030">
        <ele>521.481172</ele>
        <time>2021-11-18T20:04:15.634Z</time>
      </trkpt>
      <trkpt lat="47.582993" lon="8.025956">
        <ele>522.828793</ele>
        <time>2021-11-18T20:04:25.277Z</time>
      </trkpt>
      <trkpt lat="47.583073" lon="8.025933">
        <ele>523.228750</ele>
        <time>2021-11-18T20:04:29.259Z</time>
      </trkpt>
      <trkpt lat="47.583464" lon="8.025921">
        <ele>525.155215</ele>
        <time>2021-11-18T20:04:47.448Z</time>
      </trkpt>
      <trkpt lat="47.583871" lon="8.026235">
        <ele>527.743494</ele>
        <time>2021-11-18T20:05:08.544Z</time>
      </trkpt>
      <trkpt lat="47.583918" lon="8.026237">
        <ele>528.008743</ele>
        <time>2021-11-18T20:05:11.376Z</time>
      </trkpt>
      <trkpt lat="47.583982" lon="8.026498">
        <ele>529.065464</ele>
        <time>2021-11-18T20:05:19.643Z</time>
      </trkpt>
      <trkpt lat="47.584046" lon="8.026676">
        <ele>529.832989</ele>
        <time>2021-11-18T20:05:25.345Z</time>
      </trkpt>
      <trkpt lat="47.584080" lon="8.026751">
        <ele>530.176837</ele>
        <time>2021-11-18T20:05:28.507Z</time>
      </trkpt>
      <trkpt lat="47.584134" lon="8.026675">
        <ele>530.596870</ele>
        <time>2021-11-18T20:05:31.683Z</time>
      </trkpt>
      <trkpt lat="47.584228" lon="8.026533">
        <ele>531.353933</ele>
        <time>2021-11-18T20:05:37.293Z</time>
      </trkpt>
      <trkpt lat="47.584244" lon="8.026509">
        <ele>531.482333</ele>
        <time>2021-11-18T20:05:38.192Z</time>
      </trkpt>
      <trkpt lat="47.584323" lon="8.026391">
        <ele>532.114957</ele>
        <time>2021-11-18T20:05:43.399Z</time>
      </trkpt>
      <trkpt lat="47.584456" lon="8.026174">
        <ele>533.230625</ele>
        <time>2021-11-18T20:05:50.599Z</time>
      </trkpt>
      <trkpt lat="47.585609" lon="8.024292">
        <ele>541.334681</ele>
        <time>2021-11-18T20:06:57.336Z</time>
      </trkpt>
      <trkpt lat="47.586233" lon="8.023109">
        <ele>545.660108</ele>
        <time>2021-11-18T20:07:33.916Z</time>
      </trkpt>
      <trkpt lat="47.586478" lon="8.022754">
        <ele>547.066252</ele>
        <time>2021-11-18T20:07:46.642Z</time>
      </trkpt>
      <trkpt lat="47.586795" lon="8.022396">
        <ele>548.701907</ele>
        <time>2021-11-18T20:08:01.357Z</time>
      </trkpt>
      <trkpt lat="47.587072" lon="8.021950">
        <ele>550.380393</ele>
        <time>2021-11-18T20:08:16.415Z</time>
      </trkpt>
      <trkpt lat="47.587257" lon="8.021642">
        <ele>551.581136</ele>
        <time>2021-11-18T20:08:26.581Z</time>
      </trkpt>
      <trkpt lat="47.587557" lon="8.021107">
        <ele>553.644840</ele>
        <time>2021-11-18T20:08:43.444Z</time>
      </trkpt>
      <trkpt lat="47.587801" lon="8.021555">
        <ele>555.352834</ele>
        <time>2021-11-18T20:08:56.670Z</time>
      </trkpt>
      <trkpt lat="47.587981" lon="8.021848">
        <ele>556.528387</ele>
        <time>2021-11-18T20:09:05.504Z</time>
      </trkpt>
      <trkpt lat="47.588224" lon="8.022086">
        <ele>557.809161</ele>
        <time>2021-11-18T20:09:18.309Z</time>
      </trkpt>
      <trkpt lat="47.588772" lon="8.022285">
        <ele>561.636917</ele>
        <time>2021-11-18T20:09:43.370Z</time>
      </trkpt>
      <trkpt lat="47.588947" lon="8.022297">
        <ele>563.023563</ele>
        <time>2021-11-18T20:09:51.787Z</time>
      </trkpt>
      <trkpt lat="47.589064" lon="8.022241">
        <ele>563.996702</ele>
        <time>2021-11-18T20:09:56.662Z</time>
      </trkpt>
      <trkpt lat="47.589256" lon="8.022150">
        <ele>565.592182</ele>
        <time>2021-11-18T20:10:07.373Z</time>
      </trkpt>
      <trkpt lat="47.589392" lon="8.022010">
        <ele>566.902659</ele>
        <time>2021-11-18T20:10:14.506Z</time>
      </trkpt>
      <trkpt lat="47.589430" lon="8.021956">
        <ele>567.319274</ele>
        <time>2021-11-18T20:10:17.964Z</time>
      </trkpt>
      <trkpt lat="47.589615" lon="8.021880">
        <ele>568.838757</ele>
        <time>2021-11-18T20:10:27.936Z</time>
      </trkpt>
      <trkpt lat="47.589748" lon="8.021891">
        <ele>569.893120</ele>
        <time>2021-11-18T20:10:36.949Z</time>
      </trkpt>
      <trkpt lat="47.590116" lon="8.022103">
        <ele>573.045836</ele>
        <time>2021-11-18T20:11:02.306Z</time>
      </trkpt>
      <trkpt lat="47.590395" lon="8.022117">
        <ele>575.607142</ele>
        <time>2021-11-18T20:11:18.105Z</time>
      </trkpt>
      <trkpt lat="47.590755" lon="8.022031">
        <ele>578.952757</ele>
        <time>2021-11-18T20:11:42.122Z</time>
      </trkpt>
      <trkpt lat="47.591072" lon="8.022076">
        <ele>581.874548</ele>
        <time>2021-11-18T20:12:01.397Z</time>
      </trkpt>
      <trkpt lat="47.591115" lon="8.022129">
        <ele>582.387584</ele>
        <time>2021-11-18T20:12:06.671Z</time>
      </trkpt>
      <trkpt lat="47.591140" lon="8.022229">
        <ele>583.047511</ele>
        <time>2021-11-18T20:12:11.904Z</time>
      </trkpt>
      <trkpt lat="47.591210" lon="8.023119">
        <ele>588.591982</ele>
        <time>2021-11-18T20:12:38.493Z</time>
      </trkpt>
      <trkpt lat="47.591205" lon="8.023265">
        <ele>589.417867</ele>
        <time>2021-11-18T20:12:46.234Z</time>
      </trkpt>
      <trkpt lat="47.591738" lon="8.023957">
        <ele>592.516854</ele>
        <time>2021-11-18T20:13:16.472Z</time>
      </trkpt>
      <trkpt lat="47.592067" lon="8.024331">
        <ele>594.330291</ele>
        <time>2021-11-18T20:13:29.611Z</time>
      </trkpt>
      <trkpt lat="47.592360" lon="8.024239">
        <ele>595.640400</ele>
        <time>2021-11-18T20:13:39.265Z</time>
      </trkpt>
      <trkpt lat="47.592875" lon="8.023855">
        <ele>598.221183</ele>
        <time>2021-11-18T20:13:55.743Z</time>
      </trkpt>
      <trkpt lat="47.593000" lon="8.023757">
        <ele>598.878331</ele>
        <time>2021-11-18T20:14:01.940Z</time>
      </trkpt>
      <trkpt lat="47.593932" lon="8.023341">
        <ele>603.401838</ele>
        <time>2021-11-18T20:14:40.815Z</time>
      </trkpt>
      <trkpt lat="47.594098" lon="8.023267">
        <ele>604.207441</ele>
        <time>2021-11-18T20:14:49.168Z</time>
      </trkpt>
      <trkpt lat="47.594377" lon="8.023068">
        <ele>605.627089</ele>
        <time>2021-11-18T20:15:02.540Z</time>
      </trkpt>
      <trkpt lat="47.594831" lon="8.022718">
        <ele>607.378394</ele>
        <time>2021-11-18T20:15:22.323Z</time>
      </trkpt>
      <trkpt lat="47.595091" lon="8.022990">
        <ele>608.467434</ele>
        <time>2021-11-18T20:15:32.055Z</time>
      </trkpt>
      <trkpt lat="47.595671" lon="8.023213">
        <ele>610.518178</ele>
        <time>2021-11-18T20:15:48.449Z</time>
      </trkpt>
      <trkpt lat="47.596051" lon="8.023223">
        <ele>611.756964</ele>
        <time>2021-11-18T20:15:56.991Z</time>
      </trkpt>
      <trkpt lat="47.596148" lon="8.023345">
        <ele>611.890950</ele>
        <time>2021-11-18T20:15:59.343Z</time>
      </trkpt>
      <trkpt lat="47.596208" lon="8.023630">
        <ele>612.103045</ele>
        <time>2021-11-18T20:16:02.626Z</time>
      </trkpt>
      <trkpt lat="47.596116" lon="8.024152">
        <ele>612.486318</ele>
        <time>2021-11-18T20:16:08.534Z</time>
      </trkpt>
      <trkpt lat="47.596100" lon="8.024844">
        <ele>612.978190</ele>
        <time>2021-11-18T20:16:16.211Z</time>
      </trkpt>
      <trkpt lat="47.596129" lon="8.025134">
        <ele>613.186453</ele>
        <time>2021-11-18T20:16:19.874Z</time>
      </trkpt>
      <trkpt lat="47.596247" lon="8.025584">
        <ele>613.529440</ele>
        <time>2021-11-18T20:16:25.679Z</time>
      </trkpt>
      <trkpt lat="47.596374" lon="8.025833">
        <ele>614.063358</ele>
        <time>2021-11-18T20:16:30.393Z</time>
      </trkpt>
      <trkpt lat="47.596403" lon="8.026009">
        <ele>614.508166</ele>
        <time>2021-11-18T20:16:32.442Z</time>
      </trkpt>
      <trkpt lat="47.596391" lon="8.026066">
        <ele>614.654767</ele>
        <time>2021-11-18T20:16:33.813Z</time>
      </trkpt>
      <trkpt lat="47.596371" lon="8.026127">
        <ele>614.821290</ele>
        <time>2021-11-18T20:16:35.647Z</time>
      </trkpt>
      <trkpt lat="47.596351" lon="8.026188">
        <ele>614.987813</ele>
        <time>2021-11-18T20:16:37.143Z</time>
      </trkpt>
      <trkpt lat="47.596275" lon="8.026313">
        <ele>615.401017</ele>
        <time>2021-11-18T20:16:40.937Z</time>
      </trkpt>
      <trkpt lat="47.596214" lon="8.026449">
        <ele>615.802022</ele>
        <time>2021-11-18T20:16:44.338Z</time>
      </trkpt>
      <trkpt lat="47.596280" lon="8.026505">
        <ele>616.078859</ele>
        <time>2021-11-18T20:16:46.890Z</time>
      </trkpt>
      <trkpt lat="47.596433" lon="8.026770">
        <ele>616.935337</ele>
        <time>2021-11-18T20:16:54.125Z</time>
      </trkpt>
      <trkpt lat="47.596560" lon="8.027658">
        <ele>619.163942</ele>
        <time>2021-11-18T20:17:12.877Z</time>
      </trkpt>
      <trkpt lat="47.596702" lon="8.027901">
        <ele>619.953357</ele>
        <time>2021-11-18T20:17:19.770Z</time>
      </trkpt>
      <trkpt lat="47.596826" lon="8.027986">
        <ele>620.650379</ele>
        <time>2021-11-18T20:17:25.261Z</time>
      </trkpt>
      <trkpt lat="47.596954" lon="8.028045">
        <ele>621.488534</ele>
        <time>2021-11-18T20:17:30.047Z</time>
      </trkpt>
      <trkpt lat="47.597162" lon="8.027954">
        <ele>622.844575</ele>
        <time>2021-11-18T20:17:39.459Z</time>
      </trkpt>
      <trkpt lat="47.597247" lon="8.027858">
        <ele>623.512674</ele>
        <time>2021-11-18T20:17:44.046Z</time>
      </trkpt>
      <trkpt lat="47.597667" lon="8.027380">
        <ele>626.823201</ele>
        <time>2021-11-18T20:18:04.973Z</time>
      </trkpt>
      <trkpt lat="47.597967" lon="8.027239">
        <ele>628.791057</ele>
        <time>2021-11-18T20:18:18.006Z</time>
      </trkpt>
      <trkpt lat="47.598069" lon="8.027222">
        <ele>629.432876</ele>
        <time>2021-11-18T20:18:23.494Z</time>
      </trkpt>
      <trkpt lat="47.598361" lon="8.027263">
        <ele>631.266913</ele>
        <time>2021-11-18T20:18:35.342Z</time>
      </trkpt>
      <trkpt lat="47.598472" lon="8.027302">
        <ele>631.995728</ele>
        <time>2021-11-18T20:18:40.610Z</time>
      </trkpt>
      <trkpt lat="47.598821" lon="8.027385">
        <ele>634.267053</ele>
        <time>2021-11-18T20:18:53.997Z</time>
      </trkpt>
      <trkpt lat="47.599102" lon="8.027378">
        <ele>636.073011</ele>
        <time>2021-11-18T20:19:04.042Z</time>
      </trkpt>
      <trkpt lat="47.599389" lon="8.027316">
        <ele>637.936734</ele>
        <time>2021-11-18T20:19:14.457Z</time>
      </trkpt>
      <trkpt lat="47.599613" lon="8.027185">
        <ele>639.484037</ele>
        <time>2021-11-18T20:19:26.903Z</time>
      </trkpt>
      <trkpt lat="47.599844" lon="8.026999">
        <ele>641.173124</ele>
        <time>2021-11-18T20:19:36.758Z</time>
      </trkpt>
      <trkpt lat="47.599958" lon="8.026844">
        <ele>642.166969</ele>
        <time>2021-11-18T20:19:44.872Z</time>
      </trkpt>
      <trkpt lat="47.600101" lon="8.026650">
        <ele>643.455102</ele>
        <time>2021-11-18T20:19:50.845Z</time>
      </trkpt>
      <trkpt lat="47.600516" lon="8.025753">
        <ele>648.631699</ele>
        <time>2021-11-18T20:20:21.606Z</time>
      </trkpt>
      <trkpt lat="47.600550" lon="8.025678">
        <ele>649.061752</ele>
        <time>2021-11-18T20:20:25.251Z</time>
      </trkpt>
      <trkpt lat="47.600581" lon="8.025609">
        <ele>649.456301</ele>
        <time>2021-11-18T20:20:28.984Z</time>
      </trkpt>
      <trkpt lat="47.601301" lon="8.024297">
        <ele>657.025342</ele>
        <time>2021-11-18T20:21:17.366Z</time>
      </trkpt>
      <trkpt lat="47.601427" lon="8.024003">
        <ele>658.248983</ele>
        <time>2021-11-18T20:21:26.904Z</time>
      </trkpt>
      <trkpt lat="47.601526" lon="8.023755">
        <ele>659.261317</ele>
        <time>2021-11-18T20:21:35.303Z</time>
      </trkpt>
      <trkpt lat="47.601889" lon="8.022433">
        <ele>664.275186</ele>
        <time>2021-11-18T20:22:05.709Z</time>
      </trkpt>
      <trkpt lat="47.602034" lon="8.021886">
        <ele>666.070824</ele>
        <time>2021-11-18T20:22:18.233Z</time>
      </trkpt>
      <trkpt lat="47.602462" lon="8.021174">
        <ele>668.727998</ele>
        <time>2021-11-18T20:22:37.695Z</time>
      </trkpt>
      <trkpt lat="47.602662" lon="8.020843">
        <ele>669.966112</ele>
        <time>2021-11-18T20:22:47.410Z</time>
      </trkpt>
      <trkpt lat="47.603104" lon="8.020091">
        <ele>672.657586</ele>
        <time>2021-11-18T20:23:09.547Z</time>
      </trkpt>
      <trkpt lat="47.603225" lon="8.019699">
        <ele>673.474742</ele>
        <time>2021-11-18T20:23:18.415Z</time>
      </trkpt>
      <trkpt lat="47.603538" lon="8.018606">
        <ele>675.725517</ele>
        <time>2021-11-18T20:23:40.791Z</time>
      </trkpt>
      <trkpt lat="47.603564" lon="8.018549">
        <ele>675.855954</ele>
        <time>2021-11-18T20:23:42.016Z</time>
      </trkpt>
      <trkpt lat="47.603949" lon="8.017906">
        <ele>677.485865</ele>
        <time>2021-11-18T20:23:55.297Z</time>
      </trkpt>
      <trkpt lat="47.604386" lon="8.017343">
        <ele>677.764415</ele>
        <time>2021-11-18T20:24:03.940Z</time>
      </trkpt>
      <trkpt lat="47.604931" lon="8.016761">
        <ele>678.046608</ele>
        <time>2021-11-18T20:24:13.698Z</time>
      </trkpt>
      <trkpt lat="47.605303" lon="8.016420">
        <ele>678.230367</ele>
        <time>2021-11-18T20:24:20.250Z</time>
      </trkpt>
      <trkpt lat="47.605349" lon="8.016390">
        <ele>678.251482</ele>
        <time>2021-11-18T20:24:21.027Z</time>
      </trkpt>
      <trkpt lat="47.605617" lon="8.016217">
        <ele>678.586803</ele>
        <time>2021-11-18T20:24:26.035Z</time>
      </trkpt>
      <trkpt lat="47.605788" lon="8.016160">
        <ele>678.832198</ele>
        <time>2021-11-18T20:24:29.439Z</time>
      </trkpt>
      <trkpt lat="47.607499" lon="8.015932">
        <ele>680.857025</ele>
        <time>2021-11-18T20:25:06.936Z</time>
      </trkpt>
      <trkpt lat="47.607936" lon="8.015773">
        <ele>680.937243</ele>
        <time>2021-11-18T20:25:15.758Z</time>
      </trkpt>
      <trkpt lat="47.607997" lon="8.015736">
        <ele>680.948992</ele>
        <time>2021-11-18T20:25:17.442Z</time>
      </trkpt>
      <trkpt lat="47.608546" lon="8.015408">
        <ele>681.054509</ele>
        <time>2021-11-18T20:25:27.114Z</time>
      </trkpt>
      <trkpt lat="47.608990" lon="8.015226">
        <ele>680.736136</ele>
        <time>2021-11-18T20:25:32.468Z</time>
      </trkpt>
      <trkpt lat="47.609093" lon="8.015216">
        <ele>680.244755</ele>
        <time>2021-11-18T20:25:33.519Z</time>
      </trkpt>
      <trkpt lat="47.609509" lon="8.015211">
        <ele>678.264320</ele>
        <time>2021-11-18T20:25:37.539Z</time>
      </trkpt>
      <trkpt lat="47.609541" lon="8.015211">
        <ele>678.111984</ele>
        <time>2021-11-18T20:25:37.833Z</time>
      </trkpt>
      <trkpt lat="47.609987" lon="8.015356">
        <ele>675.938396</ele>
        <time>2021-11-18T20:25:42.005Z</time>
      </trkpt>
      <trkpt lat="47.610061" lon="8.015390">
        <ele>675.569606</ele>
        <time>2021-11-18T20:25:42.689Z</time>
      </trkpt>
      <trkpt lat="47.610254" lon="8.015477">
        <ele>674.609338</ele>
        <time>2021-11-18T20:25:44.540Z</time>
      </trkpt>
      <trkpt lat="47.611129" lon="8.015861">
        <ele>672.099415</ele>
        <time>2021-11-18T20:25:53.061Z</time>
      </trkpt>
      <trkpt lat="47.611516" lon="8.016031">
        <ele>671.713922</ele>
        <time>2021-11-18T20:25:57.133Z</time>
      </trkpt>
      <trkpt lat="47.611716" lon="8.016114">
        <ele>671.515566</ele>
        <time>2021-11-18T20:25:59.387Z</time>
      </trkpt>
      <trkpt lat="47.613333" lon="8.016808">
        <ele>675.425529</ele>
        <time>2021-11-18T20:26:50.263Z</time>
      </trkpt>
      <trkpt lat="47.613550" lon="8.016884">
        <ele>676.470612</ele>
        <time>2021-11-18T20:26:59.583Z</time>
      </trkpt>
      <trkpt lat="47.613763" lon="8.016931">
        <ele>677.479968</ele>
        <time>2021-11-18T20:27:08.119Z</time>
      </trkpt>
      <trkpt lat="47.614276" lon="8.016874">
        <ele>679.729111</ele>
        <time>2021-11-18T20:27:26.999Z</time>
      </trkpt>
      <trkpt lat="47.614450" lon="8.016786">
        <ele>680.365039</ele>
        <time>2021-11-18T20:27:33.437Z</time>
      </trkpt>
      <trkpt lat="47.614507" lon="8.016749">
        <ele>680.580267</ele>
        <time>2021-11-18T20:27:35.771Z</time>
      </trkpt>
      <trkpt lat="47.614952" lon="8.016327">
        <ele>682.407295</ele>
        <time>2021-11-18T20:27:52.358Z</time>
      </trkpt>
      <trkpt lat="47.615823" lon="8.015017">
        <ele>685.990052</ele>
        <time>2021-11-18T20:28:21.772Z</time>
      </trkpt>
      <trkpt lat="47.616117" lon="8.014711">
        <ele>686.501716</ele>
        <time>2021-11-18T20:28:28.311Z</time>
      </trkpt>
      <trkpt lat="47.616313" lon="8.014507">
        <ele>686.842825</ele>
        <time>2021-11-18T20:28:32.622Z</time>
      </trkpt>
      <trkpt lat="47.616676" lon="8.014297">
        <ele>687.397914</ele>
        <time>2021-11-18T20:28:40.392Z</time>
      </trkpt>
      <trkpt lat="47.617120" lon="8.014238">
        <ele>688.033002</ele>
        <time>2021-11-18T20:28:49.570Z</time>
      </trkpt>
      <trkpt lat="47.617298" lon="8.014271">
        <ele>688.482308</ele>
        <time>2021-11-18T20:28:52.866Z</time>
      </trkpt>
      <trkpt lat="47.617593" lon="8.014382">
        <ele>689.278391</ele>
        <time>2021-11-18T20:28:59.322Z</time>
      </trkpt>
      <trkpt lat="47.617609" lon="8.014390">
        <ele>689.322556</ele>
        <time>2021-11-18T20:28:59.609Z</time>
      </trkpt>
      <trkpt lat="47.617879" lon="8.014526">
        <ele>690.068411</ele>
        <time>2021-11-18T20:29:06.045Z</time>
      </trkpt>
      <trkpt lat="47.618468" lon="8.014944">
        <ele>691.776304</ele>
        <time>2021-11-18T20:29:23.609Z</time>
      </trkpt>
      <trkpt lat="47.619151" lon="8.015995">
        <ele>694.533168</ele>
        <time>2021-11-18T20:29:53.925Z</time>
      </trkpt>
      <trkpt lat="47.619261" lon="8.016064">
        <ele>694.881509</ele>
        <time>2021-11-18T20:29:57.564Z</time>
      </trkpt>
      <trkpt lat="47.619394" lon="8.016117">
        <ele>695.283186</ele>
        <time>2021-11-18T20:30:01.505Z</time>
      </trkpt>
      <trkpt lat="47.619688" lon="8.016135">
        <ele>696.141436</ele>
        <time>2021-11-18T20:30:09.294Z</time>
      </trkpt>
      <trkpt lat="47.620051" lon="8.015912">
        <ele>697.287394</ele>
        <time>2021-11-18T20:30:18.972Z</time>
      </trkpt>
      <trkpt lat="47.620186" lon="8.015747">
        <ele>697.797566</ele>
        <time>2021-11-18T20:30:23.101Z</time>
      </trkpt>
      <trkpt lat="47.620283" lon="8.015578">
        <ele>697.919447</ele>
        <time>2021-11-18T20:30:26.108Z</time>
      </trkpt>
      <trkpt lat="47.620364" lon="8.015366">
        <ele>697.732228</ele>
        <time>2021-11-18T20:30:29.372Z</time>
      </trkpt>
      <trkpt lat="47.620496" lon="8.014586">
        <ele>697.114383</ele>
        <time>2021-11-18T20:30:37.568Z</time>
      </trkpt>
      <trkpt lat="47.620546" lon="8.013967">
        <ele>696.635425</ele>
        <time>2021-11-18T20:30:42.388Z</time>
      </trkpt>
      <trkpt lat="47.620555" lon="8.012850">
        <ele>695.330480</ele>
        <time>2021-11-18T20:30:50.036Z</time>
      </trkpt>
      <trkpt lat="47.620514" lon="8.011832">
        <ele>692.608129</ele>
        <time>2021-11-18T20:30:56.622Z</time>
      </trkpt>
      <trkpt lat="47.620492" lon="8.011288">
        <ele>691.153333</ele>
        <time>2021-11-18T20:31:00.155Z</time>
      </trkpt>
      <trkpt lat="47.620487" lon="8.010965">
        <ele>690.290871</ele>
        <time>2021-11-18T20:31:02.298Z</time>
      </trkpt>
      <trkpt lat="47.620490" lon="8.010580">
        <ele>689.263062</ele>
        <time>2021-11-18T20:31:04.833Z</time>
      </trkpt>
      <trkpt lat="47.620496" lon="8.010474">
        <ele>688.979103</ele>
        <time>2021-11-18T20:31:05.550Z</time>
      </trkpt>
      <trkpt lat="47.620507" lon="8.010219">
        <ele>688.500592</ele>
        <time>2021-11-18T20:31:07.236Z</time>
      </trkpt>
      <trkpt lat="47.620556" lon="8.009809">
        <ele>687.810148</ele>
        <time>2021-11-18T20:31:10.105Z</time>
      </trkpt>
      <trkpt lat="47.620573" lon="8.009731">
        <ele>687.674219</ele>
        <time>2021-11-18T20:31:10.628Z</time>
      </trkpt>
      <trkpt lat="47.620672" lon="8.009286">
        <ele>686.897193</ele>
        <time>2021-11-18T20:31:13.880Z</time>
      </trkpt>
      <trkpt lat="47.620681" lon="8.009249">
        <ele>686.831969</ele>
        <time>2021-11-18T20:31:14.127Z</time>
      </trkpt>
      <trkpt lat="47.620699" lon="8.009176">
        <ele>686.703080</ele>
        <time>2021-11-18T20:31:14.643Z</time>
      </trkpt>
      <trkpt lat="47.620734" lon="8.009059">
        <ele>686.490829</ele>
        <time>2021-11-18T20:31:15.561Z</time>
      </trkpt>
      <trkpt lat="47.620862" lon="8.008648">
        <ele>685.740106</ele>
        <time>2021-11-18T20:31:18.794Z</time>
      </trkpt>
      <trkpt lat="47.620954" lon="8.008357">
        <ele>685.207148</ele>
        <time>2021-11-18T20:31:21.372Z</time>
      </trkpt>
      <trkpt lat="47.621081" lon="8.008034">
        <ele>684.587108</ele>
        <time>2021-11-18T20:31:24.343Z</time>
      </trkpt>
      <trkpt lat="47.621140" lon="8.007875">
        <ele>684.401520</ele>
        <time>2021-11-18T20:31:26.063Z</time>
      </trkpt>
      <trkpt lat="47.621254" lon="8.007569">
        <ele>684.363113</ele>
        <time>2021-11-18T20:31:28.960Z</time>
      </trkpt>
      <trkpt lat="47.621308" lon="8.007429">
        <ele>684.345395</ele>
        <time>2021-11-18T20:31:30.560Z</time>
      </trkpt>
      <trkpt lat="47.621359" lon="8.007338">
        <ele>684.332395</ele>
        <time>2021-11-18T20:31:31.602Z</time>
      </trkpt>
      <trkpt lat="47.621433" lon="8.007225">
        <ele>684.315088</ele>
        <time>2021-11-18T20:31:33.032Z</time>
      </trkpt>
      <trkpt lat="47.621752" lon="8.006948">
        <ele>684.254850</ele>
        <time>2021-11-18T20:31:38.581Z</time>
      </trkpt>
      <trkpt lat="47.622430" lon="8.006776">
        <ele>684.142752</ele>
        <time>2021-11-18T20:31:48.994Z</time>
      </trkpt>
      <trkpt lat="47.622836" lon="8.006672">
        <ele>684.209544</ele>
        <time>2021-11-18T20:31:55.644Z</time>
      </trkpt>
      <trkpt lat="47.623040" lon="8.006578">
        <ele>684.288539</ele>
        <time>2021-11-18T20:31:59.460Z</time>
      </trkpt>
      <trkpt lat="47.623146" lon="8.006521">
        <ele>684.330233</ele>
        <time>2021-11-18T20:32:01.248Z</time>
      </trkpt>
      <trkpt lat="47.623316" lon="8.006410">
        <ele>684.398919</ele>
        <time>2021-11-18T20:32:04.723Z</time>
      </trkpt>
      <trkpt lat="47.623482" lon="8.006277">
        <ele>684.468685</ele>
        <time>2021-11-18T20:32:08.255Z</time>
      </trkpt>
      <trkpt lat="47.623496" lon="8.006267">
        <ele>684.474431</ele>
        <time>2021-11-18T20:32:08.663Z</time>
      </trkpt>
      <trkpt lat="47.624181" lon="8.005412">
        <ele>684.789346</ele>
        <time>2021-11-18T20:32:22.615Z</time>
      </trkpt>
      <trkpt lat="47.624476" lon="8.005261">
        <ele>684.826395</ele>
        <time>2021-11-18T20:32:26.833Z</time>
      </trkpt>
      <trkpt lat="47.624714" lon="8.005192">
        <ele>684.855185</ele>
        <time>2021-11-18T20:32:30.145Z</time>
      </trkpt>
      <trkpt lat="47.624772" lon="8.005176">
        <ele>684.862189</ele>
        <time>2021-11-18T20:32:30.973Z</time>
      </trkpt>
      <trkpt lat="47.624929" lon="8.005099">
        <ele>684.881820</ele>
        <time>2021-11-18T20:32:33.380Z</time>
      </trkpt>
      <trkpt lat="47.625082" lon="8.004976">
        <ele>684.902480</ele>
        <time>2021-11-18T20:32:36.019Z</time>
      </trkpt>
      <trkpt lat="47.625170" lon="8.004881">
        <ele>684.915400</ele>
        <time>2021-11-18T20:32:37.598Z</time>
      </trkpt>
      <trkpt lat="47.625244" lon="8.004783">
        <ele>684.927176</ele>
        <time>2021-11-18T20:32:39.299Z</time>
      </trkpt>
      <trkpt lat="47.625294" lon="8.004699">
        <ele>684.936143</ele>
        <time>2021-11-18T20:32:40.900Z</time>
      </trkpt>
      <trkpt lat="47.625325" lon="8.004642">
        <ele>684.942004</ele>
        <time>2021-11-18T20:32:41.466Z</time>
      </trkpt>
      <trkpt lat="47.625393" lon="8.004515">
        <ele>684.954982</ele>
        <time>2021-11-18T20:32:43.060Z</time>
      </trkpt>
      <trkpt lat="47.625461" lon="8.004337">
        <ele>684.971354</ele>
        <time>2021-11-18T20:32:45.450Z</time>
      </trkpt>
      <trkpt lat="47.625506" lon="8.004231">
        <ele>684.981378</ele>
        <time>2021-11-18T20:32:47.024Z</time>
      </trkpt>
      <trkpt lat="47.625525" lon="8.004123">
        <ele>684.990309</ele>
        <time>2021-11-18T20:32:48.050Z</time>
      </trkpt>
      <trkpt lat="47.625607" lon="8.003576">
        <ele>686.371057</ele>
        <time>2021-11-18T20:32:54.479Z</time>
      </trkpt>
      <trkpt lat="47.625654" lon="8.003373">
        <ele>686.963496</ele>
        <time>2021-11-18T20:32:57.000Z</time>
      </trkpt>
      <trkpt lat="47.625706" lon="8.003196">
        <ele>687.496428</ele>
        <time>2021-11-18T20:32:59.392Z</time>
      </trkpt>
      <trkpt lat="47.625803" lon="8.002992">
        <ele>688.185510</ele>
        <time>2021-11-18T20:33:02.366Z</time>
      </trkpt>
      <trkpt lat="47.625865" lon="8.002902">
        <ele>688.540721</ele>
        <time>2021-11-18T20:33:04.735Z</time>
      </trkpt>
      <trkpt lat="47.625915" lon="8.002831">
        <ele>688.824148</ele>
        <time>2021-11-18T20:33:07.430Z</time>
      </trkpt>
      <trkpt lat="47.626250" lon="8.002373">
        <ele>690.689658</ele>
        <time>2021-11-18T20:33:24.223Z</time>
      </trkpt>
      <trkpt lat="47.626301" lon="8.002302">
        <ele>690.976057</ele>
        <time>2021-11-18T20:33:27.094Z</time>
      </trkpt>
      <trkpt lat="47.626505" lon="8.002023">
        <ele>692.112250</ele>
        <time>2021-11-18T20:33:41.024Z</time>
      </trkpt>
      <trkpt lat="47.626873" lon="8.001471">
        <ele>696.259134</ele>
        <time>2021-11-18T20:34:07.215Z</time>
      </trkpt>
      <trkpt lat="47.627072" lon="8.001170">
        <ele>698.654138</ele>
        <time>2021-11-18T20:34:22.767Z</time>
      </trkpt>
      <trkpt lat="47.627356" lon="8.000607">
        <ele>702.648587</ele>
        <time>2021-11-18T20:34:44.084Z</time>
      </trkpt>
      <trkpt lat="47.627485" lon="8.000267">
        <ele>704.864811</ele>
        <time>2021-11-18T20:34:59.108Z</time>
      </trkpt>
      <trkpt lat="47.627554" lon="8.000118">
        <ele>705.891677</ele>
        <time>2021-11-18T20:35:03.433Z</time>
      </trkpt>
      <trkpt lat="47.627776" lon="7.999590">
        <ele>708.662907</ele>
        <time>2021-11-18T20:35:24.692Z</time>
      </trkpt>
      <trkpt lat="47.628199" lon="7.999047">
        <ele>711.488649</ele>
        <time>2021-11-18T20:35:48.932Z</time>
      </trkpt>
      <trkpt lat="47.628812" lon="7.998675">
        <ele>714.834530</ele>
        <time>2021-11-18T20:36:07.648Z</time>
      </trkpt>
      <trkpt lat="47.629044" lon="7.998403">
        <ele>716.328308</ele>
        <time>2021-11-18T20:36:14.446Z</time>
      </trkpt>
      <trkpt lat="47.629201" lon="7.998016">
        <ele>717.052748</ele>
        <time>2021-11-18T20:36:21.922Z</time>
      </trkpt>
      <trkpt lat="47.629442" lon="7.997077">
        <ele>718.263725</ele>
        <time>2021-11-18T20:36:38.111Z</time>
      </trkpt>
      <trkpt lat="47.629561" lon="7.996812">
        <ele>718.647510</ele>
        <time>2021-11-18T20:36:42.656Z</time>
      </trkpt>
      <trkpt lat="47.629600" lon="7.996725">
        <ele>718.773440</ele>
        <time>2021-11-18T20:36:44.226Z</time>
      </trkpt>
      <trkpt lat="47.630344" lon="7.996286">
        <ele>720.162581</ele>
        <time>2021-11-18T20:36:59.239Z</time>
      </trkpt>
      <trkpt lat="47.630843" lon="7.995806">
        <ele>721.107052</ele>
        <time>2021-11-18T20:37:10.575Z</time>
      </trkpt>
      <trkpt lat="47.631188" lon="7.995698">
        <ele>721.667047</ele>
        <time>2021-11-18T20:37:17.946Z</time>
      </trkpt>
      <trkpt lat="47.631419" lon="7.995733">
        <ele>722.035832</ele>
        <time>2021-11-18T20:37:23.065Z</time>
      </trkpt>
      <trkpt lat="47.631568" lon="7.995835">
        <ele>722.296444</ele>
        <time>2021-11-18T20:37:26.772Z</time>
      </trkpt>
      <trkpt lat="47.631813" lon="7.996192">
        <ele>723.110070</ele>
        <time>2021-11-18T20:37:34.861Z</time>
      </trkpt>
      <trkpt lat="47.632072" lon="7.996843">
        <ele>725.262585</ele>
        <time>2021-11-18T20:37:48.340Z</time>
      </trkpt>
      <trkpt lat="47.632349" lon="7.997893">
        <ele>728.473153</ele>
        <time>2021-11-18T20:38:13.432Z</time>
      </trkpt>
      <trkpt lat="47.632592" lon="7.998590">
        <ele>730.947215</ele>
        <time>2021-11-18T20:38:33.425Z</time>
      </trkpt>
      <trkpt lat="47.632968" lon="7.999063">
        <ele>734.196665</ele>
        <time>2021-11-18T20:38:53.232Z</time>
      </trkpt>
      <trkpt lat="47.633241" lon="7.999285">
        <ele>736.248830</ele>
        <time>2021-11-18T20:39:06.474Z</time>
      </trkpt>
      <trkpt lat="47.633831" lon="7.999600">
        <ele>740.382286</ele>
        <time>2021-11-18T20:39:33.241Z</time>
      </trkpt>
      <trkpt lat="47.633948" lon="7.999762">
        <ele>741.437165</ele>
        <time>2021-11-18T20:39:40.013Z</time>
      </trkpt>
      <trkpt lat="47.634060" lon="8.000159">
        <ele>743.445666</ele>
        <time>2021-11-18T20:39:52.286Z</time>
      </trkpt>
      <trkpt lat="47.634130" lon="8.000444">
        <ele>744.900571</ele>
        <time>2021-11-18T20:40:01.509Z</time>
      </trkpt>
      <trkpt lat="47.634175" lon="8.000631">
        <ele>745.852946</ele>
        <time>2021-11-18T20:40:06.715Z</time>
      </trkpt>
      <trkpt lat="47.634251" lon="8.000831">
        <ele>746.954207</ele>
        <time>2021-11-18T20:40:13.423Z</time>
      </trkpt>
      <trkpt lat="47.634551" lon="8.001066">
        <ele>749.368701</ele>
        <time>2021-11-18T20:40:27.547Z</time>
      </trkpt>
      <trkpt lat="47.635161" lon="8.002888">
        <ele>759.860338</ele>
        <time>2021-11-18T20:41:28.465Z</time>
      </trkpt>
      <trkpt lat="47.635313" lon="8.003256">
        <ele>762.293269</ele>
        <time>2021-11-18T20:41:42.307Z</time>
      </trkpt>
      <trkpt lat="47.635569" lon="8.003670">
        <ele>765.460434</ele>
        <time>2021-11-18T20:42:00.918Z</time>
      </trkpt>
      <trkpt lat="47.635842" lon="8.003825">
        <ele>767.905439</ele>
        <time>2021-11-18T20:42:15.930Z</time>
      </trkpt>
      <trkpt lat="47.636434" lon="8.003854">
        <ele>772.860698</ele>
        <time>2021-11-18T20:42:47.128Z</time>
      </trkpt>
      <trkpt lat="47.636935" lon="8.004032">
        <ele>777.170791</ele>
        <time>2021-11-18T20:43:14.865Z</time>
      </trkpt>
      <trkpt lat="47.637259" lon="8.004315">
        <ele>780.316212</ele>
        <time>2021-11-18T20:43:34.279Z</time>
      </trkpt>
      <trkpt lat="47.637407" lon="8.004524">
        <ele>782.025463</ele>
        <time>2021-11-18T20:43:45.526Z</time>
      </trkpt>
      <trkpt lat="47.637526" lon="8.004738">
        <ele>783.589671</ele>
        <time>2021-11-18T20:43:52.179Z</time>
      </trkpt>
      <trkpt lat="47.637657" lon="8.005187">
        <ele>785.553352</ele>
        <time>2021-11-18T20:44:05.149Z</time>
      </trkpt>
      <trkpt lat="47.637648" lon="8.005623">
        <ele>786.527043</ele>
        <time>2021-11-18T20:44:13.468Z</time>
      </trkpt>
      <trkpt lat="47.637637" lon="8.006163">
        <ele>787.732975</ele>
        <time>2021-11-18T20:44:22.998Z</time>
      </trkpt>
      <trkpt lat="47.637715" lon="8.006379">
        <ele>788.280003</ele>
        <time>2021-11-18T20:44:27.522Z</time>
      </trkpt>
      <trkpt lat="47.637778" lon="8.006443">
        <ele>788.532918</ele>
        <time>2021-11-18T20:44:29.899Z</time>
      </trkpt>
      <trkpt lat="47.637860" lon="8.006468">
        <ele>788.810236</ele>
        <time>2021-11-18T20:44:30.710Z</time>
      </trkpt>
      <trkpt lat="47.638163" lon="8.006295">
        <ele>789.885720</ele>
        <time>2021-11-18T20:44:40.027Z</time>
      </trkpt>
      <trkpt lat="47.638330" lon="8.006072">
        <ele>790.629924</ele>
        <time>2021-11-18T20:44:46.400Z</time>
      </trkpt>
      <trkpt lat="47.638358" lon="8.005969">
        <ele>790.877843</ele>
        <time>2021-11-18T20:44:48.010Z</time>
      </trkpt>
      <trkpt lat="47.638494" lon="8.006004">
        <ele>791.282067</ele>
        <time>2021-11-18T20:44:50.318Z</time>
      </trkpt>
      <trkpt lat="47.638830" lon="8.006018">
        <ele>792.224020</ele>
        <time>2021-11-18T20:44:58.219Z</time>
      </trkpt>
      <trkpt lat="47.639158" lon="8.006154">
        <ele>793.178381</ele>
        <time>2021-11-18T20:45:05.557Z</time>
      </trkpt>
      <trkpt lat="47.639248" lon="8.006245">
        <ele>793.483559</ele>
        <time>2021-11-18T20:45:08.899Z</time>
      </trkpt>
      <trkpt lat="47.639324" lon="8.006323">
        <ele>793.742500</ele>
        <time>2021-11-18T20:45:11.966Z</time>
      </trkpt>
      <trkpt lat="47.639631" lon="8.006838">
        <ele>795.040859</ele>
        <time>2021-11-18T20:45:21.297Z</time>
      </trkpt>
      <trkpt lat="47.639742" lon="8.006994">
        <ele>795.469252</ele>
        <time>2021-11-18T20:45:26.981Z</time>
      </trkpt>
      <trkpt lat="47.639834" lon="8.007071">
        <ele>795.765235</ele>
        <time>2021-11-18T20:45:31.204Z</time>
      </trkpt>
      <trkpt lat="47.640044" lon="8.007144">
        <ele>796.416501</ele>
        <time>2021-11-18T20:45:37.685Z</time>
      </trkpt>
      <trkpt lat="47.640257" lon="8.007048">
        <ele>797.126687</ele>
        <time>2021-11-18T20:45:45.362Z</time>
      </trkpt>
      <trkpt lat="47.640890" lon="8.006404">
        <ele>799.575098</ele>
        <time>2021-11-18T20:46:10.650Z</time>
      </trkpt>
      <trkpt lat="47.641404" lon="8.006152">
        <ele>801.302088</ele>
        <time>2021-11-18T20:46:23.281Z</time>
      </trkpt>
      <trkpt lat="47.641616" lon="8.005980">
        <ele>801.692556</ele>
        <time>2021-11-18T20:46:27.711Z</time>
      </trkpt>
      <trkpt lat="47.641804" lon="8.005576">
        <ele>801.424529</ele>
        <time>2021-11-18T20:46:32.188Z</time>
      </trkpt>
      <trkpt lat="47.641834" lon="8.005484">
        <ele>801.368734</ele>
        <time>2021-11-18T20:46:34.149Z</time>
      </trkpt>
      <trkpt lat="47.641961" lon="8.005163">
        <ele>801.165528</ele>
        <time>2021-11-18T20:46:37.010Z</time>
      </trkpt>
      <trkpt lat="47.642209" lon="8.004861">
        <ele>800.905621</ele>
        <time>2021-11-18T20:46:40.996Z</time>
      </trkpt>
      <trkpt lat="47.642337" lon="8.004796">
        <ele>800.796013</ele>
        <time>2021-11-18T20:46:43.188Z</time>
      </trkpt>
      <trkpt lat="47.642427" lon="8.004770">
        <ele>800.721726</ele>
        <time>2021-11-18T20:46:44.061Z</time>
      </trkpt>
      <trkpt lat="47.642796" lon="8.004845">
        <ele>800.419970</ele>
        <time>2021-11-18T20:46:48.272Z</time>
      </trkpt>
      <trkpt lat="47.643684" lon="8.005510">
        <ele>798.893194</ele>
        <time>2021-11-18T20:46:58.895Z</time>
      </trkpt>
      <trkpt lat="47.643811" lon="8.005674">
        <ele>798.615977</ele>
        <time>2021-11-18T20:47:00.645Z</time>
      </trkpt>
      <trkpt lat="47.643978" lon="8.006145">
        <ele>798.025455</ele>
        <time>2021-11-18T20:47:05.065Z</time>
      </trkpt>
      <trkpt lat="47.644119" lon="8.006394">
        <ele>797.664571</ele>
        <time>2021-11-18T20:47:07.844Z</time>
      </trkpt>
      <trkpt lat="47.644652" lon="8.006827">
        <ele>797.149460</ele>
        <time>2021-11-18T20:47:15.697Z</time>
      </trkpt>
      <trkpt lat="47.644813" lon="8.006998">
        <ele>797.054047</ele>
        <time>2021-11-18T20:47:18.443Z</time>
      </trkpt>
      <trkpt lat="47.645005" lon="8.007361">
        <ele>796.904197</ele>
        <time>2021-11-18T20:47:22.668Z</time>
      </trkpt>
      <trkpt lat="47.645117" lon="8.007610">
        <ele>796.806984</ele>
        <time>2021-11-18T20:47:25.392Z</time>
      </trkpt>
      <trkpt lat="47.645208" lon="8.007812">
        <ele>796.728082</ele>
        <time>2021-11-18T20:47:27.741Z</time>
      </trkpt>
      <trkpt lat="47.645380" lon="8.008349">
        <ele>796.535018</ele>
        <time>2021-11-18T20:47:33.226Z</time>
      </trkpt>
      <trkpt lat="47.645630" lon="8.009847">
        <ele>796.158143</ele>
        <time>2021-11-18T20:47:46.518Z</time>
      </trkpt>
      <trkpt lat="47.645752" lon="8.010251">
        <ele>796.054113</ele>
        <time>2021-11-18T20:47:50.365Z</time>
      </trkpt>
      <trkpt lat="47.645893" lon="8.010578">
        <ele>795.962886</ele>
        <time>2021-11-18T20:47:53.952Z</time>
      </trkpt>
      <trkpt lat="47.646056" lon="8.010808">
        <ele>795.884447</ele>
        <time>2021-11-18T20:47:57.501Z</time>
      </trkpt>
      <trkpt lat="47.646246" lon="8.010992">
        <ele>796.070728</ele>
        <time>2021-11-18T20:48:01.027Z</time>
      </trkpt>
      <trkpt lat="47.646418" lon="8.011132">
        <ele>796.359535</ele>
        <time>2021-11-18T20:48:04.431Z</time>
      </trkpt>
      <trkpt lat="47.646783" lon="8.011351">
        <ele>796.939157</ele>
        <time>2021-11-18T20:48:12.167Z</time>
      </trkpt>
      <trkpt lat="47.647129" lon="8.011490">
        <ele>797.466892</ele>
        <time>2021-11-18T20:48:19.716Z</time>
      </trkpt>
      <trkpt lat="47.647254" lon="8.011528">
        <ele>797.654746</ele>
        <time>2021-11-18T20:48:22.424Z</time>
      </trkpt>
      <trkpt lat="47.647461" lon="8.011563">
        <ele>797.961478</ele>
        <time>2021-11-18T20:48:27.255Z</time>
      </trkpt>
      <trkpt lat="47.647700" lon="8.011578">
        <ele>798.313666</ele>
        <time>2021-11-18T20:48:32.793Z</time>
      </trkpt>
      <trkpt lat="47.647931" lon="8.011553">
        <ele>798.837576</ele>
        <time>2021-11-18T20:48:38.562Z</time>
      </trkpt>
      <trkpt lat="47.648139" lon="8.011511">
        <ele>799.522458</ele>
        <time>2021-11-18T20:48:44.205Z</time>
      </trkpt>
      <trkpt lat="47.648498" lon="8.011376">
        <ele>800.730752</ele>
        <time>2021-11-18T20:48:54.257Z</time>
      </trkpt>
      <trkpt lat="47.648808" lon="8.011136">
        <ele>801.871473</ele>
        <time>2021-11-18T20:49:03.969Z</time>
      </trkpt>
      <trkpt lat="47.650285" lon="8.009248">
        <ele>809.166089</ele>
        <time>2021-11-18T20:50:02.139Z</time>
      </trkpt>
      <trkpt lat="47.650513" lon="8.009097">
        <ele>810.178091</ele>
        <time>2021-11-18T20:50:11.063Z</time>
      </trkpt>
      <trkpt lat="47.651119" lon="8.008974">
        <ele>812.680026</ele>
        <time>2021-11-18T20:50:30.114Z</time>
      </trkpt>
      <trkpt lat="47.651195" lon="8.008934">
        <ele>813.014334</ele>
        <time>2021-11-18T20:50:34.033Z</time>
      </trkpt>
      <trkpt lat="47.651228" lon="8.008918">
        <ele>813.158262</ele>
        <time>2021-11-18T20:50:35.498Z</time>
      </trkpt>
      <trkpt lat="47.651438" lon="8.008748">
        <ele>814.149950</ele>
        <time>2021-11-18T20:50:42.066Z</time>
      </trkpt>
      <trkpt lat="47.651879" lon="8.008189">
        <ele>816.554160</ele>
        <time>2021-11-18T20:51:02.194Z</time>
      </trkpt>
      <trkpt lat="47.652087" lon="8.008133">
        <ele>817.430580</ele>
        <time>2021-11-18T20:51:08.952Z</time>
      </trkpt>
      <trkpt lat="47.652247" lon="8.008164">
        <ele>818.099555</ele>
        <time>2021-11-18T20:51:14.302Z</time>
      </trkpt>
      <trkpt lat="47.652284" lon="8.008111">
        <ele>818.312724</ele>
        <time>2021-11-18T20:51:15.795Z</time>
      </trkpt>
      <trkpt lat="47.652540" lon="8.008064">
        <ele>819.142956</ele>
        <time>2021-11-18T20:51:24.136Z</time>
      </trkpt>
      <trkpt lat="47.653130" lon="8.008132">
        <ele>819.354244</ele>
        <time>2021-11-18T20:51:34.570Z</time>
      </trkpt>
      <trkpt lat="47.653304" lon="8.008178">
        <ele>819.417347</ele>
        <time>2021-11-18T20:51:38.191Z</time>
      </trkpt>
      <trkpt lat="47.653352" lon="8.008195">
        <ele>819.434966</ele>
        <time>2021-11-18T20:51:39.430Z</time>
      </trkpt>
      <trkpt lat="47.653604" lon="8.008244">
        <ele>819.525708</ele>
        <time>2021-11-18T20:51:42.606Z</time>
      </trkpt>
      <trkpt lat="47.653763" lon="8.008266">
        <ele>819.582724</ele>
        <time>2021-11-18T20:51:45.377Z</time>
      </trkpt>
      <trkpt lat="47.653985" lon="8.008295">
        <ele>819.662293</ele>
        <time>2021-11-18T20:51:47.922Z</time>
      </trkpt>
      <trkpt lat="47.654099" lon="8.008291">
        <ele>819.703007</ele>
        <time>2021-11-18T20:51:49.513Z</time>
      </trkpt>
      <trkpt lat="47.654227" lon="8.008287">
        <ele>819.748719</ele>
        <time>2021-11-18T20:51:50.783Z</time>
      </trkpt>
      <trkpt lat="47.655113" lon="8.008121">
        <ele>818.107058</ele>
        <time>2021-11-18T20:52:00.662Z</time>
      </trkpt>
      <trkpt lat="47.656018" lon="8.007672">
        <ele>816.275335</ele>
        <time>2021-11-18T20:52:10.743Z</time>
      </trkpt>
      <trkpt lat="47.656969" lon="8.006897">
        <ele>816.160310</ele>
        <time>2021-11-18T20:52:25.216Z</time>
      </trkpt>
      <trkpt lat="47.657247" lon="8.006589">
        <ele>816.123531</ele>
        <time>2021-11-18T20:52:31.140Z</time>
      </trkpt>
      <trkpt lat="47.657452" lon="8.006244">
        <ele>816.090675</ele>
        <time>2021-11-18T20:52:37.058Z</time>
      </trkpt>
      <trkpt lat="47.657550" lon="8.006001">
        <ele>816.452000</ele>
        <time>2021-11-18T20:52:41.115Z</time>
      </trkpt>
      <trkpt lat="47.657644" lon="8.005702">
        <ele>817.019666</ele>
        <time>2021-11-18T20:52:45.528Z</time>
      </trkpt>
      <trkpt lat="47.657938" lon="8.004946">
        <ele>818.521482</ele>
        <time>2021-11-18T20:52:59.877Z</time>
      </trkpt>
      <trkpt lat="47.658212" lon="8.004456">
        <ele>819.617104</ele>
        <time>2021-11-18T20:53:11.026Z</time>
      </trkpt>
      <trkpt lat="47.658316" lon="8.004309">
        <ele>819.983867</ele>
        <time>2021-11-18T20:53:14.977Z</time>
      </trkpt>
      <trkpt lat="47.658436" lon="8.004140">
        <ele>820.406326</ele>
        <time>2021-11-18T20:53:19.953Z</time>
      </trkpt>
      <trkpt lat="47.658610" lon="8.003919">
        <ele>821.294328</ele>
        <time>2021-11-18T20:53:26.291Z</time>
      </trkpt>
      <trkpt lat="47.658675" lon="8.003837">
        <ele>821.724196</ele>
        <time>2021-11-18T20:53:29.267Z</time>
      </trkpt>
      <trkpt lat="47.659359" lon="8.003076">
        <ele>826.031836</ele>
        <time>2021-11-18T20:53:57.060Z</time>
      </trkpt>
      <trkpt lat="47.660199" lon="8.002305">
        <ele>831.725765</ele>
        <time>2021-11-18T20:54:35.901Z</time>
      </trkpt>
      <trkpt lat="47.660227" lon="8.002301">
        <ele>831.947904</ele>
        <time>2021-11-18T20:54:38.022Z</time>
      </trkpt>
      <trkpt lat="47.660510" lon="8.002253">
        <ele>834.197311</ele>
        <time>2021-11-18T20:54:49.381Z</time>
      </trkpt>
      <trkpt lat="47.661253" lon="8.002344">
        <ele>840.084765</ele>
        <time>2021-11-18T20:55:24.104Z</time>
      </trkpt>
      <trkpt lat="47.661294" lon="8.002339">
        <ele>840.409635</ele>
        <time>2021-11-18T20:55:27.524Z</time>
      </trkpt>
      <trkpt lat="47.661623" lon="8.002299">
        <ele>843.016468</ele>
        <time>2021-11-18T20:55:43.283Z</time>
      </trkpt>
      <trkpt lat="47.661952" lon="8.002284">
        <ele>845.784487</ele>
        <time>2021-11-18T20:56:00.533Z</time>
      </trkpt>
      <trkpt lat="47.662355" lon="8.002366">
        <ele>849.321657</ele>
        <time>2021-11-18T20:56:23.223Z</time>
      </trkpt>
      <trkpt lat="47.663064" lon="8.002715">
        <ele>855.816971</ele>
        <time>2021-11-18T20:57:02.943Z</time>
      </trkpt>
      <trkpt lat="47.663453" lon="8.002889">
        <ele>859.349805</ele>
        <time>2021-11-18T20:57:20.243Z</time>
      </trkpt>
      <trkpt lat="47.663654" lon="8.002978">
        <ele>860.483354</ele>
        <time>2021-11-18T20:57:28.226Z</time>
      </trkpt>
      <trkpt lat="47.663918" lon="8.003042">
        <ele>861.796092</ele>
        <time>2021-11-18T20:57:38.703Z</time>
      </trkpt>
      <trkpt lat="47.664077" lon="8.003034">
        <ele>862.576835</ele>
        <time>2021-11-18T20:57:44.197Z</time>
      </trkpt>
      <trkpt lat="47.664238" lon="8.003002">
        <ele>863.373992</ele>
        <time>2021-11-18T20:57:50.318Z</time>
      </trkpt>
      <trkpt lat="47.664409" lon="8.002922">
        <ele>864.253846</ele>
        <time>2021-11-18T20:57:56.281Z</time>
      </trkpt>
      <trkpt lat="47.664594" lon="8.002791">
        <ele>865.259690</ele>
        <time>2021-11-18T20:58:03.258Z</time>
      </trkpt>
      <trkpt lat="47.664797" lon="8.002579">
        <ele>866.477642</ele>
        <time>2021-11-18T20:58:09.898Z</time>
      </trkpt>
      <trkpt lat="47.664985" lon="8.002314">
        <ele>867.749767</ele>
        <time>2021-11-18T20:58:17.334Z</time>
      </trkpt>
      <trkpt lat="47.665117" lon="8.002107">
        <ele>868.719417</ele>
        <time>2021-11-18T20:58:23.227Z</time>
      </trkpt>
      <trkpt lat="47.665261" lon="8.001970">
        <ele>869.642259</ele>
        <time>2021-11-18T20:58:27.878Z</time>
      </trkpt>
      <trkpt lat="47.665403" lon="8.001876">
        <ele>870.481191</ele>
        <time>2021-11-18T20:58:31.223Z</time>
      </trkpt>
      <trkpt lat="47.665462" lon="8.001836">
        <ele>870.831171</ele>
        <time>2021-11-18T20:58:34.579Z</time>
      </trkpt>
      <trkpt lat="47.665936" lon="8.001647">
        <ele>873.479500</ele>
        <time>2021-11-18T20:58:50.726Z</time>
      </trkpt>
      <trkpt lat="47.666070" lon="8.001527">
        <ele>874.323887</ele>
        <time>2021-11-18T20:58:55.599Z</time>
      </trkpt>
      <trkpt lat="47.666161" lon="8.001366">
        <ele>875.087707</ele>
        <time>2021-11-18T20:59:03.056Z</time>
      </trkpt>
      <trkpt lat="47.666254" lon="8.001206">
        <ele>875.855755</ele>
        <time>2021-11-18T20:59:07.803Z</time>
      </trkpt>
      <trkpt lat="47.666395" lon="8.001047">
        <ele>876.811122</ele>
        <time>2021-11-18T20:59:16.384Z</time>
      </trkpt>
      <trkpt lat="47.666633" lon="8.000913">
        <ele>878.201197</ele>
        <time>2021-11-18T20:59:25.861Z</time>
      </trkpt>
      <trkpt lat="47.666792" lon="8.000879">
        <ele>879.295807</ele>
        <time>2021-11-18T20:59:34.757Z</time>
      </trkpt>
      <trkpt lat="47.666912" lon="8.000877">
        <ele>880.113545</ele>
        <time>2021-11-18T20:59:39.467Z</time>
      </trkpt>
      <trkpt lat="47.667061" lon="8.000864">
        <ele>881.130589</ele>
        <time>2021-11-18T20:59:46.249Z</time>
      </trkpt>
      <trkpt lat="47.667175" lon="8.000840">
        <ele>881.915159</ele>
        <time>2021-11-18T20:59:52.108Z</time>
      </trkpt>
      <trkpt lat="47.667435" lon="8.000710">
        <ele>883.784550</ele>
        <time>2021-11-18T21:00:05.042Z</time>
      </trkpt>
      <trkpt lat="47.668085" lon="8.000349">
        <ele>888.513330</ele>
        <time>2021-11-18T21:00:35.893Z</time>
      </trkpt>
      <trkpt lat="47.668624" lon="7.999953">
        <ele>890.821670</ele>
        <time>2021-11-18T21:00:56.177Z</time>
      </trkpt>
      <trkpt lat="47.669087" lon="7.999573">
        <ele>891.538563</ele>
        <time>2021-11-18T21:01:07.896Z</time>
      </trkpt>
      <trkpt lat="47.669290" lon="7.999340">
        <ele>891.886255</ele>
        <time>2021-11-18T21:01:12.873Z</time>
      </trkpt>
      <trkpt lat="47.669248" lon="7.999094">
        <ele>892.117851</ele>
        <time>2021-11-18T21:01:14.831Z</time>
      </trkpt>
      <trkpt lat="47.669539" lon="7.997243">
        <ele>891.537506</ele>
        <time>2021-11-18T21:01:29.961Z</time>
      </trkpt>
      <trkpt lat="47.669619" lon="7.997017">
        <ele>891.250641</ele>
        <time>2021-11-18T21:01:31.639Z</time>
      </trkpt>
      <trkpt lat="47.669831" lon="7.996589">
        <ele>890.653690</ele>
        <time>2021-11-18T21:01:35.701Z</time>
      </trkpt>
      <trkpt lat="47.670186" lon="7.996072">
        <ele>889.824098</ele>
        <time>2021-11-18T21:01:41.540Z</time>
      </trkpt>
      <trkpt lat="47.670901" lon="7.995447">
        <ele>888.171225</ele>
        <time>2021-11-18T21:01:50.825Z</time>
      </trkpt>
      <trkpt lat="47.670973" lon="7.995384">
        <ele>888.004540</ele>
        <time>2021-11-18T21:01:51.744Z</time>
      </trkpt>
      <trkpt lat="47.671317" lon="7.994957">
        <ele>887.110279</ele>
        <time>2021-11-18T21:01:56.629Z</time>
      </trkpt>
      <trkpt lat="47.671520" lon="7.994659">
        <ele>886.540942</ele>
        <time>2021-11-18T21:01:59.643Z</time>
      </trkpt>
      <trkpt lat="47.671686" lon="7.994411">
        <ele>886.130300</ele>
        <time>2021-11-18T21:02:02.147Z</time>
      </trkpt>
      <trkpt lat="47.671826" lon="7.994135">
        <ele>885.842748</ele>
        <time>2021-11-18T21:02:04.610Z</time>
      </trkpt>
      <trkpt lat="47.672006" lon="7.993755">
        <ele>885.456122</ele>
        <time>2021-11-18T21:02:07.934Z</time>
      </trkpt>
      <trkpt lat="47.672136" lon="7.993593">
        <ele>885.246398</ele>
        <time>2021-11-18T21:02:09.758Z</time>
      </trkpt>
      <trkpt lat="47.672371" lon="7.993368">
        <ele>884.900857</ele>
        <time>2021-11-18T21:02:12.962Z</time>
      </trkpt>
      <trkpt lat="47.672456" lon="7.993266">
        <ele>884.765805</ele>
        <time>2021-11-18T21:02:14.232Z</time>
      </trkpt>
      <trkpt lat="47.672623" lon="7.992419">
        <ele>884.031376</ele>
        <time>2021-11-18T21:02:22.496Z</time>
      </trkpt>
      <trkpt lat="47.672623" lon="7.991767">
        <ele>884.859941</ele>
        <time>2021-11-18T21:02:31.125Z</time>
      </trkpt>
      <trkpt lat="47.672637" lon="7.991141">
        <ele>885.726892</ele>
        <time>2021-11-18T21:02:41.034Z</time>
      </trkpt>
      <trkpt lat="47.672749" lon="7.990628">
        <ele>886.473346</ele>
        <time>2021-11-18T21:02:50.466Z</time>
      </trkpt>
      <trkpt lat="47.672850" lon="7.990405">
        <ele>886.845334</ele>
        <time>2021-11-18T21:02:55.236Z</time>
      </trkpt>
      <trkpt lat="47.673103" lon="7.989804">
        <ele>887.833772</ele>
        <time>2021-11-18T21:03:07.503Z</time>
      </trkpt>
      <trkpt lat="47.673198" lon="7.989408">
        <ele>888.449880</ele>
        <time>2021-11-18T21:03:14.947Z</time>
      </trkpt>
      <trkpt lat="47.673237" lon="7.989155">
        <ele>888.830266</ele>
        <time>2021-11-18T21:03:19.623Z</time>
      </trkpt>
      <trkpt lat="47.673199" lon="7.989078">
        <ele>888.970180</ele>
        <time>2021-11-18T21:03:20.992Z</time>
      </trkpt>
      <trkpt lat="47.672536" lon="7.988775">
        <ele>890.480010</ele>
        <time>2021-11-18T21:03:37.545Z</time>
      </trkpt>
      <trkpt lat="47.672435" lon="7.988752">
        <ele>890.702410</ele>
        <time>2021-11-18T21:03:39.398Z</time>
      </trkpt>
      <trkpt lat="47.672243" lon="7.988749">
        <ele>891.120328</ele>
        <time>2021-11-18T21:03:43.673Z</time>
      </trkpt>
      <trkpt lat="47.671870" lon="7.988726">
        <ele>892.176454</ele>
        <time>2021-11-18T21:03:50.978Z</time>
      </trkpt>
      <trkpt lat="47.671639" lon="7.988659">
        <ele>893.082097</ele>
        <time>2021-11-18T21:03:55.152Z</time>
      </trkpt>
      <trkpt lat="47.671545" lon="7.988609">
        <ele>893.466294</ele>
        <time>2021-11-18T21:03:57.657Z</time>
      </trkpt>
      <trkpt lat="47.671417" lon="7.988508">
        <ele>894.024025</ele>
        <time>2021-11-18T21:04:01.303Z</time>
      </trkpt>
      <trkpt lat="47.670723" lon="7.987851">
        <ele>897.190876</ele>
        <time>2021-11-18T21:04:27.106Z</time>
      </trkpt>
      <trkpt lat="47.670529" lon="7.987437">
        <ele>898.497760</ele>
        <time>2021-11-18T21:04:40.490Z</time>
      </trkpt>
      <trkpt lat="47.670514" lon="7.987325">
        <ele>899.059591</ele>
        <time>2021-11-18T21:04:43.847Z</time>
      </trkpt>
      <trkpt lat="47.670521" lon="7.987149">
        <ele>899.988941</ele>
        <time>2021-11-18T21:04:49.046Z</time>
      </trkpt>
      <trkpt lat="47.670573" lon="7.987026">
        <ele>900.754484</ele>
        <time>2021-11-18T21:04:53.319Z</time>
      </trkpt>
      <trkpt lat="47.670979" lon="7.986658">
        <ele>904.477808</ele>
        <time>2021-11-18T21:05:14.444Z</time>
      </trkpt>
      <trkpt lat="47.671726" lon="7.986142">
        <ele>910.926831</ele>
        <time>2021-11-18T21:05:55.394Z</time>
      </trkpt>
      <trkpt lat="47.672689" lon="7.985529">
        <ele>919.240527</ele>
        <time>2021-11-18T21:06:46.431Z</time>
      </trkpt>
      <trkpt lat="47.672937" lon="7.985161">
        <ele>922.032097</ele>
        <time>2021-11-18T21:07:02.611Z</time>
      </trkpt>
      <trkpt lat="47.673285" lon="7.984646">
        <ele>925.944036</ele>
        <time>2021-11-18T21:07:24.012Z</time>
      </trkpt>
      <trkpt lat="47.673324" lon="7.984569">
        <ele>926.460645</ele>
        <time>2021-11-18T21:07:27.805Z</time>
      </trkpt>
      <trkpt lat="47.673355" lon="7.984478">
        <ele>927.008851</ele>
        <time>2021-11-18T21:07:30.409Z</time>
      </trkpt>
      <trkpt lat="47.673522" lon="7.983927">
        <ele>930.314067</ele>
        <time>2021-11-18T21:07:47.417Z</time>
      </trkpt>
      <trkpt lat="47.673720" lon="7.983091">
        <ele>935.161603</ele>
        <time>2021-11-18T21:08:16.240Z</time>
      </trkpt>
      <trkpt lat="47.674147" lon="7.981783">
        <ele>943.007072</ele>
        <time>2021-11-18T21:09:03.824Z</time>
      </trkpt>
      <trkpt lat="47.674284" lon="7.981512">
        <ele>944.735335</ele>
        <time>2021-11-18T21:09:15.831Z</time>
      </trkpt>
      <trkpt lat="47.674448" lon="7.981189">
        <ele>946.798460</ele>
        <time>2021-11-18T21:09:29.810Z</time>
      </trkpt>
      <trkpt lat="47.674742" lon="7.980836">
        <ele>949.661943</ele>
        <time>2021-11-18T21:09:47.207Z</time>
      </trkpt>
      <trkpt lat="47.675138" lon="7.980563">
        <ele>952.968668</ele>
        <time>2021-11-18T21:10:05.871Z</time>
      </trkpt>
      <trkpt lat="47.675405" lon="7.980359">
        <ele>955.207381</ele>
        <time>2021-11-18T21:10:18.897Z</time>
      </trkpt>
      <trkpt lat="47.675873" lon="7.979993">
        <ele>957.196505</ele>
        <time>2021-11-18T21:10:36.687Z</time>
      </trkpt>
      <trkpt lat="47.676174" lon="7.979579">
        <ele>958.739349</ele>
        <time>2021-11-18T21:10:48.281Z</time>
      </trkpt>
      <trkpt lat="47.676487" lon="7.979027">
        <ele>960.566728</ele>
        <time>2021-11-18T21:11:01.814Z</time>
      </trkpt>
      <trkpt lat="47.676838" lon="7.978406">
        <ele>962.485301</ele>
        <time>2021-11-18T21:11:14.154Z</time>
      </trkpt>
      <trkpt lat="47.677026" lon="7.977911">
        <ele>963.641066</ele>
        <time>2021-11-18T21:11:22.883Z</time>
      </trkpt>
      <trkpt lat="47.677066" lon="7.977594">
        <ele>964.296955</ele>
        <time>2021-11-18T21:11:29.169Z</time>
      </trkpt>
      <trkpt lat="47.677078" lon="7.977246">
        <ele>965.005592</ele>
        <time>2021-11-18T21:11:35.944Z</time>
      </trkpt>
      <trkpt lat="47.676968" lon="7.976323">
        <ele>966.911826</ele>
        <time>2021-11-18T21:11:54.016Z</time>
      </trkpt>
      <trkpt lat="47.676950" lon="7.975747">
        <ele>968.110352</ele>
        <time>2021-11-18T21:12:04.912Z</time>
      </trkpt>
      <trkpt lat="47.676950" lon="7.975239">
        <ele>969.180828</ele>
        <time>2021-11-18T21:12:14.695Z</time>
      </trkpt>
      <trkpt lat="47.676873" lon="7.974926">
        <ele>969.883040</ele>
        <time>2021-11-18T21:12:20.801Z</time>
      </trkpt>
      <trkpt lat="47.676814" lon="7.974718">
        <ele>970.358653</ele>
        <time>2021-11-18T21:12:25.343Z</time>
      </trkpt>
      <trkpt lat="47.676281" lon="7.973851">
        <ele>972.832616</ele>
        <time>2021-11-18T21:12:47.353Z</time>
      </trkpt>
      <trkpt lat="47.675979" lon="7.973418">
        <ele>973.535788</ele>
        <time>2021-11-18T21:12:57.209Z</time>
      </trkpt>
      <trkpt lat="47.675610" lon="7.972964">
        <ele>974.237860</ele>
        <time>2021-11-18T21:13:06.542Z</time>
      </trkpt>
      <trkpt lat="47.675086" lon="7.972386">
        <ele>975.194205</ele>
        <time>2021-11-18T21:13:19.312Z</time>
      </trkpt>
      <trkpt lat="47.674347" lon="7.971883">
        <ele>975.917520</ele>
        <time>2021-11-18T21:13:34.736Z</time>
      </trkpt>
      <trkpt lat="47.673254" lon="7.971122">
        <ele>976.585493</ele>
        <time>2021-11-18T21:13:52.658Z</time>
      </trkpt>
      <trkpt lat="47.673109" lon="7.971026">
        <ele>976.795692</ele>
        <time>2021-11-18T21:13:55.694Z</time>
      </trkpt>
      <trkpt lat="47.672176" lon="7.970439">
        <ele>978.901347</ele>
        <time>2021-11-18T21:14:17.067Z</time>
      </trkpt>
      <trkpt lat="47.671650" lon="7.970032">
        <ele>980.133885</ele>
        <time>2021-11-18T21:14:33.415Z</time>
      </trkpt>
      <trkpt lat="47.671398" lon="7.969882">
        <ele>980.997436</ele>
        <time>2021-11-18T21:14:40.922Z</time>
      </trkpt>
      <trkpt lat="47.671067" lon="7.969787">
        <ele>982.330853</ele>
        <time>2021-11-18T21:14:50.714Z</time>
      </trkpt>
      <trkpt lat="47.670622" lon="7.969776">
        <ele>984.091187</ele>
        <time>2021-11-18T21:15:04.596Z</time>
      </trkpt>
      <trkpt lat="47.670396" lon="7.969757">
        <ele>984.986507</ele>
        <time>2021-11-18T21:15:11.940Z</time>
      </trkpt>
      <trkpt lat="47.669908" lon="7.969698">
        <ele>986.923059</ele>
        <time>2021-11-18T21:15:26.936Z</time>
      </trkpt>
      <trkpt lat="47.669518" lon="7.969476">
        <ele>988.893441</ele>
        <time>2021-11-18T21:15:40.469Z</time>
      </trkpt>
      <trkpt lat="47.669206" lon="7.969188">
        <ele>990.769217</ele>
        <time>2021-11-18T21:15:53.751Z</time>
      </trkpt>
      <trkpt lat="47.668412" lon="7.968654">
        <ele>995.219815</ele>
        <time>2021-11-18T21:17:20.611Z</time>
      </trkpt>
      <trkpt lat="47.668201" lon="7.968540">
        <ele>996.366281</ele>
        <time>2021-11-18T21:17:43.572Z</time>
      </trkpt>
      <trkpt lat="47.667792" lon="7.968449">
        <ele>998.902715</ele>
        <time>2021-11-18T21:18:26.313Z</time>
      </trkpt>
      <trkpt lat="47.667536" lon="7.968447">
        <ele>1000.516072</ele>
        <time>2021-11-18T21:18:53.025Z</time>
      </trkpt>
      <trkpt lat="47.667374" lon="7.968513">
        <ele>1001.574739</ele>
        <time>2021-11-18T21:19:10.592Z</time>
      </trkpt>
      <trkpt lat="47.666498" lon="7.969286">
        <ele>1007.996589</ele>
        <time>2021-11-18T21:20:59.168Z</time>
      </trkpt>
      <trkpt lat="47.665800" lon="7.969529">
        <ele>1011.943877</ele>
        <time>2021-11-18T21:22:13.046Z</time>
      </trkpt>
      <trkpt lat="47.665156" lon="7.969527">
        <ele>1015.489273</ele>
        <time>2021-11-18T21:23:19.833Z</time>
      </trkpt>
      <trkpt lat="47.665113" lon="7.969507">
        <ele>1015.737342</ele>
        <time>2021-11-18T21:23:24.843Z</time>
      </trkpt>
      <trkpt lat="47.664565" lon="7.969261">
        <ele>1018.090551</ele>
        <time>2021-11-18T21:24:19.940Z</time>
      </trkpt>
      <trkpt lat="47.664141" lon="7.969002">
        <ele>1018.572948</ele>
        <time>2021-11-18T21:25:02.341Z</time>
      </trkpt>
      <trkpt lat="47.662287" lon="7.967971">
        <ele>1019.386877</ele>
        <time>2021-11-18T21:25:28.060Z</time>
      </trkpt>
      <trkpt lat="47.661887" lon="7.967890">
        <ele>1019.186001</ele>
        <time>2021-11-18T21:25:32.632Z</time>
      </trkpt>
      <trkpt lat="47.661792" lon="7.967846">
        <ele>1019.136484</ele>
        <time>2021-11-18T21:25:34.264Z</time>
      </trkpt>
      <trkpt lat="47.661761" lon="7.967552">
        <ele>1019.036756</ele>
        <time>2021-11-18T21:25:38.417Z</time>
      </trkpt>
      <trkpt lat="47.661796" lon="7.966756">
        <ele>1019.698265</ele>
        <time>2021-11-18T21:25:50.186Z</time>
      </trkpt>
      <trkpt lat="47.661902" lon="7.966267">
        <ele>1020.756593</ele>
        <time>2021-11-18T21:25:59.436Z</time>
      </trkpt>
      <trkpt lat="47.662040" lon="7.965667">
        <ele>1022.062797</ele>
        <time>2021-11-18T21:26:13.221Z</time>
      </trkpt>
      <trkpt lat="47.662075" lon="7.965295">
        <ele>1022.836628</ele>
        <time>2021-11-18T21:26:24.106Z</time>
      </trkpt>
      <trkpt lat="47.662051" lon="7.964871">
        <ele>1023.713225</ele>
        <time>2021-11-18T21:26:35.336Z</time>
      </trkpt>
      <trkpt lat="47.661756" lon="7.963432">
        <ele>1027.112751</ele>
        <time>2021-11-18T21:27:14.893Z</time>
      </trkpt>
      <trkpt lat="47.661644" lon="7.963262">
        <ele>1027.663779</ele>
        <time>2021-11-18T21:27:21.629Z</time>
      </trkpt>
      <trkpt lat="47.661650" lon="7.962912">
        <ele>1028.475025</ele>
        <time>2021-11-18T21:27:49.675Z</time>
      </trkpt>
      <trkpt lat="47.661588" lon="7.962112">
        <ele>1030.340933</ele>
        <time>2021-11-18T21:28:55.742Z</time>
      </trkpt>
      <trkpt lat="47.661308" lon="7.960910">
        <ele>1029.850136</ele>
        <time>2021-11-18T21:30:33.585Z</time>
      </trkpt>
      <trkpt lat="47.660846" lon="7.958931">
        <ele>1027.126429</ele>
        <time>2021-11-18T21:32:58.541Z</time>
      </trkpt>
      <trkpt lat="47.660671" lon="7.958058">
        <ele>1024.390601</ele>
        <time>2021-11-18T21:33:59.428Z</time>
      </trkpt>
      <trkpt lat="47.660751" lon="7.957902">
        <ele>1023.801674</ele>
        <time>2021-11-18T21:34:11.561Z</time>
      </trkpt>
      <trkpt lat="47.661015" lon="7.957195">
        <ele>1021.373595</ele>
        <time>2021-11-18T21:35:03.955Z</time>
      </trkpt>
      <trkpt lat="47.661342" lon="7.956300">
        <ele>1016.055135</ele>
        <time>2021-11-18T21:36:08.130Z</time>
      </trkpt>
      <trkpt lat="47.661415" lon="7.955835">
        <ele>1013.353934</ele>
        <time>2021-11-18T21:36:37.403Z</time>
      </trkpt>
      <trkpt lat="47.661061" lon="7.954036">
        <ele>1000.982666</ele>
        <time>2021-11-18T21:38:29.275Z</time>
      </trkpt>
      <trkpt lat="47.660802" lon="7.953541">
        <ele>995.356353</ele>
        <time>2021-11-18T21:39:05.729Z</time>
      </trkpt>
      <trkpt lat="47.660620" lon="7.953158">
        <ele>991.149016</ele>
        <time>2021-11-18T21:39:08.351Z</time>
      </trkpt>
      <trkpt lat="47.660508" lon="7.952786">
        <ele>987.491501</ele>
        <time>2021-11-18T21:39:10.616Z</time>
      </trkpt>
      <trkpt lat="47.660486" lon="7.952512">
        <ele>985.014650</ele>
        <time>2021-11-18T21:39:12.193Z</time>
      </trkpt>
      <trkpt lat="47.660489" lon="7.952462">
        <ele>984.564071</ele>
        <time>2021-11-18T21:39:12.475Z</time>
      </trkpt>
      <trkpt lat="47.660499" lon="7.952275">
        <ele>982.880268</ele>
        <time>2021-11-18T21:39:13.512Z</time>
      </trkpt>
      <trkpt lat="47.660593" lon="7.951494">
        <ele>976.497409</ele>
        <time>2021-11-18T21:39:17.983Z</time>
      </trkpt>
      <trkpt lat="47.660631" lon="7.951207">
        <ele>974.193214</ele>
        <time>2021-11-18T21:39:19.606Z</time>
      </trkpt>
      <trkpt lat="47.660619" lon="7.950950">
        <ele>972.163767</ele>
        <time>2021-11-18T21:39:21.151Z</time>
      </trkpt>
      <trkpt lat="47.660429" lon="7.950487">
        <ele>967.892662</ele>
        <time>2021-11-18T21:39:24.255Z</time>
      </trkpt>
      <trkpt lat="47.660367" lon="7.950409">
        <ele>966.942159</ele>
        <time>2021-11-18T21:39:24.920Z</time>
      </trkpt>
      <trkpt lat="47.660238" lon="7.950247">
        <ele>964.965978</ele>
        <time>2021-11-18T21:39:26.380Z</time>
      </trkpt>
      <trkpt lat="47.660004" lon="7.950556">
        <ele>961.303117</ele>
        <time>2021-11-18T21:39:29.172Z</time>
      </trkpt>
      <trkpt lat="47.659673" lon="7.950850">
        <ele>959.860355</ele>
        <time>2021-11-18T21:39:32.617Z</time>
      </trkpt>
      <trkpt lat="47.659356" lon="7.950988">
        <ele>958.986751</ele>
        <time>2021-11-18T21:39:35.718Z</time>
      </trkpt>
      <trkpt lat="47.658692" lon="7.950845">
        <ele>957.212416</ele>
        <time>2021-11-18T21:39:43.472Z</time>
      </trkpt>
      <trkpt lat="47.658212" lon="7.950741">
        <ele>956.074260</ele>
        <time>2021-11-18T21:39:54.970Z</time>
      </trkpt>
      <trkpt lat="47.658137" lon="7.950769">
        <ele>956.288054</ele>
        <time>2021-11-18T21:39:55.658Z</time>
      </trkpt>
      <trkpt lat="47.658067" lon="7.950840">
        <ele>956.522419</ele>
        <time>2021-11-18T21:39:58.595Z</time>
      </trkpt>
      <trkpt lat="47.658012" lon="7.951101">
        <ele>957.031647</ele>
        <time>2021-11-18T21:40:04.705Z</time>
      </trkpt>
      <trkpt lat="47.657992" lon="7.951882">
        <ele>958.486966</ele>
        <time>2021-11-18T21:40:15.988Z</time>
      </trkpt>
      <trkpt lat="47.657983" lon="7.952053">
        <ele>958.806349</ele>
        <time>2021-11-18T21:40:20.551Z</time>
      </trkpt>
      <trkpt lat="47.657976" lon="7.952208">
        <ele>959.095617</ele>
        <time>2021-11-18T21:40:23.706Z</time>
      </trkpt>
      <trkpt lat="47.657919" lon="7.952378">
        <ele>959.449220</ele>
        <time>2021-11-18T21:40:25.444Z</time>
      </trkpt>
      <trkpt lat="47.657770" lon="7.952518">
        <ele>959.936695</ele>
        <time>2021-11-18T21:40:32.453Z</time>
      </trkpt>
      <trkpt lat="47.657537" lon="7.952516">
        <ele>960.580841</ele>
        <time>2021-11-18T21:40:38.147Z</time>
      </trkpt>
      <trkpt lat="47.656896" lon="7.952362">
        <ele>961.712777</ele>
        <time>2021-11-18T21:40:59.034Z</time>
      </trkpt>
      <trkpt lat="47.656213" lon="7.951998">
        <ele>962.770802</ele>
        <time>2021-11-18T21:41:15.210Z</time>
      </trkpt>
      <trkpt lat="47.655988" lon="7.951976">
        <ele>963.099560</ele>
        <time>2021-11-18T21:41:18.551Z</time>
      </trkpt>
      <trkpt lat="47.655464" lon="7.952041">
        <ele>962.818482</ele>
        <time>2021-11-18T21:41:24.687Z</time>
      </trkpt>
      <trkpt lat="47.655142" lon="7.952105">
        <ele>961.461448</ele>
        <time>2021-11-18T21:41:28.145Z</time>
      </trkpt>
      <trkpt lat="47.654437" lon="7.952107">
        <ele>958.516571</ele>
        <time>2021-11-18T21:41:34.886Z</time>
      </trkpt>
      <trkpt lat="47.654162" lon="7.952098">
        <ele>957.367583</ele>
        <time>2021-11-18T21:41:37.471Z</time>
      </trkpt>
      <trkpt lat="47.654002" lon="7.952148">
        <ele>956.684596</ele>
        <time>2021-11-18T21:41:38.992Z</time>
      </trkpt>
      <trkpt lat="47.653838" lon="7.952265">
        <ele>955.750787</ele>
        <time>2021-11-18T21:41:40.641Z</time>
      </trkpt>
      <trkpt lat="47.653658" lon="7.952530">
        <ele>953.523021</ele>
        <time>2021-11-18T21:41:42.947Z</time>
      </trkpt>
      <trkpt lat="47.653621" lon="7.952638">
        <ele>952.805769</ele>
        <time>2021-11-18T21:41:43.658Z</time>
      </trkpt>
      <trkpt lat="47.653534" lon="7.952964">
        <ele>950.730044</ele>
        <time>2021-11-18T21:41:45.757Z</time>
      </trkpt>
      <trkpt lat="47.653397" lon="7.953519">
        <ele>947.231004</ele>
        <time>2021-11-18T21:41:49.196Z</time>
      </trkpt>
      <trkpt lat="47.653232" lon="7.953921">
        <ele>944.444348</ele>
        <time>2021-11-18T21:41:51.908Z</time>
      </trkpt>
      <trkpt lat="47.653150" lon="7.954055">
        <ele>943.372670</ele>
        <time>2021-11-18T21:41:52.967Z</time>
      </trkpt>
      <trkpt lat="47.653010" lon="7.954195">
        <ele>941.889269</ele>
        <time>2021-11-18T21:41:54.401Z</time>
      </trkpt>
      <trkpt lat="47.652759" lon="7.954322">
        <ele>939.472317</ele>
        <time>2021-11-18T21:41:56.719Z</time>
      </trkpt>
      <trkpt lat="47.652456" lon="7.954367">
        <ele>936.473019</ele>
        <time>2021-11-18T21:41:59.377Z</time>
      </trkpt>
      <trkpt lat="47.652316" lon="7.954403">
        <ele>935.073555</ele>
        <time>2021-11-18T21:42:00.581Z</time>
      </trkpt>
      <trkpt lat="47.651722" lon="7.954620">
        <ele>929.048395</ele>
        <time>2021-11-18T21:42:05.857Z</time>
      </trkpt>
      <trkpt lat="47.651448" lon="7.954944">
        <ele>925.598077</ele>
        <time>2021-11-18T21:42:08.850Z</time>
      </trkpt>
      <trkpt lat="47.651422" lon="7.955139">
        <ele>924.279150</ele>
        <time>2021-11-18T21:42:09.981Z</time>
      </trkpt>
      <trkpt lat="47.651511" lon="7.956139">
        <ele>918.855972</ele>
        <time>2021-11-18T21:42:15.925Z</time>
      </trkpt>
      <trkpt lat="47.651516" lon="7.956396">
        <ele>917.585499</ele>
        <time>2021-11-18T21:42:17.463Z</time>
      </trkpt>
      <trkpt lat="47.651292" lon="7.956406">
        <ele>915.941624</ele>
        <time>2021-11-18T21:42:19.486Z</time>
      </trkpt>
      <trkpt lat="47.651095" lon="7.956386">
        <ele>914.493172</ele>
        <time>2021-11-18T21:42:21.272Z</time>
      </trkpt>
      <trkpt lat="47.650842" lon="7.956246">
        <ele>912.512564</ele>
        <time>2021-11-18T21:42:23.723Z</time>
      </trkpt>
      <trkpt lat="47.650655" lon="7.955948">
        <ele>910.500088</ele>
        <time>2021-11-18T21:42:26.251Z</time>
      </trkpt>
      <trkpt lat="47.650609" lon="7.955764">
        <ele>909.530259</ele>
        <time>2021-11-18T21:42:27.444Z</time>
      </trkpt>
      <trkpt lat="47.650592" lon="7.955306">
        <ele>907.855194</ele>
        <time>2021-11-18T21:42:30.265Z</time>
      </trkpt>
      <trkpt lat="47.650715" lon="7.954086">
        <ele>903.474519</ele>
        <time>2021-11-18T21:42:38.141Z</time>
      </trkpt>
      <trkpt lat="47.650679" lon="7.953702">
        <ele>902.097731</ele>
        <time>2021-11-18T21:42:40.775Z</time>
      </trkpt>
      <trkpt lat="47.650657" lon="7.953661">
        <ele>901.911589</ele>
        <time>2021-11-18T21:42:41.089Z</time>
      </trkpt>
      <trkpt lat="47.650633" lon="7.953615">
        <ele>901.704971</ele>
        <time>2021-11-18T21:42:41.426Z</time>
      </trkpt>
      <trkpt lat="47.650482" lon="7.953573">
        <ele>900.895117</ele>
        <time>2021-11-18T21:42:42.922Z</time>
      </trkpt>
      <trkpt lat="47.650345" lon="7.953699">
        <ele>900.045538</ele>
        <time>2021-11-18T21:42:44.488Z</time>
      </trkpt>
      <trkpt lat="47.650118" lon="7.954645">
        <ele>895.809830</ele>
        <time>2021-11-18T21:42:50.596Z</time>
      </trkpt>
      <trkpt lat="47.650002" lon="7.954933">
        <ele>894.383929</ele>
        <time>2021-11-18T21:42:52.629Z</time>
      </trkpt>
      <trkpt lat="47.649724" lon="7.955623">
        <ele>890.967427</ele>
        <time>2021-11-18T21:42:57.525Z</time>
      </trkpt>
      <trkpt lat="47.649631" lon="7.955853">
        <ele>889.827509</ele>
        <time>2021-11-18T21:42:59.211Z</time>
      </trkpt>
      <trkpt lat="47.649584" lon="7.955970">
        <ele>889.248637</ele>
        <time>2021-11-18T21:43:00.028Z</time>
      </trkpt>
      <trkpt lat="47.649402" lon="7.956302">
        <ele>887.407023</ele>
        <time>2021-11-18T21:43:02.726Z</time>
      </trkpt>
      <trkpt lat="47.649197" lon="7.956371">
        <ele>886.053920</ele>
        <time>2021-11-18T21:43:04.646Z</time>
      </trkpt>
      <trkpt lat="47.648999" lon="7.956144">
        <ele>884.443494</ele>
        <time>2021-11-18T21:43:06.873Z</time>
      </trkpt>
      <trkpt lat="47.648843" lon="7.955710">
        <ele>882.310314</ele>
        <time>2021-11-18T21:43:09.860Z</time>
      </trkpt>
      <trkpt lat="47.648779" lon="7.955603">
        <ele>881.689811</ele>
        <time>2021-11-18T21:43:10.761Z</time>
      </trkpt>
      <trkpt lat="47.648720" lon="7.955532">
        <ele>881.200896</ele>
        <time>2021-11-18T21:43:11.457Z</time>
      </trkpt>
      <trkpt lat="47.648456" lon="7.955339">
        <ele>879.306583</ele>
        <time>2021-11-18T21:43:14.112Z</time>
      </trkpt>
      <trkpt lat="47.648185" lon="7.955328">
        <ele>877.561477</ele>
        <time>2021-11-18T21:43:16.637Z</time>
      </trkpt>
      <trkpt lat="47.648068" lon="7.955382">
        <ele>876.756260</ele>
        <time>2021-11-18T21:43:17.769Z</time>
      </trkpt>
      <trkpt lat="47.647946" lon="7.955473">
        <ele>875.800146</ele>
        <time>2021-11-18T21:43:18.995Z</time>
      </trkpt>
      <trkpt lat="47.646613" lon="7.957202">
        <ele>863.484495</ele>
        <time>2021-11-18T21:43:34.844Z</time>
      </trkpt>
      <trkpt lat="47.646155" lon="7.957498">
        <ele>860.279369</ele>
        <time>2021-11-18T21:43:39.331Z</time>
      </trkpt>
      <trkpt lat="47.645747" lon="7.957554">
        <ele>857.650361</ele>
        <time>2021-11-18T21:43:43.061Z</time>
      </trkpt>
      <trkpt lat="47.645406" lon="7.957496">
        <ele>855.448093</ele>
        <time>2021-11-18T21:43:46.201Z</time>
      </trkpt>
      <trkpt lat="47.644164" lon="7.956750">
        <ele>847.779406</ele>
        <time>2021-11-18T21:43:58.569Z</time>
      </trkpt>
      <trkpt lat="47.643910" lon="7.956673">
        <ele>846.374458</ele>
        <time>2021-11-18T21:44:01.061Z</time>
      </trkpt>
      <trkpt lat="47.643852" lon="7.956655">
        <ele>846.053335</ele>
        <time>2021-11-18T21:44:01.587Z</time>
      </trkpt>
      <trkpt lat="47.643476" lon="7.956624">
        <ele>844.012496</ele>
        <time>2021-11-18T21:44:05.153Z</time>
      </trkpt>
      <trkpt lat="47.642688" lon="7.956755">
        <ele>840.400372</ele>
        <time>2021-11-18T21:44:12.596Z</time>
      </trkpt>
      <trkpt lat="47.642280" lon="7.956756">
        <ele>838.639805</ele>
        <time>2021-11-18T21:44:16.416Z</time>
      </trkpt>
      <trkpt lat="47.641799" lon="7.956605">
        <ele>836.518318</ele>
        <time>2021-11-18T21:44:21.233Z</time>
      </trkpt>
      <trkpt lat="47.641512" lon="7.956418">
        <ele>835.315411</ele>
        <time>2021-11-18T21:44:24.408Z</time>
      </trkpt>
      <trkpt lat="47.641056" lon="7.956097">
        <ele>835.306929</ele>
        <time>2021-11-18T21:44:29.867Z</time>
      </trkpt>
      <trkpt lat="47.640501" lon="7.955695">
        <ele>835.296550</ele>
        <time>2021-11-18T21:44:39.943Z</time>
      </trkpt>
      <trkpt lat="47.640167" lon="7.955381">
        <ele>835.289905</ele>
        <time>2021-11-18T21:44:47.799Z</time>
      </trkpt>
      <trkpt lat="47.639795" lon="7.954985">
        <ele>835.961387</ele>
        <time>2021-11-18T21:44:58.458Z</time>
      </trkpt>
      <trkpt lat="47.639696" lon="7.954882">
        <ele>836.347440</ele>
        <time>2021-11-18T21:45:02.058Z</time>
      </trkpt>
      <trkpt lat="47.639497" lon="7.954714">
        <ele>837.078476</ele>
        <time>2021-11-18T21:45:08.318Z</time>
      </trkpt>
      <trkpt lat="47.639207" lon="7.954547">
        <ele>838.071738</ele>
        <time>2021-11-18T21:45:17.251Z</time>
      </trkpt>
      <trkpt lat="47.638760" lon="7.954525">
        <ele>839.499838</ele>
        <time>2021-11-18T21:45:30.186Z</time>
      </trkpt>
      <trkpt lat="47.637932" lon="7.954791">
        <ele>842.625928</ele>
        <time>2021-11-18T21:45:55.248Z</time>
      </trkpt>
      <trkpt lat="47.637714" lon="7.954725">
        <ele>843.590685</ele>
        <time>2021-11-18T21:46:01.551Z</time>
      </trkpt>
      <trkpt lat="47.637492" lon="7.954483">
        <ele>844.785095</ele>
        <time>2021-11-18T21:46:09.443Z</time>
      </trkpt>
      <trkpt lat="47.637430" lon="7.954209">
        <ele>845.629604</ele>
        <time>2021-11-18T21:46:15.235Z</time>
      </trkpt>
      <trkpt lat="47.637400" lon="7.954079">
        <ele>846.031097</ele>
        <time>2021-11-18T21:46:18.194Z</time>
      </trkpt>
      <trkpt lat="47.637300" lon="7.951504">
        <ele>854.537695</ele>
        <time>2021-11-18T21:47:22.587Z</time>
      </trkpt>
      <trkpt lat="47.637306" lon="7.951326">
        <ele>855.165064</ele>
        <time>2021-11-18T21:47:27.869Z</time>
      </trkpt>
      <trkpt lat="47.637337" lon="7.951149">
        <ele>855.808832</ele>
        <time>2021-11-18T21:47:32.009Z</time>
      </trkpt>
      <trkpt lat="47.637383" lon="7.950993">
        <ele>856.408253</ele>
        <time>2021-11-18T21:47:35.292Z</time>
      </trkpt>
      <trkpt lat="47.637451" lon="7.950859">
        <ele>856.998758</ele>
        <time>2021-11-18T21:47:39.980Z</time>
      </trkpt>
      <trkpt lat="47.637598" lon="7.950642">
        <ele>858.081921</ele>
        <time>2021-11-18T21:47:46.265Z</time>
      </trkpt>
      <trkpt lat="47.637813" lon="7.950431">
        <ele>858.765023</ele>
        <time>2021-11-18T21:47:54.938Z</time>
      </trkpt>
      <trkpt lat="47.638433" lon="7.949786">
        <ele>860.540579</ele>
        <time>2021-11-18T21:48:16.275Z</time>
      </trkpt>
      <trkpt lat="47.638845" lon="7.949151">
        <ele>861.933485</ele>
        <time>2021-11-18T21:48:27.962Z</time>
      </trkpt>
      <trkpt lat="47.639038" lon="7.948758">
        <ele>862.322802</ele>
        <time>2021-11-18T21:48:32.856Z</time>
      </trkpt>
      <trkpt lat="47.639170" lon="7.948455">
        <ele>862.059660</ele>
        <time>2021-11-18T21:48:36.120Z</time>
      </trkpt>
      <trkpt lat="47.639254" lon="7.948202">
        <ele>861.853964</ele>
        <time>2021-11-18T21:48:38.670Z</time>
      </trkpt>
      <trkpt lat="47.639305" lon="7.947792">
        <ele>861.549899</ele>
        <time>2021-11-18T21:48:41.992Z</time>
      </trkpt>
      <trkpt lat="47.639245" lon="7.947417">
        <ele>861.268808</ele>
        <time>2021-11-18T21:48:44.946Z</time>
      </trkpt>
      <trkpt lat="47.639171" lon="7.947230">
        <ele>861.110649</ele>
        <time>2021-11-18T21:48:46.794Z</time>
      </trkpt>
      <trkpt lat="47.639079" lon="7.947097">
        <ele>860.971637</ele>
        <time>2021-11-18T21:48:48.055Z</time>
      </trkpt>
      <trkpt lat="47.638801" lon="7.946735">
        <ele>860.571337</ele>
        <time>2021-11-18T21:48:52.148Z</time>
      </trkpt>
      <trkpt lat="47.638633" lon="7.946522">
        <ele>860.326067</ele>
        <time>2021-11-18T21:48:54.895Z</time>
      </trkpt>
      <trkpt lat="47.638601" lon="7.946470">
        <ele>860.272788</ele>
        <time>2021-11-18T21:48:55.450Z</time>
      </trkpt>
      <trkpt lat="47.638490" lon="7.946296">
        <ele>860.091505</ele>
        <time>2021-11-18T21:48:57.116Z</time>
      </trkpt>
      <trkpt lat="47.638187" lon="7.945494">
        <ele>859.395866</ele>
        <time>2021-11-18T21:49:04.625Z</time>
      </trkpt>
      <trkpt lat="47.638180" lon="7.945471">
        <ele>859.376772</ele>
        <time>2021-11-18T21:49:04.767Z</time>
      </trkpt>
      <trkpt lat="47.638087" lon="7.945165">
        <ele>859.122800</ele>
        <time>2021-11-18T21:49:07.725Z</time>
      </trkpt>
      <trkpt lat="47.637977" lon="7.944887">
        <ele>858.878890</ele>
        <time>2021-11-18T21:49:10.191Z</time>
      </trkpt>
      <trkpt lat="47.637846" lon="7.944700">
        <ele>858.674801</ele>
        <time>2021-11-18T21:49:12.900Z</time>
      </trkpt>
      <trkpt lat="47.637690" lon="7.944520">
        <ele>858.477326</ele>
        <time>2021-11-18T21:49:15.436Z</time>
      </trkpt>
      <trkpt lat="47.637583" lon="7.944404">
        <ele>858.484806</ele>
        <time>2021-11-18T21:49:17.618Z</time>
      </trkpt>
      <trkpt lat="47.637442" lon="7.944256">
        <ele>858.494556</ele>
        <time>2021-11-18T21:49:20.178Z</time>
      </trkpt>
      <trkpt lat="47.637316" lon="7.944402">
        <ele>858.503581</ele>
        <time>2021-11-18T21:49:23.017Z</time>
      </trkpt>
      <trkpt lat="47.636926" lon="7.944520">
        <ele>858.526051</ele>
        <time>2021-11-18T21:49:29.317Z</time>
      </trkpt>
      <trkpt lat="47.636517" lon="7.944381">
        <ele>858.549738</ele>
        <time>2021-11-18T21:49:36.120Z</time>
      </trkpt>
      <trkpt lat="47.636440" lon="7.944352">
        <ele>858.554223</ele>
        <time>2021-11-18T21:49:37.573Z</time>
      </trkpt>
      <trkpt lat="47.636341" lon="7.944314">
        <ele>858.559996</ele>
        <time>2021-11-18T21:49:39.324Z</time>
      </trkpt>
      <trkpt lat="47.636224" lon="7.944307">
        <ele>858.566606</ele>
        <time>2021-11-18T21:49:40.811Z</time>
      </trkpt>
      <trkpt lat="47.636029" lon="7.944437">
        <ele>858.574394</ele>
        <time>2021-11-18T21:49:44.047Z</time>
      </trkpt>
      <trkpt lat="47.635520" lon="7.945990">
        <ele>858.351970</ele>
        <time>2021-11-18T21:49:59.656Z</time>
      </trkpt>
      <trkpt lat="47.635305" lon="7.946397">
        <ele>858.285362</ele>
        <time>2021-11-18T21:50:04.164Z</time>
      </trkpt>
      <trkpt lat="47.634967" lon="7.946762">
        <ele>858.586591</ele>
        <time>2021-11-18T21:50:09.822Z</time>
      </trkpt>
      <trkpt lat="47.634741" lon="7.946805">
        <ele>859.126474</ele>
        <time>2021-11-18T21:50:14.557Z</time>
      </trkpt>
      <trkpt lat="47.634598" lon="7.946753">
        <ele>859.475332</ele>
        <time>2021-11-18T21:50:17.750Z</time>
      </trkpt>
      <trkpt lat="47.634437" lon="7.946594">
        <ele>859.933570</ele>
        <time>2021-11-18T21:50:22.808Z</time>
      </trkpt>
      <trkpt lat="47.634304" lon="7.946352">
        <ele>860.432185</ele>
        <time>2021-11-18T21:50:27.920Z</time>
      </trkpt>
      <trkpt lat="47.633987" lon="7.945419">
        <ele>862.100551</ele>
        <time>2021-11-18T21:50:47.932Z</time>
      </trkpt>
      <trkpt lat="47.633902" lon="7.945296">
        <ele>862.381860</ele>
        <time>2021-11-18T21:50:50.989Z</time>
      </trkpt>
      <trkpt lat="47.633818" lon="7.945221">
        <ele>862.645872</ele>
        <time>2021-11-18T21:50:55.341Z</time>
      </trkpt>
      <trkpt lat="47.633720" lon="7.945173">
        <ele>862.955928</ele>
        <time>2021-11-18T21:50:57.725Z</time>
      </trkpt>
      <trkpt lat="47.633664" lon="7.945157">
        <ele>863.127266</ele>
        <time>2021-11-18T21:50:58.894Z</time>
      </trkpt>
      <trkpt lat="47.633591" lon="7.945179">
        <ele>863.351066</ele>
        <time>2021-11-18T21:51:00.850Z</time>
      </trkpt>
      <trkpt lat="47.633498" lon="7.945219">
        <ele>863.641977</ele>
        <time>2021-11-18T21:51:04.889Z</time>
      </trkpt>
      <trkpt lat="47.632250" lon="7.946421">
        <ele>867.858114</ele>
        <time>2021-11-18T21:51:46.117Z</time>
      </trkpt>
      <trkpt lat="47.632015" lon="7.946574">
        <ele>867.707405</ele>
        <time>2021-11-18T21:51:49.901Z</time>
      </trkpt>
      <trkpt lat="47.631252" lon="7.946953">
        <ele>867.234874</ele>
        <time>2021-11-18T21:52:00.342Z</time>
      </trkpt>
      <trkpt lat="47.630971" lon="7.947084">
        <ele>867.061896</ele>
        <time>2021-11-18T21:52:03.780Z</time>
      </trkpt>
      <trkpt lat="47.630672" lon="7.947236">
        <ele>866.876281</ele>
        <time>2021-11-18T21:52:07.314Z</time>
      </trkpt>
      <trkpt lat="47.629991" lon="7.947744">
        <ele>864.230648</ele>
        <time>2021-11-18T21:52:15.006Z</time>
      </trkpt>
      <trkpt lat="47.629363" lon="7.948362">
        <ele>861.442364</ele>
        <time>2021-11-18T21:52:22.366Z</time>
      </trkpt>
      <trkpt lat="47.629285" lon="7.948439">
        <ele>861.095714</ele>
        <time>2021-11-18T21:52:23.240Z</time>
      </trkpt>
      <trkpt lat="47.629252" lon="7.948471">
        <ele>860.949846</ele>
        <time>2021-11-18T21:52:23.625Z</time>
      </trkpt>
      <trkpt lat="47.629112" lon="7.948574">
        <ele>860.371641</ele>
        <time>2021-11-18T21:52:25.166Z</time>
      </trkpt>
      <trkpt lat="47.629018" lon="7.948689">
        <ele>859.884042</ele>
        <time>2021-11-18T21:52:26.330Z</time>
      </trkpt>
      <trkpt lat="47.628909" lon="7.948921">
        <ele>859.081645</ele>
        <time>2021-11-18T21:52:28.158Z</time>
      </trkpt>
      <trkpt lat="47.628855" lon="7.948997">
        <ele>858.768312</ele>
        <time>2021-11-18T21:52:28.847Z</time>
      </trkpt>
      <trkpt lat="47.628255" lon="7.949609">
        <ele>855.703101</ele>
        <time>2021-11-18T21:52:35.682Z</time>
      </trkpt>
      <trkpt lat="47.628154" lon="7.949804">
        <ele>855.005321</ele>
        <time>2021-11-18T21:52:37.285Z</time>
      </trkpt>
      <trkpt lat="47.628018" lon="7.949775">
        <ele>854.426887</ele>
        <time>2021-11-18T21:52:38.679Z</time>
      </trkpt>
      <trkpt lat="47.627819" lon="7.949787">
        <ele>853.588417</ele>
        <time>2021-11-18T21:52:40.643Z</time>
      </trkpt>
      <trkpt lat="47.627702" lon="7.949801">
        <ele>853.094255</ele>
        <time>2021-11-18T21:52:41.951Z</time>
      </trkpt>
      <trkpt lat="47.627472" lon="7.949828">
        <ele>852.194056</ele>
        <time>2021-11-18T21:52:44.243Z</time>
      </trkpt>
      <trkpt lat="47.627309" lon="7.949824">
        <ele>851.606762</ele>
        <time>2021-11-18T21:52:46.061Z</time>
      </trkpt>
      <trkpt lat="47.627208" lon="7.949813">
        <ele>851.241927</ele>
        <time>2021-11-18T21:52:47.036Z</time>
      </trkpt>
      <trkpt lat="47.627110" lon="7.949777">
        <ele>850.878220</ele>
        <time>2021-11-18T21:52:48.211Z</time>
      </trkpt>
      <trkpt lat="47.626859" lon="7.949688">
        <ele>849.948522</ele>
        <time>2021-11-18T21:52:50.879Z</time>
      </trkpt>
      <trkpt lat="47.626752" lon="7.949657">
        <ele>849.555771</ele>
        <time>2021-11-18T21:52:52.058Z</time>
      </trkpt>
      <trkpt lat="47.626683" lon="7.949637">
        <ele>849.302498</ele>
        <time>2021-11-18T21:52:52.725Z</time>
      </trkpt>
      <trkpt lat="47.626401" lon="7.949689">
        <ele>848.278767</ele>
        <time>2021-11-18T21:52:55.499Z</time>
      </trkpt>
      <trkpt lat="47.626137" lon="7.949956">
        <ele>847.127773</ele>
        <time>2021-11-18T21:52:58.576Z</time>
      </trkpt>
      <trkpt lat="47.626078" lon="7.950083">
        <ele>846.753260</ele>
        <time>2021-11-18T21:52:59.670Z</time>
      </trkpt>
      <trkpt lat="47.626026" lon="7.950244">
        <ele>846.319785</ele>
        <time>2021-11-18T21:53:00.776Z</time>
      </trkpt>
      <trkpt lat="47.625896" lon="7.950889">
        <ele>844.215537</ele>
        <time>2021-11-18T21:53:05.297Z</time>
      </trkpt>
      <trkpt lat="47.625850" lon="7.951040">
        <ele>843.682962</ele>
        <time>2021-11-18T21:53:06.310Z</time>
      </trkpt>
      <trkpt lat="47.625812" lon="7.951163">
        <ele>843.248095</ele>
        <time>2021-11-18T21:53:07.132Z</time>
      </trkpt>
      <trkpt lat="47.625460" lon="7.951852">
        <ele>840.469396</ele>
        <time>2021-11-18T21:53:12.550Z</time>
      </trkpt>
      <trkpt lat="47.625338" lon="7.952002">
        <ele>839.713832</ele>
        <time>2021-11-18T21:53:14.055Z</time>
      </trkpt>
      <trkpt lat="47.625089" lon="7.952131">
        <ele>838.456135</ele>
        <time>2021-11-18T21:53:16.531Z</time>
      </trkpt>
      <trkpt lat="47.624864" lon="7.952108">
        <ele>837.504103</ele>
        <time>2021-11-18T21:53:18.808Z</time>
      </trkpt>
      <trkpt lat="47.624794" lon="7.952070">
        <ele>837.394634</ele>
        <time>2021-11-18T21:53:19.440Z</time>
      </trkpt>
      <trkpt lat="47.624692" lon="7.951963">
        <ele>837.211175</ele>
        <time>2021-11-18T21:53:20.658Z</time>
      </trkpt>
      <trkpt lat="47.624014" lon="7.951018">
        <ele>835.844999</ele>
        <time>2021-11-18T21:53:30.838Z</time>
      </trkpt>
      <trkpt lat="47.623553" lon="7.950603">
        <ele>835.053088</ele>
        <time>2021-11-18T21:53:39.178Z</time>
      </trkpt>
      <trkpt lat="47.623105" lon="7.950303">
        <ele>835.960012</ele>
        <time>2021-11-18T21:53:51.216Z</time>
      </trkpt>
      <trkpt lat="47.622946" lon="7.950255">
        <ele>836.383740</ele>
        <time>2021-11-18T21:53:55.714Z</time>
      </trkpt>
      <trkpt lat="47.622642" lon="7.950331">
        <ele>837.188810</ele>
        <time>2021-11-18T21:54:03.660Z</time>
      </trkpt>
      <trkpt lat="47.622427" lon="7.950567">
        <ele>837.887229</ele>
        <time>2021-11-18T21:54:10.510Z</time>
      </trkpt>
      <trkpt lat="47.622278" lon="7.951027">
        <ele>838.785542</ele>
        <time>2021-11-18T21:54:19.292Z</time>
      </trkpt>
      <trkpt lat="47.622272" lon="7.951112">
        <ele>838.935974</ele>
        <time>2021-11-18T21:54:21.265Z</time>
      </trkpt>
      <trkpt lat="47.622265" lon="7.951206">
        <ele>839.102435</ele>
        <time>2021-11-18T21:54:22.640Z</time>
      </trkpt>
      <trkpt lat="47.622261" lon="7.951375">
        <ele>839.400084</ele>
        <time>2021-11-18T21:54:25.862Z</time>
      </trkpt>
      <trkpt lat="47.622276" lon="7.952166">
        <ele>841.508054</ele>
        <time>2021-11-18T21:54:41.255Z</time>
      </trkpt>
      <trkpt lat="47.622251" lon="7.952351">
        <ele>842.041719</ele>
        <time>2021-11-18T21:54:46.049Z</time>
      </trkpt>
      <trkpt lat="47.622136" lon="7.952635">
        <ele>842.978796</ele>
        <time>2021-11-18T21:54:52.040Z</time>
      </trkpt>
      <trkpt lat="47.621882" lon="7.952893">
        <ele>844.270530</ele>
        <time>2021-11-18T21:55:02.252Z</time>
      </trkpt>
      <trkpt lat="47.621500" lon="7.952932">
        <ele>845.877318</ele>
        <time>2021-11-18T21:55:16.280Z</time>
      </trkpt>
      <trkpt lat="47.621408" lon="7.952896">
        <ele>846.276582</ele>
        <time>2021-11-18T21:55:19.352Z</time>
      </trkpt>
      <trkpt lat="47.621374" lon="7.952883">
        <ele>846.423919</ele>
        <time>2021-11-18T21:55:21.510Z</time>
      </trkpt>
      <trkpt lat="47.620544" lon="7.952585">
        <ele>849.273115</ele>
        <time>2021-11-18T21:55:47.110Z</time>
      </trkpt>
      <trkpt lat="47.620395" lon="7.952576">
        <ele>849.737383</ele>
        <time>2021-11-18T21:55:51.716Z</time>
      </trkpt>
      <trkpt lat="47.620168" lon="7.952606">
        <ele>850.446903</ele>
        <time>2021-11-18T21:55:58.316Z</time>
      </trkpt>
      <trkpt lat="47.619933" lon="7.952707">
        <ele>851.208613</ele>
        <time>2021-11-18T21:56:06.007Z</time>
      </trkpt>
      <trkpt lat="47.619515" lon="7.953035">
        <ele>852.680796</ele>
        <time>2021-11-18T21:56:16.594Z</time>
      </trkpt>
      <trkpt lat="47.618866" lon="7.953794">
        <ele>850.493164</ele>
        <time>2021-11-18T21:56:28.284Z</time>
      </trkpt>
      <trkpt lat="47.618501" lon="7.954337">
        <ele>849.027782</ele>
        <time>2021-11-18T21:56:33.237Z</time>
      </trkpt>
      <trkpt lat="47.618375" lon="7.954525">
        <ele>848.521174</ele>
        <time>2021-11-18T21:56:34.985Z</time>
      </trkpt>
      <trkpt lat="47.618328" lon="7.954588">
        <ele>848.341602</ele>
        <time>2021-11-18T21:56:35.564Z</time>
      </trkpt>
      <trkpt lat="47.618208" lon="7.954752">
        <ele>847.879063</ele>
        <time>2021-11-18T21:56:37.031Z</time>
      </trkpt>
      <trkpt lat="47.617828" lon="7.954964">
        <ele>844.959936</ele>
        <time>2021-11-18T21:56:40.684Z</time>
      </trkpt>
      <trkpt lat="47.617721" lon="7.954960">
        <ele>844.082598</ele>
        <time>2021-11-18T21:56:41.639Z</time>
      </trkpt>
      <trkpt lat="47.617621" lon="7.954956">
        <ele>843.262618</ele>
        <time>2021-11-18T21:56:42.511Z</time>
      </trkpt>
      <trkpt lat="47.617283" lon="7.954886">
        <ele>840.465227</ele>
        <time>2021-11-18T21:56:45.526Z</time>
      </trkpt>
      <trkpt lat="47.617229" lon="7.954869">
        <ele>840.012742</ele>
        <time>2021-11-18T21:56:45.992Z</time>
      </trkpt>
      <trkpt lat="47.617066" lon="7.954812">
        <ele>838.640043</ele>
        <time>2021-11-18T21:56:47.474Z</time>
      </trkpt>
      <trkpt lat="47.616890" lon="7.954760">
        <ele>837.169069</ele>
        <time>2021-11-18T21:56:49.026Z</time>
      </trkpt>
      <trkpt lat="47.616560" lon="7.954678">
        <ele>834.426436</ele>
        <time>2021-11-18T21:56:51.940Z</time>
      </trkpt>
      <trkpt lat="47.616312" lon="7.954710">
        <ele>832.401513</ele>
        <time>2021-11-18T21:56:54.090Z</time>
      </trkpt>
      <trkpt lat="47.615954" lon="7.954858">
        <ele>829.444028</ele>
        <time>2021-11-18T21:56:57.324Z</time>
      </trkpt>
      <trkpt lat="47.615567" lon="7.955253">
        <ele>825.705777</ele>
        <time>2021-11-18T21:57:01.484Z</time>
      </trkpt>
      <trkpt lat="47.615290" lon="7.955684">
        <ele>822.511281</ele>
        <time>2021-11-18T21:57:05.039Z</time>
      </trkpt>
      <trkpt lat="47.615069" lon="7.955940">
        <ele>820.279918</ele>
        <time>2021-11-18T21:57:07.555Z</time>
      </trkpt>
      <trkpt lat="47.614839" lon="7.956151">
        <ele>818.211085</ele>
        <time>2021-11-18T21:57:10.006Z</time>
      </trkpt>
      <trkpt lat="47.614413" lon="7.956465">
        <ele>815.083777</ele>
        <time>2021-11-18T21:57:14.275Z</time>
      </trkpt>
      <trkpt lat="47.614150" lon="7.956743">
        <ele>812.960692</ele>
        <time>2021-11-18T21:57:17.142Z</time>
      </trkpt>
      <trkpt lat="47.613975" lon="7.956945">
        <ele>811.502927</ele>
        <time>2021-11-18T21:57:19.141Z</time>
      </trkpt>
      <trkpt lat="47.613817" lon="7.957293">
        <ele>809.643460</ele>
        <time>2021-11-18T21:57:21.761Z</time>
      </trkpt>
      <trkpt lat="47.613747" lon="7.957547">
        <ele>808.427330</ele>
        <time>2021-11-18T21:57:23.441Z</time>
      </trkpt>
      <trkpt lat="47.613637" lon="7.957858">
        <ele>806.870820</ele>
        <time>2021-11-18T21:57:25.629Z</time>
      </trkpt>
      <trkpt lat="47.613498" lon="7.958176">
        <ele>805.527344</ele>
        <time>2021-11-18T21:57:28.057Z</time>
      </trkpt>
      <trkpt lat="47.613441" lon="7.958296">
        <ele>805.014272</ele>
        <time>2021-11-18T21:57:28.938Z</time>
      </trkpt>
      <trkpt lat="47.613253" lon="7.958684">
        <ele>803.344215</ele>
        <time>2021-11-18T21:57:31.934Z</time>
      </trkpt>
      <trkpt lat="47.613156" lon="7.958910">
        <ele>802.407807</ele>
        <time>2021-11-18T21:57:33.630Z</time>
      </trkpt>
      <trkpt lat="47.613134" lon="7.959507">
        <ele>800.318096</ele>
        <time>2021-11-18T21:57:37.417Z</time>
      </trkpt>
      <trkpt lat="47.613020" lon="7.960049">
        <ele>798.333666</ele>
        <time>2021-11-18T21:57:41.101Z</time>
      </trkpt>
      <trkpt lat="47.612881" lon="7.960311">
        <ele>797.155056</ele>
        <time>2021-11-18T21:57:43.213Z</time>
      </trkpt>
      <trkpt lat="47.612693" lon="7.960527">
        <ele>795.865174</ele>
        <time>2021-11-18T21:57:45.448Z</time>
      </trkpt>
      <trkpt lat="47.612484" lon="7.960712">
        <ele>794.544994</ele>
        <time>2021-11-18T21:57:47.798Z</time>
      </trkpt>
      <trkpt lat="47.612311" lon="7.961103">
        <ele>792.834760</ele>
        <time>2021-11-18T21:57:50.808Z</time>
      </trkpt>
      <trkpt lat="47.612099" lon="7.961419">
        <ele>791.204529</ele>
        <time>2021-11-18T21:57:53.613Z</time>
      </trkpt>
      <trkpt lat="47.611917" lon="7.961735">
        <ele>789.684698</ele>
        <time>2021-11-18T21:57:56.164Z</time>
      </trkpt>
      <trkpt lat="47.611648" lon="7.962205">
        <ele>787.354639</ele>
        <time>2021-11-18T21:57:59.940Z</time>
      </trkpt>
      <trkpt lat="47.611356" lon="7.962756">
        <ele>784.074548</ele>
        <time>2021-11-18T21:58:04.255Z</time>
      </trkpt>
      <trkpt lat="47.611128" lon="7.963082">
        <ele>781.876117</ele>
        <time>2021-11-18T21:58:07.111Z</time>
      </trkpt>
      <trkpt lat="47.610758" lon="7.963604">
        <ele>778.331250</ele>
        <time>2021-11-18T21:58:11.715Z</time>
      </trkpt>
      <trkpt lat="47.609733" lon="7.965333">
        <ele>766.600058</ele>
        <time>2021-11-18T21:58:25.449Z</time>
      </trkpt>
      <trkpt lat="47.609436" lon="7.965776">
        <ele>763.311186</ele>
        <time>2021-11-18T21:58:29.189Z</time>
      </trkpt>
      <trkpt lat="47.609398" lon="7.965823">
        <ele>762.924846</ele>
        <time>2021-11-18T21:58:29.827Z</time>
      </trkpt>
      <trkpt lat="47.609371" lon="7.965858">
        <ele>762.644854</ele>
        <time>2021-11-18T21:58:30.150Z</time>
      </trkpt>
      <trkpt lat="47.609221" lon="7.966057">
        <ele>761.072993</ele>
        <time>2021-11-18T21:58:31.928Z</time>
      </trkpt>
      <trkpt lat="47.607658" lon="7.967106">
        <ele>747.612190</ele>
        <time>2021-11-18T21:58:47.066Z</time>
      </trkpt>
      <trkpt lat="47.607095" lon="7.967514">
        <ele>742.813321</ele>
        <time>2021-11-18T21:58:52.701Z</time>
      </trkpt>
      <trkpt lat="47.606870" lon="7.967721">
        <ele>740.791927</ele>
        <time>2021-11-18T21:58:55.042Z</time>
      </trkpt>
      <trkpt lat="47.606364" lon="7.968338">
        <ele>735.790938</ele>
        <time>2021-11-18T21:59:00.829Z</time>
      </trkpt>
      <trkpt lat="47.606108" lon="7.968738">
        <ele>733.012535</ele>
        <time>2021-11-18T21:59:04.136Z</time>
      </trkpt>
      <trkpt lat="47.605817" lon="7.969371">
        <ele>729.709154</ele>
        <time>2021-11-18T21:59:08.755Z</time>
      </trkpt>
      <trkpt lat="47.605704" lon="7.969636">
        <ele>728.357206</ele>
        <time>2021-11-18T21:59:10.703Z</time>
      </trkpt>
      <trkpt lat="47.605616" lon="7.969840">
        <ele>727.312989</ele>
        <time>2021-11-18T21:59:12.197Z</time>
      </trkpt>
      <trkpt lat="47.605394" lon="7.970424">
        <ele>724.422282</ele>
        <time>2021-11-18T21:59:16.332Z</time>
      </trkpt>
      <trkpt lat="47.605334" lon="7.970757">
        <ele>722.936080</ele>
        <time>2021-11-18T21:59:18.447Z</time>
      </trkpt>
      <trkpt lat="47.605293" lon="7.971142">
        <ele>721.543192</ele>
        <time>2021-11-18T21:59:20.865Z</time>
      </trkpt>
      <trkpt lat="47.605285" lon="7.971687">
        <ele>720.386307</ele>
        <time>2021-11-18T21:59:24.338Z</time>
      </trkpt>
      <trkpt lat="47.605294" lon="7.972024">
        <ele>719.670557</ele>
        <time>2021-11-18T21:59:26.524Z</time>
      </trkpt>
      <trkpt lat="47.605277" lon="7.972254">
        <ele>719.179522</ele>
        <time>2021-11-18T21:59:28.113Z</time>
      </trkpt>
      <trkpt lat="47.605261" lon="7.972326">
        <ele>719.018637</ele>
        <time>2021-11-18T21:59:28.630Z</time>
      </trkpt>
      <trkpt lat="47.605224" lon="7.972488">
        <ele>718.655647</ele>
        <time>2021-11-18T21:59:29.809Z</time>
      </trkpt>
      <trkpt lat="47.605056" lon="7.972376">
        <ele>718.075886</ele>
        <time>2021-11-18T21:59:31.773Z</time>
      </trkpt>
      <trkpt lat="47.604922" lon="7.972287">
        <ele>717.613746</ele>
        <time>2021-11-18T21:59:33.310Z</time>
      </trkpt>
      <trkpt lat="47.604528" lon="7.971728">
        <ele>716.344465</ele>
        <time>2021-11-18T21:59:39.849Z</time>
      </trkpt>
      <trkpt lat="47.604419" lon="7.971600">
        <ele>716.650186</ele>
        <time>2021-11-18T21:59:41.555Z</time>
      </trkpt>
      <trkpt lat="47.604366" lon="7.971555">
        <ele>716.784477</ele>
        <time>2021-11-18T21:59:42.528Z</time>
      </trkpt>
      <trkpt lat="47.604294" lon="7.971507">
        <ele>716.958061</ele>
        <time>2021-11-18T21:59:43.954Z</time>
      </trkpt>
      <trkpt lat="47.604261" lon="7.971490">
        <ele>717.034879</ele>
        <time>2021-11-18T21:59:44.559Z</time>
      </trkpt>
      <trkpt lat="47.604163" lon="7.971460">
        <ele>717.254920</ele>
        <time>2021-11-18T21:59:46.015Z</time>
      </trkpt>
      <trkpt lat="47.604023" lon="7.971466">
        <ele>717.562903</ele>
        <time>2021-11-18T21:59:48.162Z</time>
      </trkpt>
      <trkpt lat="47.603588" lon="7.971607">
        <ele>718.542027</ele>
        <time>2021-11-18T21:59:58.207Z</time>
      </trkpt>
      <trkpt lat="47.603305" lon="7.971596">
        <ele>719.164546</ele>
        <time>2021-11-18T22:00:05.702Z</time>
      </trkpt>
      <trkpt lat="47.603054" lon="7.971469">
        <ele>719.747721</ele>
        <time>2021-11-18T22:00:13.753Z</time>
      </trkpt>
      <trkpt lat="47.602252" lon="7.970803">
        <ele>726.045376</ele>
        <time>2021-11-18T22:00:52.400Z</time>
      </trkpt>
      <trkpt lat="47.601859" lon="7.970629">
        <ele>729.280306</ele>
        <time>2021-11-18T22:01:12.921Z</time>
      </trkpt>
      <trkpt lat="47.601648" lon="7.970592">
        <ele>730.956141</ele>
        <time>2021-11-18T22:01:24.648Z</time>
      </trkpt>
      <trkpt lat="47.601402" lon="7.970556">
        <ele>732.905865</ele>
        <time>2021-11-18T22:01:37.651Z</time>
      </trkpt>
      <trkpt lat="47.601180" lon="7.970508">
        <ele>734.657657</ele>
        <time>2021-11-18T22:01:48.311Z</time>
      </trkpt>
      <trkpt lat="47.600971" lon="7.970428">
        <ele>736.279251</ele>
        <time>2021-11-18T22:02:00.467Z</time>
      </trkpt>
      <trkpt lat="47.600336" lon="7.970065">
        <ele>741.391904</ele>
        <time>2021-11-18T22:02:35.217Z</time>
      </trkpt>
      <trkpt lat="47.599718" lon="7.969767">
        <ele>746.273964</ele>
        <time>2021-11-18T22:03:03.015Z</time>
      </trkpt>
      <trkpt lat="47.599352" lon="7.969493">
        <ele>748.095067</ele>
        <time>2021-11-18T22:03:16.812Z</time>
      </trkpt>
      <trkpt lat="47.598765" lon="7.968887">
        <ele>749.073001</ele>
        <time>2021-11-18T22:03:32.754Z</time>
      </trkpt>
      <trkpt lat="47.598343" lon="7.968578">
        <ele>749.716507</ele>
        <time>2021-11-18T22:03:40.139Z</time>
      </trkpt>
      <trkpt lat="47.597978" lon="7.968440">
        <ele>750.231537</ele>
        <time>2021-11-18T22:03:45.001Z</time>
      </trkpt>
      <trkpt lat="47.597103" lon="7.968192">
        <ele>748.200747</ele>
        <time>2021-11-18T22:03:54.789Z</time>
      </trkpt>
      <trkpt lat="47.596111" lon="7.968029">
        <ele>745.784722</ele>
        <time>2021-11-18T22:04:04.914Z</time>
      </trkpt>
      <trkpt lat="47.595897" lon="7.967970">
        <ele>745.228179</ele>
        <time>2021-11-18T22:04:07.153Z</time>
      </trkpt>
      <trkpt lat="47.595731" lon="7.967840">
        <ele>744.748188</ele>
        <time>2021-11-18T22:04:09.095Z</time>
      </trkpt>
      <trkpt lat="47.595487" lon="7.967606">
        <ele>744.005217</ele>
        <time>2021-11-18T22:04:12.046Z</time>
      </trkpt>
      <trkpt lat="47.595222" lon="7.967319">
        <ele>743.166181</ele>
        <time>2021-11-18T22:04:15.407Z</time>
      </trkpt>
      <trkpt lat="47.595156" lon="7.967249">
        <ele>742.958707</ele>
        <time>2021-11-18T22:04:16.257Z</time>
      </trkpt>
      <trkpt lat="47.594433" lon="7.966488">
        <ele>741.494161</ele>
        <time>2021-11-18T22:04:25.892Z</time>
      </trkpt>
      <trkpt lat="47.594369" lon="7.966419">
        <ele>741.543516</ele>
        <time>2021-11-18T22:04:26.792Z</time>
      </trkpt>
      <trkpt lat="47.593845" lon="7.965844">
        <ele>741.950116</ele>
        <time>2021-11-18T22:04:38.495Z</time>
      </trkpt>
      <trkpt lat="47.593572" lon="7.965514">
        <ele>742.169808</ele>
        <time>2021-11-18T22:04:45.784Z</time>
      </trkpt>
      <trkpt lat="47.593274" lon="7.965197">
        <ele>742.398565</ele>
        <time>2021-11-18T22:04:53.783Z</time>
      </trkpt>
      <trkpt lat="47.592819" lon="7.964868">
        <ele>743.192405</ele>
        <time>2021-11-18T22:05:06.152Z</time>
      </trkpt>
      <trkpt lat="47.592518" lon="7.964704">
        <ele>743.766519</ele>
        <time>2021-11-18T22:05:14.725Z</time>
      </trkpt>
      <trkpt lat="47.591169" lon="7.964077">
        <ele>744.713889</ele>
        <time>2021-11-18T22:05:45.061Z</time>
      </trkpt>
      <trkpt lat="47.590665" lon="7.963794">
        <ele>743.209068</ele>
        <time>2021-11-18T22:05:50.905Z</time>
      </trkpt>
      <trkpt lat="47.590624" lon="7.963772">
        <ele>743.087320</ele>
        <time>2021-11-18T22:05:51.362Z</time>
      </trkpt>
      <trkpt lat="47.590227" lon="7.963517">
        <ele>741.879256</ele>
        <time>2021-11-18T22:05:55.555Z</time>
      </trkpt>
      <trkpt lat="47.589112" lon="7.962950">
        <ele>735.838800</ele>
        <time>2021-11-18T22:06:06.327Z</time>
      </trkpt>
      <trkpt lat="47.588758" lon="7.962844">
        <ele>733.490309</ele>
        <time>2021-11-18T22:06:09.529Z</time>
      </trkpt>
      <trkpt lat="47.588243" lon="7.962855">
        <ele>730.140982</ele>
        <time>2021-11-18T22:06:14.210Z</time>
      </trkpt>
      <trkpt lat="47.587999" lon="7.962882">
        <ele>728.611918</ele>
        <time>2021-11-18T22:06:16.428Z</time>
      </trkpt>
      <trkpt lat="47.587762" lon="7.962890">
        <ele>727.303433</ele>
        <time>2021-11-18T22:06:18.574Z</time>
      </trkpt>
      <trkpt lat="47.587593" lon="7.962854">
        <ele>726.361042</ele>
        <time>2021-11-18T22:06:20.139Z</time>
      </trkpt>
      <trkpt lat="47.587527" lon="7.962835">
        <ele>725.989945</ele>
        <time>2021-11-18T22:06:20.759Z</time>
      </trkpt>
      <trkpt lat="47.587299" lon="7.962810">
        <ele>724.728038</ele>
        <time>2021-11-18T22:06:22.866Z</time>
      </trkpt>
      <trkpt lat="47.587114" lon="7.962708">
        <ele>723.638593</ele>
        <time>2021-11-18T22:06:24.694Z</time>
      </trkpt>
      <trkpt lat="47.586786" lon="7.962503">
        <ele>721.673881</ele>
        <time>2021-11-18T22:06:27.991Z</time>
      </trkpt>
      <trkpt lat="47.586624" lon="7.962373">
        <ele>720.657134</ele>
        <time>2021-11-18T22:06:29.693Z</time>
      </trkpt>
      <trkpt lat="47.586491" lon="7.962168">
        <ele>719.598191</ele>
        <time>2021-11-18T22:06:31.561Z</time>
      </trkpt>
      <trkpt lat="47.586296" lon="7.961772">
        <ele>718.313189</ele>
        <time>2021-11-18T22:06:34.820Z</time>
      </trkpt>
      <trkpt lat="47.586005" lon="7.961489">
        <ele>717.216314</ele>
        <time>2021-11-18T22:06:38.282Z</time>
      </trkpt>
      <trkpt lat="47.585805" lon="7.961386">
        <ele>716.549010</ele>
        <time>2021-11-18T22:06:40.384Z</time>
      </trkpt>
      <trkpt lat="47.585873" lon="7.960986">
        <ele>715.672082</ele>
        <time>2021-11-18T22:06:43.311Z</time>
      </trkpt>
      <trkpt lat="47.586086" lon="7.960207">
        <ele>713.885160</ele>
        <time>2021-11-18T22:06:49.179Z</time>
      </trkpt>
      <trkpt lat="47.586102" lon="7.959952">
        <ele>713.344439</ele>
        <time>2021-11-18T22:06:51.062Z</time>
      </trkpt>
      <trkpt lat="47.586046" lon="7.959882">
        <ele>713.151166</ele>
        <time>2021-11-18T22:06:51.753Z</time>
      </trkpt>
      <trkpt lat="47.585911" lon="7.959553">
        <ele>712.465794</ele>
        <time>2021-11-18T22:06:54.792Z</time>
      </trkpt>
      <trkpt lat="47.585951" lon="7.959106">
        <ele>711.663287</ele>
        <time>2021-11-18T22:06:58.340Z</time>
      </trkpt>
      <trkpt lat="47.585957" lon="7.959023">
        <ele>711.514724</ele>
        <time>2021-11-18T22:06:58.939Z</time>
      </trkpt>
      <trkpt lat="47.585936" lon="7.958830">
        <ele>711.166797</ele>
        <time>2021-11-18T22:07:00.277Z</time>
      </trkpt>
      <trkpt lat="47.585861" lon="7.958359">
        <ele>710.305503</ele>
        <time>2021-11-18T22:07:03.731Z</time>
      </trkpt>
      <trkpt lat="47.585868" lon="7.958284">
        <ele>710.170752</ele>
        <time>2021-11-18T22:07:04.240Z</time>
      </trkpt>
      <trkpt lat="47.585872" lon="7.958242">
        <ele>710.095262</ele>
        <time>2021-11-18T22:07:04.576Z</time>
      </trkpt>
      <trkpt lat="47.585801" lon="7.958079">
        <ele>709.749931</ele>
        <time>2021-11-18T22:07:06.106Z</time>
      </trkpt>
      <trkpt lat="47.585567" lon="7.957154">
        <ele>707.525373</ele>
        <time>2021-11-18T22:07:12.752Z</time>
      </trkpt>
      <trkpt lat="47.585511" lon="7.957057">
        <ele>707.128808</ele>
        <time>2021-11-18T22:07:13.563Z</time>
      </trkpt>
      <trkpt lat="47.585402" lon="7.956948">
        <ele>706.523378</ele>
        <time>2021-11-18T22:07:14.837Z</time>
      </trkpt>
      <trkpt lat="47.585248" lon="7.956842">
        <ele>705.741534</ele>
        <time>2021-11-18T22:07:16.473Z</time>
      </trkpt>
      <trkpt lat="47.585056" lon="7.956622">
        <ele>704.624128</ele>
        <time>2021-11-18T22:07:18.854Z</time>
      </trkpt>
      <trkpt lat="47.584657" lon="7.956194">
        <ele>702.356315</ele>
        <time>2021-11-18T22:07:23.517Z</time>
      </trkpt>
      <trkpt lat="47.584462" lon="7.956025">
        <ele>701.316201</ele>
        <time>2021-11-18T22:07:25.653Z</time>
      </trkpt>
      <trkpt lat="47.584341" lon="7.955944">
        <ele>700.704848</ele>
        <time>2021-11-18T22:07:26.866Z</time>
      </trkpt>
      <trkpt lat="47.583697" lon="7.955686">
        <ele>695.977787</ele>
        <time>2021-11-18T22:07:33.003Z</time>
      </trkpt>
      <trkpt lat="47.583012" lon="7.955581">
        <ele>690.864141</ele>
        <time>2021-11-18T22:07:39.032Z</time>
      </trkpt>
      <trkpt lat="47.582418" lon="7.955318">
        <ele>686.566344</ele>
        <time>2021-11-18T22:07:44.452Z</time>
      </trkpt>
      <trkpt lat="47.582293" lon="7.955198">
        <ele>685.930928</ele>
        <time>2021-11-18T22:07:45.825Z</time>
      </trkpt>
      <trkpt lat="47.582191" lon="7.955070">
        <ele>685.360721</ele>
        <time>2021-11-18T22:07:46.988Z</time>
      </trkpt>
      <trkpt lat="47.582113" lon="7.954978">
        <ele>684.935423</ele>
        <time>2021-11-18T22:07:47.897Z</time>
      </trkpt>
      <trkpt lat="47.581896" lon="7.954662">
        <ele>683.637546</ele>
        <time>2021-11-18T22:07:50.791Z</time>
      </trkpt>
      <trkpt lat="47.581759" lon="7.954459">
        <ele>682.811062</ele>
        <time>2021-11-18T22:07:52.836Z</time>
      </trkpt>
      <trkpt lat="47.581435" lon="7.953917">
        <ele>680.726668</ele>
        <time>2021-11-18T22:07:57.805Z</time>
      </trkpt>
      <trkpt lat="47.581333" lon="7.953705">
        <ele>679.977183</ele>
        <time>2021-11-18T22:07:59.754Z</time>
      </trkpt>
      <trkpt lat="47.581230" lon="7.953495">
        <ele>679.273028</ele>
        <time>2021-11-18T22:08:01.574Z</time>
      </trkpt>
      <trkpt lat="47.581040" lon="7.953110">
        <ele>678.694241</ele>
        <time>2021-11-18T22:08:05.531Z</time>
      </trkpt>
      <trkpt lat="47.580988" lon="7.953044">
        <ele>678.571113</ele>
        <time>2021-11-18T22:08:07.473Z</time>
      </trkpt>
      <trkpt lat="47.580891" lon="7.952922">
        <ele>678.342308</ele>
        <time>2021-11-18T22:08:09.038Z</time>
      </trkpt>
      <trkpt lat="47.580801" lon="7.952840">
        <ele>678.152297</ele>
        <time>2021-11-18T22:08:11.429Z</time>
      </trkpt>
      <trkpt lat="47.580789" lon="7.952623">
        <ele>677.888127</ele>
        <time>2021-11-18T22:08:14.513Z</time>
      </trkpt>
      <trkpt lat="47.580514" lon="7.951308">
        <ele>676.217712</ele>
        <time>2021-11-18T22:08:25.176Z</time>
      </trkpt>
      <trkpt lat="47.580578" lon="7.950534">
        <ele>671.947797</ele>
        <time>2021-11-18T22:08:30.044Z</time>
      </trkpt>
      <trkpt lat="47.580705" lon="7.949917">
        <ele>667.903870</ele>
        <time>2021-11-18T22:08:33.816Z</time>
      </trkpt>
      <trkpt lat="47.580743" lon="7.949656">
        <ele>666.230033</ele>
        <time>2021-11-18T22:08:35.341Z</time>
      </trkpt>
      <trkpt lat="47.580939" lon="7.948093">
        <ele>656.172377</ele>
        <time>2021-11-18T22:08:44.391Z</time>
      </trkpt>
      <trkpt lat="47.580865" lon="7.947817">
        <ele>654.255300</ele>
        <time>2021-11-18T22:08:46.098Z</time>
      </trkpt>
      <trkpt lat="47.580562" lon="7.947489">
        <ele>650.665188</ele>
        <time>2021-11-18T22:08:49.283Z</time>
      </trkpt>
      <trkpt lat="47.580077" lon="7.947070">
        <ele>645.293675</ele>
        <time>2021-11-18T22:08:54.214Z</time>
      </trkpt>
      <trkpt lat="47.579781" lon="7.947052">
        <ele>642.458875</ele>
        <time>2021-11-18T22:08:56.890Z</time>
      </trkpt>
      <trkpt lat="47.579396" lon="7.946888">
        <ele>639.720357</ele>
        <time>2021-11-18T22:09:00.581Z</time>
      </trkpt>
      <trkpt lat="47.578644" lon="7.947268">
        <ele>634.484059</ele>
        <time>2021-11-18T22:09:07.941Z</time>
      </trkpt>
      <trkpt lat="47.578396" lon="7.947244">
        <ele>632.846067</ele>
        <time>2021-11-18T22:09:10.154Z</time>
      </trkpt>
      <trkpt lat="47.578328" lon="7.947192">
        <ele>632.341777</ele>
        <time>2021-11-18T22:09:11.913Z</time>
      </trkpt>
      <trkpt lat="47.578220" lon="7.946989">
        <ele>631.192322</ele>
        <time>2021-11-18T22:09:13.416Z</time>
      </trkpt>
      <trkpt lat="47.578055" lon="7.946424">
        <ele>626.821073</ele>
        <time>2021-11-18T22:09:17.143Z</time>
      </trkpt>
      <trkpt lat="47.577848" lon="7.945352">
        <ele>617.444912</ele>
        <time>2021-11-18T22:09:23.553Z</time>
      </trkpt>
      <trkpt lat="47.577504" lon="7.944765">
        <ele>610.906559</ele>
        <time>2021-11-18T22:09:27.918Z</time>
      </trkpt>
      <trkpt lat="47.576917" lon="7.944153">
        <ele>598.555244</ele>
        <time>2021-11-18T22:09:33.818Z</time>
      </trkpt>
      <trkpt lat="47.576848" lon="7.944056">
        <ele>596.686462</ele>
        <time>2021-11-18T22:09:34.601Z</time>
      </trkpt>
      <trkpt lat="47.576803" lon="7.944012">
        <ele>595.627072</ele>
        <time>2021-11-18T22:09:35.053Z</time>
      </trkpt>
      <trkpt lat="47.576670" lon="7.943775">
        <ele>591.540098</ele>
        <time>2021-11-18T22:09:36.775Z</time>
      </trkpt>
      <trkpt lat="47.576415" lon="7.943598">
        <ele>586.006680</ele>
        <time>2021-11-18T22:09:39.072Z</time>
      </trkpt>
      <trkpt lat="47.575978" lon="7.943401">
        <ele>577.030452</ele>
        <time>2021-11-18T22:09:42.803Z</time>
      </trkpt>
      <trkpt lat="47.575613" lon="7.943320">
        <ele>569.835910</ele>
        <time>2021-11-18T22:09:45.812Z</time>
      </trkpt>
      <trkpt lat="47.574655" lon="7.943625">
        <ele>550.989458</ele>
        <time>2021-11-18T22:09:53.826Z</time>
      </trkpt>
      <trkpt lat="47.574394" lon="7.943856">
        <ele>545.142586</ele>
        <time>2021-11-18T22:09:56.313Z</time>
      </trkpt>
      <trkpt lat="47.574153" lon="7.944610">
        <ele>535.575059</ele>
        <time>2021-11-18T22:10:00.956Z</time>
      </trkpt>
      <trkpt lat="47.573532" lon="7.946081">
        <ele>520.910109</ele>
        <time>2021-11-18T22:10:10.768Z</time>
      </trkpt>
      <trkpt lat="47.573421" lon="7.946607">
        <ele>516.252389</ele>
        <time>2021-11-18T22:10:13.998Z</time>
      </trkpt>
      <trkpt lat="47.573457" lon="7.946845">
        <ele>514.909025</ele>
        <time>2021-11-18T22:10:15.465Z</time>
      </trkpt>
      <trkpt lat="47.573702" lon="7.947589">
        <ele>512.085244</ele>
        <time>2021-11-18T22:10:20.599Z</time>
      </trkpt>
      <trkpt lat="47.573779" lon="7.948382">
        <ele>509.352634</ele>
        <time>2021-11-18T22:10:25.848Z</time>
      </trkpt>
      <trkpt lat="47.573841" lon="7.949945">
        <ele>504.108087</ele>
        <time>2021-11-18T22:10:36.506Z</time>
      </trkpt>
      <trkpt lat="47.573833" lon="7.950164">
        <ele>503.391304</ele>
        <time>2021-11-18T22:10:38.060Z</time>
      </trkpt>
      <trkpt lat="47.573830" lon="7.950662">
        <ele>501.763679</ele>
        <time>2021-11-18T22:10:41.231Z</time>
      </trkpt>
      <trkpt lat="47.573809" lon="7.950963">
        <ele>500.774706</ele>
        <time>2021-11-18T22:10:43.180Z</time>
      </trkpt>
      <trkpt lat="47.573543" lon="7.952446">
        <ele>494.773315</ele>
        <time>2021-11-18T22:10:52.639Z</time>
      </trkpt>
      <trkpt lat="47.573526" lon="7.952563">
        <ele>494.171202</ele>
        <time>2021-11-18T22:10:53.337Z</time>
      </trkpt>
      <trkpt lat="47.573508" lon="7.952785">
        <ele>493.046303</ele>
        <time>2021-11-18T22:10:54.684Z</time>
      </trkpt>
      <trkpt lat="47.573460" lon="7.953097">
        <ele>491.436362</ele>
        <time>2021-11-18T22:10:56.643Z</time>
      </trkpt>
      <trkpt lat="47.573085" lon="7.954089">
        <ele>485.715613</ele>
        <time>2021-11-18T22:11:03.386Z</time>
      </trkpt>
      <trkpt lat="47.572895" lon="7.955000">
        <ele>481.101702</ele>
        <time>2021-11-18T22:11:09.061Z</time>
      </trkpt>
      <trkpt lat="47.572816" lon="7.955144">
        <ele>480.220497</ele>
        <time>2021-11-18T22:11:10.262Z</time>
      </trkpt>
      <trkpt lat="47.572732" lon="7.955226">
        <ele>479.512664</ele>
        <time>2021-11-18T22:11:11.139Z</time>
      </trkpt>
      <trkpt lat="47.572685" lon="7.955235">
        <ele>479.179154</ele>
        <time>2021-11-18T22:11:11.549Z</time>
      </trkpt>
      <trkpt lat="47.572561" lon="7.955012">
        <ele>477.807107</ele>
        <time>2021-11-18T22:11:13.437Z</time>
      </trkpt>
      <trkpt lat="47.572493" lon="7.953580">
        <ele>471.042412</ele>
        <time>2021-11-18T22:11:22.125Z</time>
      </trkpt>
      <trkpt lat="47.572431" lon="7.953273">
        <ele>469.668582</ele>
        <time>2021-11-18T22:11:24.081Z</time>
      </trkpt>
      <trkpt lat="47.572136" lon="7.952448">
        <ele>465.665685</ele>
        <time>2021-11-18T22:11:29.842Z</time>
      </trkpt>
      <trkpt lat="47.572063" lon="7.952158">
        <ele>464.338709</ele>
        <time>2021-11-18T22:11:31.807Z</time>
      </trkpt>
      <trkpt lat="47.572029" lon="7.952049">
        <ele>463.823888</ele>
        <time>2021-11-18T22:11:32.524Z</time>
      </trkpt>
      <trkpt lat="47.571881" lon="7.951642">
        <ele>461.841727</ele>
        <time>2021-11-18T22:11:35.401Z</time>
      </trkpt>
      <trkpt lat="47.571580" lon="7.951400">
        <ele>459.638383</ele>
        <time>2021-11-18T22:11:38.531Z</time>
      </trkpt>
      <trkpt lat="47.571432" lon="7.951352">
        <ele>458.613238</ele>
        <time>2021-11-18T22:11:39.868Z</time>
      </trkpt>
      <trkpt lat="47.571372" lon="7.951351">
        <ele>458.207219</ele>
        <time>2021-11-18T22:11:40.414Z</time>
      </trkpt>
      <trkpt lat="47.571274" lon="7.951357">
        <ele>457.543530</ele>
        <time>2021-11-18T22:11:41.330Z</time>
      </trkpt>
      <trkpt lat="47.571169" lon="7.951380">
        <ele>456.825324</ele>
        <time>2021-11-18T22:11:42.270Z</time>
      </trkpt>
      <trkpt lat="47.571014" lon="7.951483">
        <ele>455.675923</ele>
        <time>2021-11-18T22:11:43.791Z</time>
      </trkpt>
      <trkpt lat="47.570777" lon="7.951728">
        <ele>453.720728</ele>
        <time>2021-11-18T22:11:46.387Z</time>
      </trkpt>
      <trkpt lat="47.570624" lon="7.952436">
        <ele>450.326767</ele>
        <time>2021-11-18T22:11:51.002Z</time>
      </trkpt>
      <trkpt lat="47.570406" lon="7.952888">
        <ele>447.752288</ele>
        <time>2021-11-18T22:11:54.347Z</time>
      </trkpt>
      <trkpt lat="47.570258" lon="7.953004">
        <ele>446.282005</ele>
        <time>2021-11-18T22:11:55.859Z</time>
      </trkpt>
      <trkpt lat="47.569504" lon="7.953105">
        <ele>439.633356</ele>
        <time>2021-11-18T22:12:02.528Z</time>
      </trkpt>
      <trkpt lat="47.569469" lon="7.953110">
        <ele>439.324560</ele>
        <time>2021-11-18T22:12:02.820Z</time>
      </trkpt>
      <trkpt lat="47.568801" lon="7.953205">
        <ele>433.431209</ele>
        <time>2021-11-18T22:12:08.659Z</time>
      </trkpt>
      <trkpt lat="47.568529" lon="7.953233">
        <ele>430.784245</ele>
        <time>2021-11-18T22:12:11.005Z</time>
      </trkpt>
      <trkpt lat="47.568322" lon="7.953261">
        <ele>428.534048</ele>
        <time>2021-11-18T22:12:12.775Z</time>
      </trkpt>
      <trkpt lat="47.568036" lon="7.953298">
        <ele>425.426175</ele>
        <time>2021-11-18T22:12:15.202Z</time>
      </trkpt>
      <trkpt lat="47.567660" lon="7.953207">
        <ele>421.301864</ele>
        <time>2021-11-18T22:12:18.450Z</time>
      </trkpt>
      <trkpt lat="47.567503" lon="7.953060">
        <ele>419.291507</ele>
        <time>2021-11-18T22:12:20.054Z</time>
      </trkpt>
      <trkpt lat="47.567451" lon="7.952996">
        <ele>418.559786</ele>
        <time>2021-11-18T22:12:20.611Z</time>
      </trkpt>
      <trkpt lat="47.567312" lon="7.952728">
        <ele>416.090737</ele>
        <time>2021-11-18T22:12:22.578Z</time>
      </trkpt>
      <trkpt lat="47.567222" lon="7.952062">
        <ele>411.342039</ele>
        <time>2021-11-18T22:12:26.477Z</time>
      </trkpt>
      <trkpt lat="47.567206" lon="7.950456">
        <ele>401.249387</ele>
        <time>2021-11-18T22:12:35.809Z</time>
      </trkpt>
      <trkpt lat="47.567150" lon="7.950174">
        <ele>399.402243</ele>
        <time>2021-11-18T22:12:37.554Z</time>
      </trkpt>
      <trkpt lat="47.566740" lon="7.949245">
        <ele>393.270284</ele>
        <time>2021-11-18T22:12:44.249Z</time>
      </trkpt>
      <trkpt lat="47.566807" lon="7.948128">
        <ele>387.934959</ele>
        <time>2021-11-18T22:12:51.139Z</time>
      </trkpt>
      <trkpt lat="47.566739" lon="7.947778">
        <ele>386.202100</ele>
        <time>2021-11-18T22:12:53.344Z</time>
      </trkpt>
      <trkpt lat="47.566559" lon="7.947459">
        <ele>384.223614</ele>
        <time>2021-11-18T22:12:55.816Z</time>
      </trkpt>
      <trkpt lat="47.566361" lon="7.947197">
        <ele>382.269573</ele>
        <time>2021-11-18T22:12:58.168Z</time>
      </trkpt>
      <trkpt lat="47.566181" lon="7.947137">
        <ele>380.844764</ele>
        <time>2021-11-18T22:12:59.857Z</time>
      </trkpt>
      <trkpt lat="47.566104" lon="7.947141">
        <ele>380.249752</ele>
        <time>2021-11-18T22:13:00.550Z</time>
      </trkpt>
      <trkpt lat="47.566041" lon="7.947154">
        <ele>379.758529</ele>
        <time>2021-11-18T22:13:01.101Z</time>
      </trkpt>
      <trkpt lat="47.566020" lon="7.947169">
        <ele>379.578500</ele>
        <time>2021-11-18T22:13:01.306Z</time>
      </trkpt>
      <trkpt lat="47.565946" lon="7.947239">
        <ele>378.900535</ele>
        <time>2021-11-18T22:13:02.111Z</time>
      </trkpt>
      <trkpt lat="47.565560" lon="7.947737">
        <ele>374.948307</ele>
        <time>2021-11-18T22:13:06.726Z</time>
      </trkpt>
      <trkpt lat="47.565487" lon="7.947832">
        <ele>374.198055</ele>
        <time>2021-11-18T22:13:07.566Z</time>
      </trkpt>
      <trkpt lat="47.565349" lon="7.947927">
        <ele>373.022964</ele>
        <time>2021-11-18T22:13:08.937Z</time>
      </trkpt>
      <trkpt lat="47.565219" lon="7.948009">
        <ele>371.931867</ele>
        <time>2021-11-18T22:13:10.183Z</time>
      </trkpt>
      <trkpt lat="47.565100" lon="7.948048">
        <ele>370.990665</ele>
        <time>2021-11-18T22:13:11.254Z</time>
      </trkpt>
      <trkpt lat="47.565021" lon="7.948043">
        <ele>370.380016</ele>
        <time>2021-11-18T22:13:11.947Z</time>
      </trkpt>
      <trkpt lat="47.564900" lon="7.948021">
        <ele>369.438565</ele>
        <time>2021-11-18T22:13:13.014Z</time>
      </trkpt>
      <trkpt lat="47.564785" lon="7.947966">
        <ele>368.369829</ele>
        <time>2021-11-18T22:13:14.045Z</time>
      </trkpt>
      <trkpt lat="47.564750" lon="7.947944">
        <ele>368.027793</ele>
        <time>2021-11-18T22:13:14.383Z</time>
      </trkpt>
      <trkpt lat="47.564704" lon="7.947878">
        <ele>367.451773</ele>
        <time>2021-11-18T22:13:14.946Z</time>
      </trkpt>
      <trkpt lat="47.564636" lon="7.947804">
        <ele>366.692779</ele>
        <time>2021-11-18T22:13:15.682Z</time>
      </trkpt>
      <trkpt lat="47.564602" lon="7.947749">
        <ele>366.239959</ele>
        <time>2021-11-18T22:13:16.117Z</time>
      </trkpt>
      <trkpt lat="47.564466" lon="7.947344">
        <ele>363.493727</ele>
        <time>2021-11-18T22:13:18.764Z</time>
      </trkpt>
      <trkpt lat="47.564404" lon="7.946994">
        <ele>361.297010</ele>
        <time>2021-11-18T22:13:20.882Z</time>
      </trkpt>
      <trkpt lat="47.564365" lon="7.946824">
        <ele>360.206987</ele>
        <time>2021-11-18T22:13:21.941Z</time>
      </trkpt>
      <trkpt lat="47.564271" lon="7.946559">
        <ele>358.389524</ele>
        <time>2021-11-18T22:13:23.707Z</time>
      </trkpt>
      <trkpt lat="47.564141" lon="7.946291">
        <ele>356.385823</ele>
        <time>2021-11-18T22:13:25.660Z</time>
      </trkpt>
      <trkpt lat="47.564119" lon="7.946229">
        <ele>355.960573</ele>
        <time>2021-11-18T22:13:26.063Z</time>
      </trkpt>
      <trkpt lat="47.564025" lon="7.945964">
        <ele>354.143103</ele>
        <time>2021-11-18T22:13:27.873Z</time>
      </trkpt>
      <trkpt lat="47.563874" lon="7.945541">
        <ele>351.400292</ele>
        <time>2021-11-18T22:13:30.653Z</time>
      </trkpt>
      <trkpt lat="47.563855" lon="7.945417">
        <ele>350.694056</ele>
        <time>2021-11-18T22:13:31.395Z</time>
      </trkpt>
      <trkpt lat="47.563798" lon="7.945261">
        <ele>349.708751</ele>
        <time>2021-11-18T22:13:32.407Z</time>
      </trkpt>
      <trkpt lat="47.563725" lon="7.945071">
        <ele>348.494404</ele>
        <time>2021-11-18T22:13:33.719Z</time>
      </trkpt>
      <trkpt lat="47.563643" lon="7.944887">
        <ele>347.269686</ele>
        <time>2021-11-18T22:13:35.008Z</time>
      </trkpt>
      <trkpt lat="47.563617" lon="7.944825">
        <ele>346.864251</ele>
        <time>2021-11-18T22:13:35.422Z</time>
      </trkpt>
      <trkpt lat="47.563376" lon="7.944323">
        <ele>343.442438</ele>
        <time>2021-11-18T22:13:39.068Z</time>
      </trkpt>
      <trkpt lat="47.563250" lon="7.944210">
        <ele>342.230208</ele>
        <time>2021-11-18T22:13:40.427Z</time>
      </trkpt>
      <trkpt lat="47.563121" lon="7.944175">
        <ele>341.150754</ele>
        <time>2021-11-18T22:13:41.571Z</time>
      </trkpt>
      <trkpt lat="47.562993" lon="7.944148">
        <ele>340.086560</ele>
        <time>2021-11-18T22:13:42.734Z</time>
      </trkpt>
      <trkpt lat="47.562431" lon="7.944285">
        <ele>335.993965</ele>
        <time>2021-11-18T22:13:47.944Z</time>
      </trkpt>
      <trkpt lat="47.562104" lon="7.944442">
        <ele>333.737340</ele>
        <time>2021-11-18T22:13:51.101Z</time>
      </trkpt>
      <trkpt lat="47.561884" lon="7.944575">
        <ele>332.177474</ele>
        <time>2021-11-18T22:13:53.298Z</time>
      </trkpt>
      <trkpt lat="47.561590" lon="7.944808">
        <ele>329.988680</ele>
        <time>2021-11-18T22:13:56.287Z</time>
      </trkpt>
      <trkpt lat="47.561549" lon="7.944844">
        <ele>329.675814</ele>
        <time>2021-11-18T22:13:56.767Z</time>
      </trkpt>
      <trkpt lat="47.561253" lon="7.945105">
        <ele>327.414585</ele>
        <time>2021-11-18T22:13:59.885Z</time>
      </trkpt>
      <trkpt lat="47.561051" lon="7.945242">
        <ele>325.812436</ele>
        <time>2021-11-18T22:14:01.850Z</time>
      </trkpt>
      <trkpt lat="47.560884" lon="7.945275">
        <ele>324.430356</ele>
        <time>2021-11-18T22:14:03.372Z</time>
      </trkpt>
      <trkpt lat="47.560748" lon="7.945268">
        <ele>323.314031</ele>
        <time>2021-11-18T22:14:04.577Z</time>
      </trkpt>
      <trkpt lat="47.560632" lon="7.945223">
        <ele>322.330381</ele>
        <time>2021-11-18T22:14:05.629Z</time>
      </trkpt>
      <trkpt lat="47.560464" lon="7.945085">
        <ele>320.754659</ele>
        <time>2021-11-18T22:14:07.342Z</time>
      </trkpt>
      <trkpt lat="47.560458" lon="7.945076">
        <ele>320.684625</ele>
        <time>2021-11-18T22:14:07.412Z</time>
      </trkpt>
      <trkpt lat="47.560288" lon="7.944850">
        <ele>318.811129</ele>
        <time>2021-11-18T22:14:09.423Z</time>
      </trkpt>
      <trkpt lat="47.560144" lon="7.944665">
        <ele>317.247729</ele>
        <time>2021-11-18T22:14:11.064Z</time>
      </trkpt>
      <trkpt lat="47.560106" lon="7.944624">
        <ele>316.862131</ele>
        <time>2021-11-18T22:14:11.463Z</time>
      </trkpt>
      <trkpt lat="47.559855" lon="7.944533">
        <ele>314.742370</ele>
        <time>2021-11-18T22:14:13.717Z</time>
      </trkpt>
      <trkpt lat="47.559774" lon="7.944500">
        <ele>314.053246</ele>
        <time>2021-11-18T22:14:14.451Z</time>
      </trkpt>
      <trkpt lat="47.559609" lon="7.944534">
        <ele>312.686674</ele>
        <time>2021-11-18T22:14:15.941Z</time>
      </trkpt>
      <trkpt lat="47.559263" lon="7.944710">
        <ele>310.295196</ele>
        <time>2021-11-18T22:14:19.149Z</time>
      </trkpt>
      <trkpt lat="47.559249" lon="7.944727">
        <ele>310.189981</ele>
        <time>2021-11-18T22:14:19.299Z</time>
      </trkpt>
      <trkpt lat="47.558967" lon="7.945068">
        <ele>308.074203</ele>
        <time>2021-11-18T22:14:22.571Z</time>
      </trkpt>
      <trkpt lat="47.558781" lon="7.945419">
        <ele>306.323526</ele>
        <time>2021-11-18T22:14:25.370Z</time>
      </trkpt>
      <trkpt lat="47.558676" lon="7.945591">
        <ele>305.413696</ele>
        <time>2021-11-18T22:14:26.810Z</time>
      </trkpt>
      <trkpt lat="47.558644" lon="7.945668">
        <ele>305.058958</ele>
        <time>2021-11-18T22:14:27.401Z</time>
      </trkpt>
      <trkpt lat="47.558608" lon="7.945765">
        <ele>304.624698</ele>
        <time>2021-11-18T22:14:28.118Z</time>
      </trkpt>
      <trkpt lat="47.558540" lon="7.945722">
        <ele>304.194929</ele>
        <time>2021-11-18T22:14:28.827Z</time>
      </trkpt>
      <trkpt lat="47.558415" lon="7.945666">
        <ele>303.435825</ele>
        <time>2021-11-18T22:14:30.041Z</time>
      </trkpt>
      <trkpt lat="47.558161" lon="7.945614">
        <ele>301.945305</ele>
        <time>2021-11-18T22:14:32.673Z</time>
      </trkpt>
      <trkpt lat="47.558102" lon="7.945615">
        <ele>301.602317</ele>
        <time>2021-11-18T22:14:33.194Z</time>
      </trkpt>
      <trkpt lat="47.558009" lon="7.945617">
        <ele>301.199845</ele>
        <time>2021-11-18T22:14:34.127Z</time>
      </trkpt>
      <trkpt lat="47.557910" lon="7.945625">
        <ele>300.929678</ele>
        <time>2021-11-18T22:14:35.137Z</time>
      </trkpt>
      <trkpt lat="47.557744" lon="7.945674">
        <ele>300.468455</ele>
        <time>2021-11-18T22:14:36.856Z</time>
      </trkpt>
      <trkpt lat="47.557613" lon="7.945697">
        <ele>300.108995</ele>
        <time>2021-11-18T22:14:38.241Z</time>
      </trkpt>
      <trkpt lat="47.557529" lon="7.945747">
        <ele>299.862326</ele>
        <time>2021-11-18T22:14:39.190Z</time>
      </trkpt>
      <trkpt lat="47.557446" lon="7.945795">
        <ele>299.619544</ele>
        <time>2021-11-18T22:14:40.139Z</time>
      </trkpt>
      <trkpt lat="47.557361" lon="7.945867">
        <ele>299.352754</ele>
        <time>2021-11-18T22:14:41.172Z</time>
      </trkpt>
      <trkpt lat="47.557315" lon="7.945902">
        <ele>299.211850</ele>
        <time>2021-11-18T22:14:41.704Z</time>
      </trkpt>
      <trkpt lat="47.557212" lon="7.946010">
        <ele>298.868024</ele>
        <time>2021-11-18T22:14:43.032Z</time>
      </trkpt>
      <trkpt lat="47.557111" lon="7.946129">
        <ele>298.516412</ele>
        <time>2021-11-18T22:14:44.421Z</time>
      </trkpt>
      <trkpt lat="47.557079" lon="7.946167">
        <ele>298.404669</ele>
        <time>2021-11-18T22:14:44.870Z</time>
      </trkpt>
      <trkpt lat="47.557026" lon="7.946287">
        <ele>298.140941</ele>
        <time>2021-11-18T22:14:45.877Z</time>
      </trkpt>
      <trkpt lat="47.556890" lon="7.946422">
        <ele>297.694885</ele>
        <time>2021-11-18T22:14:47.642Z</time>
      </trkpt>
      <trkpt lat="47.556716" lon="7.946585">
        <ele>297.133947</ele>
        <time>2021-11-18T22:14:49.816Z</time>
      </trkpt>
      <trkpt lat="47.556160" lon="7.947027">
        <ele>295.646482</ele>
        <time>2021-11-18T22:14:56.654Z</time>
      </trkpt>
      <trkpt lat="47.556050" lon="7.947125">
        <ele>295.377339</ele>
        <time>2021-11-18T22:14:57.981Z</time>
      </trkpt>
      <trkpt lat="47.556009" lon="7.947161">
        <ele>295.277405</ele>
        <time>2021-11-18T22:14:58.499Z</time>
      </trkpt>
      <trkpt lat="47.555912" lon="7.947254">
        <ele>295.035139</ele>
        <time>2021-11-18T22:14:59.802Z</time>
      </trkpt>
      <trkpt lat="47.555846" lon="7.947320">
        <ele>294.868175</ele>
        <time>2021-11-18T22:15:00.690Z</time>
      </trkpt>
      <trkpt lat="47.555751" lon="7.947427">
        <ele>294.617951</ele>
        <time>2021-11-18T22:15:01.916Z</time>
      </trkpt>
      <trkpt lat="47.555636" lon="7.947544">
        <ele>294.325435</ele>
        <time>2021-11-18T22:15:03.454Z</time>
      </trkpt>
      <trkpt lat="47.555582" lon="7.947589">
        <ele>294.195523</ele>
        <time>2021-11-18T22:15:04.144Z</time>
      </trkpt>
      <trkpt lat="47.555417" lon="7.947683">
        <ele>293.824840</ele>
        <time>2021-11-18T22:15:05.992Z</time>
      </trkpt>
      <trkpt lat="47.555379" lon="7.947702">
        <ele>293.740743</ele>
        <time>2021-11-18T22:15:06.444Z</time>
      </trkpt>
      <trkpt lat="47.555306" lon="7.947738">
        <ele>293.579413</ele>
        <time>2021-11-18T22:15:07.315Z</time>
      </trkpt>
      <trkpt lat="47.555286" lon="7.947750">
        <ele>293.534167</ele>
        <time>2021-11-18T22:15:07.556Z</time>
      </trkpt>
      <trkpt lat="47.554903" lon="7.947916">
        <ele>292.697395</ele>
        <time>2021-11-18T22:15:11.951Z</time>
      </trkpt>
      <trkpt lat="47.554810" lon="7.947963">
        <ele>292.586761</ele>
        <time>2021-11-18T22:15:13.028Z</time>
      </trkpt>
      <trkpt lat="47.554749" lon="7.947993">
        <ele>292.533534</ele>
        <time>2021-11-18T22:15:13.700Z</time>
      </trkpt>
      <trkpt lat="47.554731" lon="7.947945">
        <ele>292.502844</ele>
        <time>2021-11-18T22:15:14.106Z</time>
      </trkpt>
      <trkpt lat="47.554614" lon="7.947707">
        <ele>292.338276</ele>
        <time>2021-11-18T22:15:16.541Z</time>
      </trkpt>
      <trkpt lat="47.554563" lon="7.947632">
        <ele>292.278769</ele>
        <time>2021-11-18T22:15:17.387Z</time>
      </trkpt>
      <trkpt lat="47.554517" lon="7.947576">
        <ele>292.229466</ele>
        <time>2021-11-18T22:15:18.061Z</time>
      </trkpt>
      <trkpt lat="47.554475" lon="7.947529">
        <ele>292.185879</ele>
        <time>2021-11-18T22:15:18.673Z</time>
      </trkpt>
      <trkpt lat="47.554446" lon="7.947485">
        <ele>292.151505</ele>
        <time>2021-11-18T22:15:19.245Z</time>
      </trkpt>
      <trkpt lat="47.554411" lon="7.947434">
        <ele>292.110852</ele>
        <time>2021-11-18T22:15:19.879Z</time>
      </trkpt>
      <trkpt lat="47.554335" lon="7.947299">
        <ele>292.012595</ele>
        <time>2021-11-18T22:15:21.387Z</time>
      </trkpt>
      <trkpt lat="47.554307" lon="7.947234">
        <ele>291.969496</ele>
        <time>2021-11-18T22:15:22.008Z</time>
      </trkpt>
      <trkpt lat="47.554239" lon="7.947057">
        <ele>291.855663</ele>
        <time>2021-11-18T22:15:23.782Z</time>
      </trkpt>
      <trkpt lat="47.554191" lon="7.946913">
        <ele>291.765899</ele>
        <time>2021-11-18T22:15:25.267Z</time>
      </trkpt>
      <trkpt lat="47.554125" lon="7.946712">
        <ele>291.640966</ele>
        <time>2021-11-18T22:15:27.163Z</time>
      </trkpt>
      <trkpt lat="47.554096" lon="7.946611">
        <ele>291.579620</ele>
        <time>2021-11-18T22:15:28.117Z</time>
      </trkpt>
      <trkpt lat="47.554047" lon="7.946318">
        <ele>291.410905</ele>
        <time>2021-11-18T22:15:31.030Z</time>
      </trkpt>
      <trkpt lat="47.554024" lon="7.946113">
        <ele>291.294756</ele>
        <time>2021-11-18T22:15:32.834Z</time>
      </trkpt>
      <trkpt lat="47.554016" lon="7.946027">
        <ele>291.246235</ele>
        <time>2021-11-18T22:15:33.857Z</time>
      </trkpt>
      <trkpt lat="47.553951" lon="7.945209">
        <ele>291.325595</ele>
        <time>2021-11-18T22:15:42.093Z</time>
      </trkpt>
      <trkpt lat="47.553938" lon="7.945102">
        <ele>291.352610</ele>
        <time>2021-11-18T22:15:43.211Z</time>
      </trkpt>
      <trkpt lat="47.553910" lon="7.944904">
        <ele>291.402880</ele>
        <time>2021-11-18T22:15:45.596Z</time>
      </trkpt>
      <trkpt lat="47.553897" lon="7.944841">
        <ele>291.419250</ele>
        <time>2021-11-18T22:15:46.323Z</time>
      </trkpt>
      <trkpt lat="47.553823" lon="7.944597">
        <ele>291.485722</ele>
        <time>2021-11-18T22:15:49.108Z</time>
      </trkpt>
      <trkpt lat="47.553760" lon="7.944488">
        <ele>291.521382</ele>
        <time>2021-11-18T22:15:50.866Z</time>
      </trkpt>
      <trkpt lat="47.553682" lon="7.944376">
        <ele>291.561374</ele>
        <time>2021-11-18T22:15:52.748Z</time>
      </trkpt>
      <trkpt lat="47.553563" lon="7.944220">
        <ele>291.619875</ele>
        <time>2021-11-18T22:15:55.366Z</time>
      </trkpt>
      <trkpt lat="47.553453" lon="7.944106">
        <ele>291.669300</ele>
        <time>2021-11-18T22:15:57.895Z</time>
      </trkpt>
      <trkpt lat="47.552727" lon="7.943506">
        <ele>291.893892</ele>
        <time>2021-11-18T22:16:12.456Z</time>
      </trkpt>
      <trkpt lat="47.552150" lon="7.942963">
        <ele>292.012094</ele>
        <time>2021-11-18T22:16:23.779Z</time>
      </trkpt>
      <trkpt lat="47.551778" lon="7.942684">
        <ele>292.084194</ele>
        <time>2021-11-18T22:16:29.765Z</time>
      </trkpt>
      <trkpt lat="47.551689" lon="7.942595">
        <ele>292.102762</ele>
        <time>2021-11-18T22:16:31.252Z</time>
      </trkpt>
      <trkpt lat="47.551345" lon="7.942294">
        <ele>291.830946</ele>
        <time>2021-11-18T22:16:36.531Z</time>
      </trkpt>
      <trkpt lat="47.551021" lon="7.942011">
        <ele>291.328709</ele>
        <time>2021-11-18T22:16:41.280Z</time>
      </trkpt>
      <trkpt lat="47.550810" lon="7.941838">
        <ele>291.006686</ele>
        <time>2021-11-18T22:16:44.202Z</time>
      </trkpt>
      <trkpt lat="47.550734" lon="7.941776">
        <ele>290.890833</ele>
        <time>2021-11-18T22:16:45.173Z</time>
      </trkpt>
      <trkpt lat="47.550392" lon="7.941462">
        <ele>290.353568</ele>
        <time>2021-11-18T22:16:49.795Z</time>
      </trkpt>
      <trkpt lat="47.550283" lon="7.941362">
        <ele>290.182371</ele>
        <time>2021-11-18T22:16:51.216Z</time>
      </trkpt>
      <trkpt lat="47.550265" lon="7.941346">
        <ele>290.154340</ele>
        <time>2021-11-18T22:16:51.447Z</time>
      </trkpt>
      <trkpt lat="47.549622" lon="7.940782">
        <ele>288.898864</ele>
        <time>2021-11-18T22:16:59.446Z</time>
      </trkpt>
      <trkpt lat="47.549495" lon="7.940673">
        <ele>288.614964</ele>
        <time>2021-11-18T22:17:01.008Z</time>
      </trkpt>
      <trkpt lat="47.549363" lon="7.940557">
        <ele>288.318098</ele>
        <time>2021-11-18T22:17:02.649Z</time>
      </trkpt>
      <trkpt lat="47.549121" lon="7.940344">
        <ele>287.773621</ele>
        <time>2021-11-18T22:17:05.738Z</time>
      </trkpt>
      <trkpt lat="47.549016" lon="7.940247">
        <ele>287.534269</ele>
        <time>2021-11-18T22:17:07.063Z</time>
      </trkpt>
      <trkpt lat="47.548784" lon="7.940080">
        <ele>287.035345</ele>
        <time>2021-11-18T22:17:09.929Z</time>
      </trkpt>
      <trkpt lat="47.548673" lon="7.939890">
        <ele>286.707267</ele>
        <time>2021-11-18T22:17:11.822Z</time>
      </trkpt>
      <trkpt lat="47.548643" lon="7.939810">
        <ele>286.587782</ele>
        <time>2021-11-18T22:17:12.532Z</time>
      </trkpt>
      <trkpt lat="47.548614" lon="7.939778">
        <ele>286.517838</ele>
        <time>2021-11-18T22:17:12.949Z</time>
      </trkpt>
      <trkpt lat="47.548563" lon="7.939753">
        <ele>286.413928</ele>
        <time>2021-11-18T22:17:13.568Z</time>
      </trkpt>
      <trkpt lat="47.548509" lon="7.939765">
        <ele>286.308307</ele>
        <time>2021-11-18T22:17:14.173Z</time>
      </trkpt>
      <trkpt lat="47.548479" lon="7.939789">
        <ele>286.250600</ele>
        <time>2021-11-18T22:17:14.551Z</time>
      </trkpt>
      <trkpt lat="47.548455" lon="7.939823">
        <ele>286.242402</ele>
        <time>2021-11-18T22:17:14.937Z</time>
      </trkpt>
      <trkpt lat="47.548437" lon="7.939866">
        <ele>286.233970</ele>
        <time>2021-11-18T22:17:15.338Z</time>
      </trkpt>
      <trkpt lat="47.548426" lon="7.939924">
        <ele>286.223931</ele>
        <time>2021-11-18T22:17:15.810Z</time>
      </trkpt>
      <trkpt lat="47.548427" lon="7.939957">
        <ele>286.218426</ele>
        <time>2021-11-18T22:17:16.085Z</time>
      </trkpt>
      <trkpt lat="47.548446" lon="7.940038">
        <ele>286.204136</ele>
        <time>2021-11-18T22:17:16.762Z</time>
      </trkpt>
      <trkpt lat="47.548468" lon="7.940081">
        <ele>286.195145</ele>
        <time>2021-11-18T22:17:17.203Z</time>
      </trkpt>
      <trkpt lat="47.548420" lon="7.940256">
        <ele>286.163667</ele>
        <time>2021-11-18T22:17:18.704Z</time>
      </trkpt>
      <trkpt lat="47.548303" lon="7.940599">
        <ele>286.099626</ele>
        <time>2021-11-18T22:17:22.173Z</time>
      </trkpt>
      <trkpt lat="47.548195" lon="7.940950">
        <ele>286.035345</ele>
        <time>2021-11-18T22:17:25.742Z</time>
      </trkpt>
      <trkpt lat="47.547852" lon="7.942144">
        <ele>285.819105</ele>
        <time>2021-11-18T22:17:39.840Z</time>
      </trkpt>
      <trkpt lat="47.547772" lon="7.942416">
        <ele>285.891859</ele>
        <time>2021-11-18T22:17:43.456Z</time>
      </trkpt>
      <trkpt lat="47.547436" lon="7.943731">
        <ele>286.409326</ele>
        <time>2021-11-18T22:18:00.452Z</time>
      </trkpt>
      <trkpt lat="47.547380" lon="7.943952">
        <ele>286.496203</ele>
        <time>2021-11-18T22:18:03.263Z</time>
      </trkpt>
      <trkpt lat="47.547280" lon="7.944357">
        <ele>286.654913</ele>
        <time>2021-11-18T22:18:08.172Z</time>
      </trkpt>
      <trkpt lat="47.547254" lon="7.944465">
        <ele>286.697112</ele>
        <time>2021-11-18T22:18:09.398Z</time>
      </trkpt>
      <trkpt lat="47.547245" lon="7.944501">
        <ele>286.711241</ele>
        <time>2021-11-18T22:18:09.793Z</time>
      </trkpt>
      <trkpt lat="47.547186" lon="7.944630">
        <ele>286.768589</ele>
        <time>2021-11-18T22:18:11.381Z</time>
      </trkpt>
      <trkpt lat="47.547164" lon="7.944724">
        <ele>286.815803</ele>
        <time>2021-11-18T22:18:12.439Z</time>
      </trkpt>
      <trkpt lat="47.547155" lon="7.944757">
        <ele>286.837185</ele>
        <time>2021-11-18T22:18:12.856Z</time>
      </trkpt>
      <trkpt lat="47.547020" lon="7.945146">
        <ele>287.099946</ele>
        <time>2021-11-18T22:18:17.187Z</time>
      </trkpt>
      <trkpt lat="47.546975" lon="7.945238">
        <ele>287.168198</ele>
        <time>2021-11-18T22:18:18.299Z</time>
      </trkpt>
      <trkpt lat="47.546915" lon="7.945468">
        <ele>287.316326</ele>
        <time>2021-11-18T22:18:20.529Z</time>
      </trkpt>
      <trkpt lat="47.546868" lon="7.945669">
        <ele>287.444113</ele>
        <time>2021-11-18T22:18:22.759Z</time>
      </trkpt>
      <trkpt lat="47.546859" lon="7.945706">
        <ele>287.467739</ele>
        <time>2021-11-18T22:18:23.220Z</time>
      </trkpt>
      <trkpt lat="47.546795" lon="7.946005">
        <ele>287.656173</ele>
        <time>2021-11-18T22:18:26.510Z</time>
      </trkpt>
      <trkpt lat="47.546735" lon="7.946282">
        <ele>287.830933</ele>
        <time>2021-11-18T22:18:30.189Z</time>
      </trkpt>
      <trkpt lat="47.546664" lon="7.946504">
        <ele>287.978509</ele>
        <time>2021-11-18T22:18:33.224Z</time>
      </trkpt>
      <trkpt lat="47.546655" lon="7.946544">
        <ele>288.003838</ele>
        <time>2021-11-18T22:18:33.788Z</time>
      </trkpt>
      <trkpt lat="47.546592" lon="7.946809">
        <ele>288.172617</ele>
        <time>2021-11-18T22:18:37.911Z</time>
      </trkpt>
      <trkpt lat="47.546633" lon="7.946946">
        <ele>288.262644</ele>
        <time>2021-11-18T22:18:40.092Z</time>
      </trkpt>
      <trkpt lat="47.546648" lon="7.947009">
        <ele>288.302776</ele>
        <time>2021-11-18T22:18:41.018Z</time>
      </trkpt>
      <trkpt lat="47.546651" lon="7.947115">
        <ele>288.366510</ele>
        <time>2021-11-18T22:18:42.741Z</time>
      </trkpt>
      <trkpt lat="47.546572" lon="7.947545">
        <ele>289.356039</ele>
        <time>2021-11-18T22:18:49.933Z</time>
      </trkpt>
      <trkpt lat="47.546159" lon="7.949303">
        <ele>293.768643</ele>
        <time>2021-11-18T22:19:28.141Z</time>
      </trkpt>
      <trkpt lat="47.545949" lon="7.950185">
        <ele>295.524302</ele>
        <time>2021-11-18T22:19:48.413Z</time>
      </trkpt>
      <trkpt lat="47.545884" lon="7.950363">
        <ele>295.831075</ele>
        <time>2021-11-18T22:19:52.345Z</time>
      </trkpt>
      <trkpt lat="47.545822" lon="7.950627">
        <ele>296.254788</ele>
        <time>2021-11-18T22:19:57.648Z</time>
      </trkpt>
      <trkpt lat="47.545810" lon="7.950694">
        <ele>296.359864</ele>
        <time>2021-11-18T22:19:58.879Z</time>
      </trkpt>
      <trkpt lat="47.545763" lon="7.950733">
        <ele>296.480840</ele>
        <time>2021-11-18T22:20:00.387Z</time>
      </trkpt>
      <trkpt lat="47.545659" lon="7.950771">
        <ele>296.721391</ele>
        <time>2021-11-18T22:20:02.772Z</time>
      </trkpt>
      <trkpt lat="47.545625" lon="7.950771">
        <ele>296.797745</ele>
        <time>2021-11-18T22:20:03.579Z</time>
      </trkpt>
      <trkpt lat="47.545567" lon="7.950765">
        <ele>296.928313</ele>
        <time>2021-11-18T22:20:05.015Z</time>
      </trkpt>
      <trkpt lat="47.545494" lon="7.950684">
        <ele>297.133132</ele>
        <time>2021-11-18T22:20:07.187Z</time>
      </trkpt>
      <trkpt lat="47.545434" lon="7.950668">
        <ele>297.270039</ele>
        <time>2021-11-18T22:20:08.691Z</time>
      </trkpt>
      <trkpt lat="47.545166" lon="7.950366">
        <ele>298.026208</ele>
        <time>2021-11-18T22:20:15.453Z</time>
      </trkpt>
      <trkpt lat="47.544901" lon="7.950044">
        <ele>298.753029</ele>
        <time>2021-11-18T22:20:21.082Z</time>
      </trkpt>
      <trkpt lat="47.544521" lon="7.949558">
        <ele>298.927941</ele>
        <time>2021-11-18T22:20:27.814Z</time>
      </trkpt>
      <trkpt lat="47.544486" lon="7.949514">
        <ele>298.943935</ele>
        <time>2021-11-18T22:20:28.381Z</time>
      </trkpt>
      <trkpt lat="47.544239" lon="7.949202">
        <ele>299.057030</ele>
        <time>2021-11-18T22:20:32.769Z</time>
      </trkpt>
      <trkpt lat="47.543864" lon="7.948694">
        <ele>299.234078</ele>
        <time>2021-11-18T22:20:40.680Z</time>
      </trkpt>
      <trkpt lat="47.543760" lon="7.948548">
        <ele>299.283999</ele>
        <time>2021-11-18T22:20:42.978Z</time>
      </trkpt>
      <trkpt lat="47.543579" lon="7.948287">
        <ele>299.372989</ele>
        <time>2021-11-18T22:20:48.653Z</time>
      </trkpt>
      <trkpt lat="47.543532" lon="7.948214">
        <ele>299.536306</ele>
        <time>2021-11-18T22:20:49.806Z</time>
      </trkpt>
      <trkpt lat="47.543435" lon="7.948000">
        <ele>299.953614</ele>
        <time>2021-11-18T22:20:52.795Z</time>
      </trkpt>
      <trkpt lat="47.543407" lon="7.947938">
        <ele>300.074379</ele>
        <time>2021-11-18T22:20:54.673Z</time>
      </trkpt>
      <trkpt lat="47.543280" lon="7.947656">
        <ele>300.623194</ele>
        <time>2021-11-18T22:20:59.249Z</time>
      </trkpt>
      <trkpt lat="47.543142" lon="7.947250">
        <ele>301.359103</ele>
        <time>2021-11-18T22:21:06.718Z</time>
      </trkpt>
      <trkpt lat="47.543086" lon="7.947052">
        <ele>301.706650</ele>
        <time>2021-11-18T22:21:10.148Z</time>
      </trkpt>
      <trkpt lat="47.543056" lon="7.946935">
        <ele>301.909270</ele>
        <time>2021-11-18T22:21:12.990Z</time>
      </trkpt>
      <trkpt lat="47.543045" lon="7.946881">
        <ele>302.000586</ele>
        <time>2021-11-18T22:21:14.146Z</time>
      </trkpt>
      <trkpt lat="47.542982" lon="7.946547">
        <ele>302.562023</ele>
        <time>2021-11-18T22:21:19.546Z</time>
      </trkpt>
      <trkpt lat="47.542974" lon="7.946495">
        <ele>302.648367</ele>
        <time>2021-11-18T22:21:21.187Z</time>
      </trkpt>
      <trkpt lat="47.542960" lon="7.946400">
        <ele>302.805788</ele>
        <time>2021-11-18T22:21:23.252Z</time>
      </trkpt>
      <trkpt lat="47.542916" lon="7.945730">
        <ele>303.842100</ele>
        <time>2021-11-18T22:21:35.918Z</time>
      </trkpt>
      <trkpt lat="47.542913" lon="7.945267">
        <ele>304.400816</ele>
        <time>2021-11-18T22:21:44.413Z</time>
      </trkpt>
      <trkpt lat="47.543007" lon="7.943867">
        <ele>306.098496</ele>
        <time>2021-11-18T22:22:05.580Z</time>
      </trkpt>
      <trkpt lat="47.543161" lon="7.942213">
        <ele>306.502195</ele>
        <time>2021-11-18T22:22:23.986Z</time>
      </trkpt>
      <trkpt lat="47.543435" lon="7.940670">
        <ele>305.869436</ele>
        <time>2021-11-18T22:22:36.934Z</time>
      </trkpt>
      <trkpt lat="47.543826" lon="7.939433">
        <ele>304.341118</ele>
        <time>2021-11-18T22:22:47.335Z</time>
      </trkpt>
      <trkpt lat="47.544472" lon="7.937932">
        <ele>302.278256</ele>
        <time>2021-11-18T22:23:00.659Z</time>
      </trkpt>
      <trkpt lat="47.544705" lon="7.937395">
        <ele>301.529507</ele>
        <time>2021-11-18T22:23:05.499Z</time>
      </trkpt>
      <trkpt lat="47.544903" lon="7.936917">
        <ele>300.871714</ele>
        <time>2021-11-18T22:23:09.759Z</time>
      </trkpt>
      <trkpt lat="47.545074" lon="7.936484">
        <ele>300.283316</ele>
        <time>2021-11-18T22:23:13.590Z</time>
      </trkpt>
      <trkpt lat="47.545457" lon="7.935110">
        <ele>299.102575</ele>
        <time>2021-11-18T22:23:24.959Z</time>
      </trkpt>
      <trkpt lat="47.545674" lon="7.933625">
        <ele>298.230129</ele>
        <time>2021-11-18T22:23:38.039Z</time>
      </trkpt>
      <trkpt lat="47.545702" lon="7.933290">
        <ele>298.231559</ele>
        <time>2021-11-18T22:23:41.619Z</time>
      </trkpt>
      <trkpt lat="47.545724" lon="7.932758">
        <ele>298.711479</ele>
        <time>2021-11-18T22:23:47.886Z</time>
      </trkpt>
      <trkpt lat="47.545721" lon="7.931992">
        <ele>299.401211</ele>
        <time>2021-11-18T22:23:57.925Z</time>
      </trkpt>
      <trkpt lat="47.545696" lon="7.931497">
        <ele>299.848163</ele>
        <time>2021-11-18T22:24:05.131Z</time>
      </trkpt>
      <trkpt lat="47.545661" lon="7.930955">
        <ele>300.338418</ele>
        <time>2021-11-18T22:24:13.826Z</time>
      </trkpt>
      <trkpt lat="47.545563" lon="7.929641">
        <ele>301.486364</ele>
        <time>2021-11-18T22:24:36.166Z</time>
      </trkpt>
      <trkpt lat="47.545475" lon="7.928419">
        <ele>302.546790</ele>
        <time>2021-11-18T22:24:52.468Z</time>
      </trkpt>
      <trkpt lat="47.545421" lon="7.927686">
        <ele>302.099092</ele>
        <time>2021-11-18T22:24:58.572Z</time>
      </trkpt>
      <trkpt lat="47.545406" lon="7.927306">
        <ele>301.470838</ele>
        <time>2021-11-18T22:25:01.475Z</time>
      </trkpt>
      <trkpt lat="47.545407" lon="7.927001">
        <ele>300.967436</ele>
        <time>2021-11-18T22:25:03.762Z</time>
      </trkpt>
      <trkpt lat="47.545409" lon="7.926773">
        <ele>300.591095</ele>
        <time>2021-11-18T22:25:05.391Z</time>
      </trkpt>
      <trkpt lat="47.545417" lon="7.925848">
        <ele>299.064276</ele>
        <time>2021-11-18T22:25:11.726Z</time>
      </trkpt>
      <trkpt lat="47.545446" lon="7.925350">
        <ele>298.165490</ele>
        <time>2021-11-18T22:25:15.018Z</time>
      </trkpt>
      <trkpt lat="47.545466" lon="7.924880">
        <ele>297.057994</ele>
        <time>2021-11-18T22:25:18.071Z</time>
      </trkpt>
      <trkpt lat="47.545481" lon="7.924396">
        <ele>295.918569</ele>
        <time>2021-11-18T22:25:21.155Z</time>
      </trkpt>
      <trkpt lat="47.545521" lon="7.923709">
        <ele>294.296949</ele>
        <time>2021-11-18T22:25:25.680Z</time>
      </trkpt>
      <trkpt lat="47.545536" lon="7.923407">
        <ele>293.584815</ele>
        <time>2021-11-18T22:25:28.070Z</time>
      </trkpt>
      <trkpt lat="47.545553" lon="7.923142">
        <ele>292.958805</ele>
        <time>2021-11-18T22:25:29.791Z</time>
      </trkpt>
      <trkpt lat="47.545587" lon="7.922895">
        <ele>292.365980</ele>
        <time>2021-11-18T22:25:32.192Z</time>
      </trkpt>
      <trkpt lat="47.545641" lon="7.922610">
        <ele>291.982836</ele>
        <time>2021-11-18T22:25:34.191Z</time>
      </trkpt>
      <trkpt lat="47.545690" lon="7.922369">
        <ele>291.779572</ele>
        <time>2021-11-18T22:25:36.882Z</time>
      </trkpt>
      <trkpt lat="47.545699" lon="7.922325">
        <ele>291.742443</ele>
        <time>2021-11-18T22:25:37.143Z</time>
      </trkpt>
      <trkpt lat="47.545714" lon="7.922249">
        <ele>291.678497</ele>
        <time>2021-11-18T22:25:37.733Z</time>
      </trkpt>
      <trkpt lat="47.545778" lon="7.921947">
        <ele>291.422872</ele>
        <time>2021-11-18T22:25:40.889Z</time>
      </trkpt>
      <trkpt lat="47.545810" lon="7.921755">
        <ele>291.263160</ele>
        <time>2021-11-18T22:25:42.246Z</time>
      </trkpt>
      <trkpt lat="47.545881" lon="7.921096">
        <ele>290.724231</ele>
        <time>2021-11-18T22:25:47.595Z</time>
      </trkpt>
      <trkpt lat="47.545913" lon="7.920765">
        <ele>290.454196</ele>
        <time>2021-11-18T22:25:50.461Z</time>
      </trkpt>
      <trkpt lat="47.545973" lon="7.920313">
        <ele>290.082181</ele>
        <time>2021-11-18T22:25:55.609Z</time>
      </trkpt>
      <trkpt lat="47.546128" lon="7.919617">
        <ele>289.828068</ele>
        <time>2021-11-18T22:26:02.072Z</time>
      </trkpt>
      <trkpt lat="47.546262" lon="7.919081">
        <ele>289.675623</ele>
        <time>2021-11-18T22:26:08.071Z</time>
      </trkpt>
      <trkpt lat="47.546821" lon="7.916867">
        <ele>289.032375</ele>
        <time>2021-11-18T22:26:28.823Z</time>
      </trkpt>
      <trkpt lat="47.547032" lon="7.916218">
        <ele>288.829948</ele>
        <time>2021-11-18T22:26:35.314Z</time>
      </trkpt>
      <trkpt lat="47.547091" lon="7.916039">
        <ele>288.773971</ele>
        <time>2021-11-18T22:26:37.132Z</time>
      </trkpt>
      <trkpt lat="47.547113" lon="7.915971">
        <ele>288.752781</ele>
        <time>2021-11-18T22:26:37.730Z</time>
      </trkpt>
      <trkpt lat="47.547423" lon="7.915080">
        <ele>288.590482</ele>
        <time>2021-11-18T22:26:47.374Z</time>
      </trkpt>
      <trkpt lat="47.547994" lon="7.913433">
        <ele>289.040259</ele>
        <time>2021-11-18T22:27:07.094Z</time>
      </trkpt>
      <trkpt lat="47.548027" lon="7.913334">
        <ele>289.067080</ele>
        <time>2021-11-18T22:27:08.453Z</time>
      </trkpt>
      <trkpt lat="47.548412" lon="7.912168">
        <ele>289.788823</ele>
        <time>2021-11-18T22:27:24.856Z</time>
      </trkpt>
      <trkpt lat="47.549012" lon="7.910340">
        <ele>291.329719</ele>
        <time>2021-11-18T22:27:51.711Z</time>
      </trkpt>
      <trkpt lat="47.549102" lon="7.910058">
        <ele>291.630498</ele>
        <time>2021-11-18T22:27:55.943Z</time>
      </trkpt>
      <trkpt lat="47.549179" lon="7.909808">
        <ele>291.895469</ele>
        <time>2021-11-18T22:27:59.362Z</time>
      </trkpt>
      <trkpt lat="47.549195" lon="7.909756">
        <ele>291.950573</ele>
        <time>2021-11-18T22:28:00.206Z</time>
      </trkpt>
      <trkpt lat="47.549237" lon="7.909617">
        <ele>292.097419</ele>
        <time>2021-11-18T22:28:02.263Z</time>
      </trkpt>
      <trkpt lat="47.549315" lon="7.909358">
        <ele>292.370886</ele>
        <time>2021-11-18T22:28:05.739Z</time>
      </trkpt>
      <trkpt lat="47.549420" lon="7.909009">
        <ele>292.739320</ele>
        <time>2021-11-18T22:28:10.755Z</time>
      </trkpt>
      <trkpt lat="47.549520" lon="7.908678">
        <ele>293.088993</ele>
        <time>2021-11-18T22:28:15.552Z</time>
      </trkpt>
      <trkpt lat="47.549539" lon="7.908625">
        <ele>293.146858</ele>
        <time>2021-11-18T22:28:16.290Z</time>
      </trkpt>
      <trkpt lat="47.550497" lon="7.905558">
        <ele>298.373724</ele>
        <time>2021-11-18T22:29:11.153Z</time>
      </trkpt>
      <trkpt lat="47.550283" lon="7.905413">
        <ele>299.246559</ele>
        <time>2021-11-18T22:29:19.320Z</time>
      </trkpt>
      <trkpt lat="47.550067" lon="7.905245">
        <ele>300.151431</ele>
        <time>2021-11-18T22:29:28.006Z</time>
      </trkpt>
      <trkpt lat="47.549867" lon="7.905155">
        <ele>300.926733</ele>
        <time>2021-11-18T22:29:35.634Z</time>
      </trkpt>
      <trkpt lat="47.549868" lon="7.905010">
        <ele>301.289762</ele>
        <time>2021-11-18T22:29:39.039Z</time>
      </trkpt>
      <trkpt lat="47.550025" lon="7.904774">
        <ele>302.119342</ele>
        <time>2021-11-18T22:29:47.191Z</time>
      </trkpt>
      <trkpt lat="47.550302" lon="7.904164">
        <ele>303.959938</ele>
        <time>2021-11-18T22:30:05.490Z</time>
      </trkpt>
      <trkpt lat="47.550498" lon="7.903445">
        <ele>305.887313</ele>
        <time>2021-11-18T22:30:25.062Z</time>
      </trkpt>
      <trkpt lat="47.550688" lon="7.902451">
        <ele>308.442901</ele>
        <time>2021-11-18T22:30:47.610Z</time>
      </trkpt>
      <trkpt lat="47.550757" lon="7.901591">
        <ele>310.585277</ele>
        <time>2021-11-18T22:31:07.406Z</time>
      </trkpt>
      <trkpt lat="47.550769" lon="7.901362">
        <ele>311.153462</ele>
        <time>2021-11-18T22:31:13.314Z</time>
      </trkpt>
      <trkpt lat="47.550801" lon="7.900244">
        <ele>314.340683</ele>
        <time>2021-11-18T22:31:37.712Z</time>
      </trkpt>
      <trkpt lat="47.550819" lon="7.898109">
        <ele>319.902217</ele>
        <time>2021-11-18T22:32:24.752Z</time>
      </trkpt>
      <trkpt lat="47.550648" lon="7.896481">
        <ele>322.823557</ele>
        <time>2021-11-18T22:32:52.407Z</time>
      </trkpt>
      <trkpt lat="47.550639" lon="7.896345">
        <ele>323.065855</ele>
        <time>2021-11-18T22:32:54.782Z</time>
      </trkpt>
      <trkpt lat="47.550660" lon="7.896255">
        <ele>323.234700</ele>
        <time>2021-11-18T22:32:55.583Z</time>
      </trkpt>
      <trkpt lat="47.550838" lon="7.895509">
        <ele>324.162027</ele>
        <time>2021-11-18T22:33:05.751Z</time>
      </trkpt>
      <trkpt lat="47.550878" lon="7.895158">
        <ele>324.471489</ele>
        <time>2021-11-18T22:33:09.813Z</time>
      </trkpt>
      <trkpt lat="47.550908" lon="7.894308">
        <ele>325.211448</ele>
        <time>2021-11-18T22:33:20.285Z</time>
      </trkpt>
      <trkpt lat="47.550892" lon="7.893176">
        <ele>326.594495</ele>
        <time>2021-11-18T22:33:35.003Z</time>
      </trkpt>
      <trkpt lat="47.550904" lon="7.891725">
        <ele>330.738153</ele>
        <time>2021-11-18T22:34:04.765Z</time>
      </trkpt>
      <trkpt lat="47.550915" lon="7.890600">
        <ele>334.104875</ele>
        <time>2021-11-18T22:34:33.605Z</time>
      </trkpt>
      <trkpt lat="47.550833" lon="7.889069">
        <ele>340.600045</ele>
        <time>2021-11-18T22:35:16.238Z</time>
      </trkpt>
      <trkpt lat="47.550831" lon="7.888611">
        <ele>342.537033</ele>
        <time>2021-11-18T22:35:28.809Z</time>
      </trkpt>
      <trkpt lat="47.550789" lon="7.887816">
        <ele>345.809785</ele>
        <time>2021-11-18T22:35:49.420Z</time>
      </trkpt>
      <trkpt lat="47.550758" lon="7.887295">
        <ele>347.802988</ele>
        <time>2021-11-18T22:36:03.242Z</time>
      </trkpt>
      <trkpt lat="47.550677" lon="7.886476">
        <ele>350.957487</ele>
        <time>2021-11-18T22:36:24.731Z</time>
      </trkpt>
      <trkpt lat="47.550548" lon="7.885799">
        <ele>353.638352</ele>
        <time>2021-11-18T22:36:41.934Z</time>
      </trkpt>
      <trkpt lat="47.550391" lon="7.885109">
        <ele>356.081160</ele>
        <time>2021-11-18T22:36:59.571Z</time>
      </trkpt>
      <trkpt lat="47.550332" lon="7.884727">
        <ele>357.208832</ele>
        <time>2021-11-18T22:37:08.262Z</time>
      </trkpt>
      <trkpt lat="47.550234" lon="7.883221">
        <ele>361.562655</ele>
        <time>2021-11-18T22:37:41.093Z</time>
      </trkpt>
      <trkpt lat="47.549927" lon="7.881490">
        <ele>366.112818</ele>
        <time>2021-11-18T22:38:13.357Z</time>
      </trkpt>
      <trkpt lat="47.549726" lon="7.880786">
        <ele>367.981412</ele>
        <time>2021-11-18T22:38:29.333Z</time>
      </trkpt>
      <trkpt lat="47.549327" lon="7.879547">
        <ele>371.636045</ele>
        <time>2021-11-18T22:38:59.117Z</time>
      </trkpt>
      <trkpt lat="47.549318" lon="7.879398">
        <ele>372.053831</ele>
        <time>2021-11-18T22:39:02.306Z</time>
      </trkpt>
      <trkpt lat="47.549140" lon="7.879391">
        <ele>372.790604</ele>
        <time>2021-11-18T22:39:09.176Z</time>
      </trkpt>
      <trkpt lat="47.548718" lon="7.879258">
        <ele>374.575790</ele>
        <time>2021-11-18T22:39:22.847Z</time>
      </trkpt>
      <trkpt lat="47.548422" lon="7.878959">
        <ele>376.058138</ele>
        <time>2021-11-18T22:39:33.493Z</time>
      </trkpt>
      <trkpt lat="47.548234" lon="7.878638">
        <ele>376.783472</ele>
        <time>2021-11-18T22:39:41.925Z</time>
      </trkpt>
      <trkpt lat="47.547992" lon="7.877974">
        <ele>377.162546</ele>
        <time>2021-11-18T22:39:55.023Z</time>
      </trkpt>
      <trkpt lat="47.547574" lon="7.876801">
        <ele>377.828874</ele>
        <time>2021-11-18T22:40:08.786Z</time>
      </trkpt>
      <trkpt lat="47.547126" lon="7.875801">
        <ele>375.890275</ele>
        <time>2021-11-18T22:40:17.569Z</time>
      </trkpt>
      <trkpt lat="47.546309" lon="7.874154">
        <ele>370.204042</ele>
        <time>2021-11-18T22:40:30.757Z</time>
      </trkpt>
      <trkpt lat="47.546135" lon="7.873859">
        <ele>368.463213</ele>
        <time>2021-11-18T22:40:33.139Z</time>
      </trkpt>
      <trkpt lat="47.546077" lon="7.873763">
        <ele>367.890703</ele>
        <time>2021-11-18T22:40:33.950Z</time>
      </trkpt>
      <trkpt lat="47.545934" lon="7.873549">
        <ele>366.552603</ele>
        <time>2021-11-18T22:40:35.755Z</time>
      </trkpt>
      <trkpt lat="47.545746" lon="7.873302">
        <ele>364.898385</ele>
        <time>2021-11-18T22:40:38.043Z</time>
      </trkpt>
      <trkpt lat="47.545515" lon="7.873015">
        <ele>362.913680</ele>
        <time>2021-11-18T22:40:40.742Z</time>
      </trkpt>
      <trkpt lat="47.545478" lon="7.872968">
        <ele>362.592823</ele>
        <time>2021-11-18T22:40:41.184Z</time>
      </trkpt>
      <trkpt lat="47.545375" lon="7.872836">
        <ele>361.696253</ele>
        <time>2021-11-18T22:40:42.377Z</time>
      </trkpt>
      <trkpt lat="47.545131" lon="7.872664">
        <ele>359.917385</ele>
        <time>2021-11-18T22:40:44.836Z</time>
      </trkpt>
      <trkpt lat="47.544883" lon="7.872555">
        <ele>358.245480</ele>
        <time>2021-11-18T22:40:47.158Z</time>
      </trkpt>
      <trkpt lat="47.544390" lon="7.872423">
        <ele>355.047295</ele>
        <time>2021-11-18T22:40:51.621Z</time>
      </trkpt>
      <trkpt lat="47.543332" lon="7.872237">
        <ele>348.245878</ele>
        <time>2021-11-18T22:41:01.383Z</time>
      </trkpt>
      <trkpt lat="47.543251" lon="7.872152">
        <ele>347.671920</ele>
        <time>2021-11-18T22:41:02.332Z</time>
      </trkpt>
      <trkpt lat="47.543233" lon="7.872082">
        <ele>347.481628</ele>
        <time>2021-11-18T22:41:02.753Z</time>
      </trkpt>
      <trkpt lat="47.543013" lon="7.872182">
        <ele>346.615592</ele>
        <time>2021-11-18T22:41:04.980Z</time>
      </trkpt>
      <trkpt lat="47.542919" lon="7.872226">
        <ele>346.244597</ele>
        <time>2021-11-18T22:41:05.909Z</time>
      </trkpt>
      <trkpt lat="47.542814" lon="7.872280">
        <ele>345.826309</ele>
        <time>2021-11-18T22:41:06.963Z</time>
      </trkpt>
      <trkpt lat="47.542714" lon="7.872334">
        <ele>345.425750</ele>
        <time>2021-11-18T22:41:08.032Z</time>
      </trkpt>
      <trkpt lat="47.542537" lon="7.872430">
        <ele>344.716395</ele>
        <time>2021-11-18T22:41:09.774Z</time>
      </trkpt>
      <trkpt lat="47.542436" lon="7.872494">
        <ele>344.302982</ele>
        <time>2021-11-18T22:41:11.103Z</time>
      </trkpt>
      <trkpt lat="47.542394" lon="7.872341">
        <ele>343.883387</ele>
        <time>2021-11-18T22:41:12.192Z</time>
      </trkpt>
      <trkpt lat="47.542218" lon="7.871866">
        <ele>342.506851</ele>
        <time>2021-11-18T22:41:15.911Z</time>
      </trkpt>
      <trkpt lat="47.542091" lon="7.871721">
        <ele>341.903423</ele>
        <time>2021-11-18T22:41:17.458Z</time>
      </trkpt>
      <trkpt lat="47.542067" lon="7.871664">
        <ele>341.732758</ele>
        <time>2021-11-18T22:41:18.200Z</time>
      </trkpt>
      <trkpt lat="47.542039" lon="7.871556">
        <ele>341.438850</ele>
        <time>2021-11-18T22:41:19.087Z</time>
      </trkpt>
      <trkpt lat="47.541953" lon="7.871286">
        <ele>340.988747</ele>
        <time>2021-11-18T22:41:21.359Z</time>
      </trkpt>
      <trkpt lat="47.541796" lon="7.871042">
        <ele>340.988747</ele>
        <time>2021-11-18T22:41:23.948Z</time>
      </trkpt>
      <trkpt lat="47.541685" lon="7.870851">
        <ele>340.988747</ele>
        <time>2021-11-18T22:41:25.906Z</time>
      </trkpt>
      <trkpt lat="47.541576" lon="7.870664">
        <ele>340.988747</ele>
        <time>2021-11-18T22:41:27.807Z</time>
      </trkpt>
      <trkpt lat="47.541410" lon="7.870791">
        <ele>340.988747</ele>
        <time>2021-11-18T22:41:29.889Z</time>
      </trkpt>
      <trkpt lat="47.541168" lon="7.870992">
        <ele>340.988747</ele>
        <time>2021-11-18T22:41:33.605Z</time>
      </trkpt>
    </trkseg>
  </trk>
</gpx>